Date StartTime U_cm/s V_cm/s W_cm/s Ustd_cm/s Vstd_cm/s Wstd_cm/s Uvar_(cm/s)^2 Vvar_(cm/s)^2 Wvar_(cm/s)^2 KE_(m/s)^2 TurbulentKE_(m/s)^2 HorizWindSpeed_cm/s FrictionSpeec_cm/s DragCoef SpeedOfSound_m/s SonicTemperature_C Pressure_mb 
04/12/2014  00:00:00     -111.809      -30.236      -13.191       41.144       42.130       24.871     1692.809     1774.917      618.543        0.884        0.204      115.826       20.006        0.030      341.572       16.376      856.995
04/12/2014  00:01:00     -139.364      -34.137       -9.019       50.114       55.333       30.179     2511.437     3061.699      910.747        1.358        0.324      143.484       30.491        0.045      341.467       16.200      857.021
04/12/2014  00:02:00     -158.919      -31.916       -9.419       43.817       49.001       30.461     1919.917     2401.133      927.880        1.580        0.262      162.092       20.393        0.016      341.440       16.154      857.032
04/12/2014  00:03:00     -180.939      -50.579      -12.080       58.489       53.955       30.522     3420.969     2911.137      931.587        2.135        0.363      187.876       26.738        0.020      341.430       16.134      857.045
04/12/2014  00:04:00     -170.695      -67.945       -5.429       73.036       68.012       38.920     5334.199     4625.592     1514.786        2.263        0.574      183.721       40.573        0.049      341.441       16.153      857.052
04/12/2014  00:05:00      -87.981      -20.470       16.531      134.111       68.595       63.754    17985.676     4705.280     4064.623        1.759        1.338       90.331       66.084        0.535      341.458       16.182      857.023
04/12/2014  00:06:00     -259.838      -72.609      -13.992       85.648       81.282       46.378     7335.588     6606.731     2150.943        4.454        0.805      269.792       42.752        0.025      341.538       16.314      857.036
04/12/2014  00:07:00     -268.852      -50.329       -5.090      125.058       77.914       60.316    15639.388     6070.598     3638.079        5.009        1.267      273.523       60.508        0.049      341.578       16.384      857.036
04/12/2014  00:08:00     -287.030      -30.414      -10.548      125.443       84.459       48.015    15736.051     7133.293     2305.455        5.429        1.259      288.637       53.574        0.034      341.521       16.289      857.037
04/12/2014  00:09:00     -142.308      -17.422        3.859      104.535       69.844       57.254    10927.656     4878.226     3278.064        1.982        0.954      143.370       63.410        0.196      341.539       16.321      857.035
04/12/2014  00:10:00     -138.977      -52.660       -2.781      119.656       67.826       57.172    14317.633     4600.304     3268.648        2.214        1.109      148.619       64.834        0.190      341.591       16.409      857.035
04/12/2014  00:11:00     -213.198     -112.093       -3.575      134.198       99.308       52.853    18009.092     9862.060     2793.394        4.434        1.533      240.870       62.875        0.068      341.617       16.450      857.032
04/12/2014  00:12:00     -192.265     -106.163        2.978      119.791       93.555       55.319    14349.838     8752.449     3060.147        3.720        1.308      219.628       56.586        0.066      341.585       16.397      857.031
04/12/2014  00:13:00     -335.275      -59.095      -25.994      113.743      118.969       56.071    12937.383    14153.710     3143.983        7.340        1.512      340.443       51.553        0.023      341.594       16.411      857.030
04/12/2014  00:14:00     -268.745       -8.433      -19.263      114.633       86.927       48.336    13140.634     7556.362     2336.352        4.785        1.152      268.877       47.903        0.032      341.595       16.415      857.022
04/12/2014  00:15:00     -289.644      -35.137      -15.806      154.850       81.359       57.903    23978.490     6619.239     3352.796        5.966        1.698      291.767       76.660        0.069      341.530       16.305      857.021
04/12/2014  00:16:00     -194.718      -31.623       -2.159       91.904       67.362       44.964     8446.352     4537.601     2021.723        2.696        0.750      197.270       37.472        0.036      341.499       16.252      857.025
04/12/2014  00:17:00     -228.479      -43.502      -14.276      106.606       68.492       44.535    11364.787     4691.197     1983.398        3.617        0.902      232.584       43.452        0.035      341.491       16.236      857.028
04/12/2014  00:18:00     -222.905      -68.614       -0.624       76.965       65.195       31.932     5923.581     4250.408     1019.627        3.279        0.560      233.226       32.657        0.020      341.477       16.213      857.019
04/12/2014  00:19:00     -247.830      -37.701       -2.999      127.132       71.955       57.617    16162.448     5177.515     3319.763        4.375        1.233      250.681       66.883        0.071      341.474       16.207      857.016
04/12/2014  00:20:00     -327.804      -80.942      -15.488       90.254       88.648       45.425     8145.863     7858.398     2063.455        6.615        0.903      337.649       51.257        0.023      341.496       16.243      857.018
04/12/2014  00:21:00     -252.188      -71.396      -13.149       91.697       76.744       37.834     8408.380     5889.716     1431.392        4.230        0.786      262.100       37.926        0.021      341.499       16.250      857.020
04/12/2014  00:22:00     -198.409      -49.666       -1.555      105.865       82.821       47.246    11207.483     6859.276     2232.222        3.106        1.015      204.531       51.970        0.065      341.434       16.139      857.033
04/12/2014  00:23:00     -240.463      -43.456       -1.968       78.431       52.108       41.176     6151.352     2715.244     1695.483        3.514        0.528      244.358       42.055        0.030      341.418       16.114      857.032
04/12/2014  00:24:00     -178.709      -72.898       -6.096       69.448       54.798       35.602     4822.989     3002.825     1267.508        2.319        0.455      193.005       35.219        0.033      341.422       16.121      857.009
04/12/2014  00:25:00     -297.531      -90.616      -25.698      112.253       88.431       43.555    12600.737     7819.994     1897.031        5.985        1.116      311.024       44.989        0.021      341.528       16.300      856.994
04/12/2014  00:26:00     -172.571      -73.870        1.291      104.708       74.039       46.013    10963.691     5481.704     2117.200        2.690        0.928      187.716       49.462        0.069      341.420       16.118      856.979
04/12/2014  00:27:00     -221.595      -54.200      -10.604       85.891       72.675       45.284     7377.214     5281.707     2050.642        3.343        0.735      228.127       37.858        0.028      341.475       16.210      856.972
04/12/2014  00:28:00     -284.203      -72.526       -4.377      109.354       73.834       47.631    11958.224     5451.472     2268.715        5.286        0.984      293.311       51.925        0.031      341.460       16.184      856.977
04/12/2014  00:29:00     -225.747      -17.883      -16.448       81.742       85.377       47.177     6681.778     7289.288     2225.700        3.387        0.810      226.455       43.338        0.037      341.460       16.184      856.970
04/12/2014  00:30:00     -232.077      -21.470      -16.705       87.022       72.655       43.402     7572.832     5278.695     1883.702        3.466        0.737      233.068       31.877        0.019      341.455       16.175      856.959
04/12/2014  00:31:00     -218.712      -73.910       -7.297      103.591      101.561       55.929    10731.179    10314.700     3128.016        3.876        1.209      230.863       57.463        0.062      341.406       16.094      856.951
04/12/2014  00:32:00     -255.112      -50.482      -19.950       89.953       69.628       45.570     8091.476     4847.998     2076.592        4.152        0.751      260.059       34.948        0.018      341.425       16.124      856.947
04/12/2014  00:33:00     -212.837      -28.984       -1.736       84.786       93.077       54.183     7188.628     8663.241     2935.845        3.246        0.939      214.802       54.305        0.064      341.371       16.033      856.943
04/12/2014  00:34:00     -202.934      -37.484       -7.963       96.945       73.505       42.104     9398.297     5403.036     1772.748        2.961        0.829      206.367       40.314        0.038      341.358       16.011      856.944
04/12/2014  00:35:00     -344.978      -81.004       -9.039      139.532      118.137       68.634    19469.084    13956.460     4710.637        8.189        1.907      354.361       70.807        0.040      341.427       16.129      856.939
04/12/2014  00:36:00     -274.433      -80.486       -0.913       95.541       85.624       47.387     9128.096     7331.392     2245.511        5.024        0.935      285.992       38.722        0.018      341.407       16.094      856.941
04/12/2014  00:37:00     -202.654      -92.074      -16.787       98.467       94.933       41.559     9695.800     9012.196     1727.121        3.513        1.022      222.590       33.418        0.023      341.426       16.128      856.942
04/12/2014  00:38:00     -207.444      -45.240       -3.649      104.972       86.935       51.153    11019.105     7557.678     2616.590        3.314        1.060      212.319       56.140        0.070      341.392       16.069      856.943
04/12/2014  00:39:00     -159.830      -49.801        5.827      110.662       75.574       45.999    12246.186     5711.485     2115.884        2.406        1.004      167.409       50.396        0.091      341.451       16.171      856.933
04/12/2014  00:40:00     -182.675      -30.581       -9.236       97.517       83.762       41.006     9509.473     7016.061     1681.462        2.630        0.910      185.217       36.410        0.039      341.465       16.194      856.915
04/12/2014  00:41:00      -81.810      -12.405       22.422       97.387       83.807       49.831     9484.223     7023.596     2483.144        1.317        0.950       82.745       43.914        0.282      341.340       15.985      856.913
04/12/2014  00:42:00     -360.048      -61.748      -19.960      149.398       92.347       62.610    22319.619     8528.018     3919.973        8.430        1.738      365.304       72.729        0.040      341.413       16.104      856.922
04/12/2014  00:43:00     -384.190       -7.675      -32.122      146.077       88.428       64.339    21338.564     7819.468     4139.566        9.099        1.665      384.267       67.047        0.030      341.480       16.218      856.920
04/12/2014  00:44:00     -322.780      -57.545      -21.046      124.225       98.751       59.162    15431.812     9751.853     3500.192        6.831        1.434      327.870       70.122        0.046      341.482       16.222      856.932
04/12/2014  00:45:00     -213.050      -66.261        1.022      100.731       87.493       46.242    10146.824     7655.061     2138.339        3.486        0.997      223.116       51.944        0.054      341.442       16.154      856.932
04/12/2014  00:46:00     -276.685       10.169       -9.487      121.007       80.637       50.536    14642.616     6502.285     2553.930        5.022        1.185      276.872       56.727        0.042      341.533       16.309      856.925
04/12/2014  00:47:00     -230.722      -46.983        6.394      115.146      111.248       61.626    13258.486    12376.155     3797.740        4.245        1.472      235.457       66.347        0.079      341.424       16.123      856.931
04/12/2014  00:48:00     -288.813       -6.577      -10.503      137.498       92.477       60.993    18905.630     8552.019     3720.177        5.737        1.559      288.888       65.382        0.051      341.491       16.237      856.926
04/12/2014  00:49:00     -380.306      -61.075       -7.670      125.658      127.598       68.343    15789.975    16281.139     4670.785        9.257        1.837      385.179       60.797        0.025      341.487       16.230      856.936
04/12/2014  00:50:00     -315.195     -111.875      -17.511      111.963       92.523       64.237    12535.680     8560.586     4126.436        6.869        1.261      334.461       62.182        0.035      341.500       16.254      856.957
04/12/2014  00:51:00     -115.906      -35.725        0.467       80.189       98.733       60.451     6430.259     9748.271     3654.344        1.727        0.992      121.287       53.895        0.197      341.427       16.130      856.935
04/12/2014  00:52:00     -195.533      -27.559       -1.095      111.239       62.866       43.867    12374.151     3952.188     1924.347        2.862        0.913      197.466       48.119        0.059      341.424       16.123      856.935
04/12/2014  00:53:00     -336.575      -91.331      -16.617      108.563       73.756       53.307    11785.967     5439.960     2841.649        7.098        1.003      348.747       51.325        0.022      341.389       16.065      856.944
04/12/2014  00:54:00     -192.101      -39.761       -2.087      102.207       87.938       47.084    10446.173     7733.117     2216.858        2.944        1.020      196.173       49.914        0.065      341.400       16.083      856.958
04/12/2014  00:55:00     -264.279      -11.074       -8.578      117.423       88.358       54.595    13788.057     7807.222     2980.586        4.730        1.229      264.511       59.189        0.050      341.480       16.218      856.962
04/12/2014  00:56:00     -178.901      -80.130       -6.818       98.701       92.965       50.908     9741.942     8642.461     2591.593        2.972        1.049      196.026       41.163        0.044      341.410       16.101      856.957
04/12/2014  00:57:00     -276.736      -54.594       -6.290      110.542       69.234       54.000    12219.591     4793.397     2915.986        4.976        0.996      282.070       61.162        0.047      341.379       16.046      856.966
04/12/2014  00:58:00     -265.979      -84.666      -11.829      133.043      109.986       52.589    17700.508    12096.864     2765.558        5.530        1.628      279.129       55.099        0.039      341.398       16.079      856.947
04/12/2014  00:59:00     -390.757      -71.938      -27.096      119.739      102.401       55.460    14337.540    10485.879     3075.818        9.324        1.395      397.323       50.429        0.016      341.387       16.061      856.946
04/12/2014  01:00:00     -341.693      -46.763      -23.618      174.596      107.378       62.052    30483.689    11530.104     3850.485        8.267        2.293      344.878       70.123        0.041      341.428       16.131      856.948
04/12/2014  01:01:00     -365.893      -80.782      -13.692      110.476       79.077       51.371    12204.848     6253.196     2639.013        8.084        1.055      374.705       54.681        0.021      341.534       16.308      856.940
04/12/2014  01:02:00     -274.528      -39.544       -5.517      112.754      107.059       54.280    12713.366    11461.603     2946.328        5.204        1.356      277.362       58.152        0.044      341.464       16.190      856.938
04/12/2014  01:03:00     -270.021       23.656       -8.591      104.046      108.235       60.542    10825.483    11714.769     3665.340        4.987        1.310      271.056       58.064        0.046      341.485       16.227      856.939
04/12/2014  01:04:00     -338.673      -23.537      -31.266      115.052       85.065       50.889    13237.049     7236.055     2589.685        6.964        1.153      339.490       45.624        0.018      341.446       16.161      856.939
04/12/2014  01:05:00     -210.067      -47.084       -1.213      121.127       88.545       49.392    14671.859     7840.270     2439.521        3.564        1.248      215.279       57.088        0.070      341.387       16.063      856.936
04/12/2014  01:06:00     -334.323      -69.160      -33.525      101.791       92.339       46.355    10361.356     8526.556     2148.778        6.935        1.052      341.401       37.766        0.012      341.405       16.091      856.918
04/12/2014  01:07:00     -350.661      -30.039      -19.112      148.364       85.411       66.534    22011.912     7295.123     4426.818        7.898        1.687      351.946       75.156        0.046      341.417       16.112      856.912
04/12/2014  01:08:00     -268.689      -46.549        7.981      171.838       99.794       63.042    29528.351     9958.852     3974.307        5.893        2.173      272.691       72.902        0.071      341.387       16.062      856.897
04/12/2014  01:09:00     -357.461      -75.879      -13.497      155.478       77.160       57.947    24173.517     5953.604     3357.880        8.359        1.674      365.426       69.205        0.036      341.374       16.038      856.896
04/12/2014  01:10:00     -286.010      -73.128       -6.659      142.158      104.577       59.921    20209.013    10936.395     3590.585        6.096        1.737      295.211       60.826        0.042      341.360       16.015      856.890
04/12/2014  01:11:00     -331.996      -64.021      -34.058      157.213       68.080       48.479    24715.921     4634.938     2350.222        7.358        1.585      338.112       55.751        0.027      341.374       16.038      856.884
04/12/2014  01:12:00     -308.482       43.959      -25.374      125.396       74.534       48.782    15724.227     5555.324     2379.700        6.069        1.183      311.599       60.315        0.037      341.407       16.096      856.880
04/12/2014  01:13:00     -197.068      -52.602      -14.879      111.252       72.607       49.523    12376.965     5271.807     2452.531        3.096        1.005      203.968       59.968        0.086      341.335       15.976      856.875
04/12/2014  01:14:00     -248.340      -68.817      -16.637       70.693       82.483       36.357     4997.522     6803.417     1321.795        3.990        0.656      257.699       30.012        0.014      341.255       15.835      856.876
04/12/2014  01:15:00     -258.031      -70.662      -12.472       96.030       75.629       38.909     9221.832     5719.821     1513.937        4.409        0.823      267.532       30.235        0.013      341.245       15.819      856.873
04/12/2014  01:16:00     -312.512      -79.335       -2.993      118.651      111.744       62.695    14078.124    12486.824     3930.691        6.723        1.525      322.425       59.269        0.034      341.406       16.093      856.882
04/12/2014  01:17:00     -304.789     -115.751       -7.206      126.369      129.116       59.059    15969.119    16670.969     3488.005        7.123        1.806      326.029       50.014        0.024      341.425       16.125      856.880
04/12/2014  01:18:00     -252.489      -39.611      -24.373      163.547      139.111       63.145    26747.524    19351.906     3987.229        5.799        2.504      255.577       65.327        0.065      341.619       16.455      856.866
04/12/2014  01:19:00     -150.863       75.400      -12.315       74.311      135.760       54.809     5522.107    18430.786     3003.976        2.777        1.348      168.656       33.271        0.039      341.511       16.272      856.840
04/12/2014  01:20:00     -200.910       -6.615      -27.441       92.012       89.241       48.219     8466.294     7963.893     2325.106        2.995        0.938      201.019       56.619        0.079      341.393       16.072      856.844
04/12/2014  01:21:00     -240.688      -41.239      -29.623       52.330       81.520       46.440     2738.452     6645.543     2156.671        3.602        0.577      244.196       16.520        0.005      341.294       15.903      856.842
04/12/2014  01:22:00     -216.597      -99.550      -35.814       84.435       68.428       39.633     7129.308     4682.459     1570.752        3.574        0.669      238.379       24.858        0.011      341.284       15.888      856.835
04/12/2014  01:23:00     -245.271      -83.754      -30.561       94.160       67.782       41.110     8866.043     4594.386     1690.056        4.163        0.758      259.177       34.793        0.018      341.282       15.885      856.828
04/12/2014  01:24:00     -183.981      -22.686      -19.678       87.715       71.077       41.793     7693.991     5051.950     1746.688        2.462        0.725      185.374       49.222        0.071      341.303       15.920      856.828
04/12/2014  01:25:00     -181.300       39.380      -25.609       56.843       58.748       40.063     3231.171     3451.271     1605.031        2.168        0.414      185.528       30.257        0.027      341.288       15.895      856.837
04/12/2014  01:26:00     -123.476        9.949      -12.533       84.157       97.200       54.403     7082.426     9447.911     2959.737        1.749        0.975      123.876       41.078        0.110      341.192       15.731      856.839
04/12/2014  01:27:00      -92.396       63.980        7.004       73.352       77.478       42.980     5380.452     6002.916     1847.248        1.295        0.662      112.385       32.148        0.082      341.237       15.811      856.838
04/12/2014  01:28:00      -86.053      126.183       -6.123       49.460       82.566       39.211     2446.282     6817.120     1537.494        1.708        0.540      152.732       35.485        0.054      341.184       15.720      856.819
04/12/2014  01:29:00     -160.852       77.422      -25.210       89.963      106.514       63.800     8093.339    11345.308     4070.501        2.800        1.175      178.515       45.428        0.065      341.190       15.731      856.823
04/12/2014  01:30:00     -184.401        2.726      -11.552       96.643       95.972       46.982     9339.783     9210.624     2207.320        2.745        1.038      184.421       40.196        0.048      341.113       15.598      856.831
04/12/2014  01:31:00     -150.836       49.642      -30.726       74.272       58.879       38.802     5516.259     3466.744     1505.582        1.832        0.524      158.795       28.721        0.033      341.128       15.624      856.836
04/12/2014  01:32:00      -97.832        5.971       -0.458       63.383       51.227       37.511     4017.418     2624.178     1407.111        0.883        0.402       98.014       25.437        0.067      341.073       15.532      856.831
04/12/2014  01:33:00     -114.143       90.256      -20.756       79.494       66.926       43.373     6319.271     4479.146     1881.189        1.714        0.634      145.515       41.477        0.081      341.052       15.496      856.836
04/12/2014  01:34:00     -140.398       73.461      -27.871       52.006       46.764       29.304     2704.585     2186.891      858.707        1.582        0.288      158.456       26.509        0.028      341.064       15.516      856.827
04/12/2014  01:35:00     -138.418       -2.554       -0.656       72.357       58.970       34.038     5235.531     3477.459     1158.554        1.452        0.494      138.442       34.647        0.063      341.138       15.642      856.827
04/12/2014  01:36:00     -122.693      -36.528       -3.598       39.479       37.400       33.963     1558.586     1398.733     1153.487        1.026        0.206      128.015       20.978        0.027      341.028       15.456      856.829
04/12/2014  01:37:00     -121.829        8.529      -17.712       55.518       69.939       27.737     3082.229     4891.466      769.318        1.198        0.437      122.127       22.233        0.033      340.985       15.384      856.825
04/12/2014  01:38:00     -121.393       35.469       -4.328       58.087       75.343       29.804     3374.099     5676.634      888.265        1.297        0.497      126.468       31.462        0.062      340.996       15.402      856.818
04/12/2014  01:39:00     -149.348      -55.564      -17.960       45.984       42.132       21.089     2114.520     1775.116      444.733        1.502        0.217      159.349       13.991        0.008      340.888       15.220      856.800
04/12/2014  01:40:00      -95.000      -23.986      -24.541       43.692       39.572       23.385     1908.978     1565.971      546.855        0.711        0.201       97.982       16.108        0.027      340.837       15.135      856.798
04/12/2014  01:41:00     -124.690      -32.574      -10.785       52.983       50.648       33.101     2807.178     2565.246     1095.704        1.160        0.323      128.875       30.639        0.057      340.885       15.213      856.804
04/12/2014  01:42:00     -103.696      -11.132      -15.556       46.029       35.512       25.523     2118.659     1261.072      651.437        0.757        0.202      104.291       16.541        0.025      340.937       15.301      856.800
04/12/2014  01:43:00      -91.115       -9.017       -2.353       33.407       54.217       25.694     1116.013     2939.460      660.169        0.655        0.236       91.560       16.351        0.032      340.893       15.229      856.811
04/12/2014  01:44:00      -21.888       64.916        5.363       37.115       68.941       25.506     1377.534     4752.885      650.542        0.575        0.339       68.507       24.769        0.131      341.021       15.444      856.800
04/12/2014  01:45:00      -80.026       22.280       -3.881       49.300       42.639       29.366     2430.488     1818.118      862.361        0.601        0.256       83.069       20.738        0.062      341.022       15.446      856.809
04/12/2014  01:46:00      -98.817       23.184      -17.872       45.423       57.709       23.871     2063.258     3330.386      569.839        0.829        0.298      101.500       24.544        0.058      340.960       15.342      856.819
04/12/2014  01:47:00      -75.938      106.151      -27.686       59.143       47.397       35.210     3497.901     2246.444     1239.729        1.239        0.349      130.517       25.279        0.038      340.884       15.213      856.818
04/12/2014  01:48:00     -111.712      -25.132      -16.766       53.037       51.975       26.975     2812.943     2701.363      727.667        0.982        0.312      114.504       15.494        0.018      340.854       15.161      856.808
04/12/2014  01:49:00      -78.975      109.827      -16.679       55.465       80.587       43.790     3076.383     6494.322     1917.554        1.503        0.574      135.274       34.613        0.065      340.868       15.186      856.809
04/12/2014  01:50:00     -139.721       90.410      -17.439       56.665       47.209       37.147     3210.942     2228.695     1379.871        1.741        0.341      166.421       27.988        0.028      340.846       15.148      856.798
04/12/2014  01:51:00     -104.607       68.196      -27.827       57.863       99.849       52.840     3348.113     9969.841     2792.079        1.624        0.806      124.873       41.186        0.109      340.805       15.078      856.798
04/12/2014  01:52:00     -139.654      185.908      -39.415       89.822       74.397       48.781     8067.924     5534.952     2379.591        3.580        0.799      232.519       56.122        0.058      340.703       14.902      856.800
04/12/2014  01:53:00     -147.649      277.207      -39.265       75.149       72.230       54.540     5647.355     5217.131     2974.650        5.701        0.692      314.077       49.824        0.025      340.817       15.096      856.797
04/12/2014  01:54:00     -126.698      235.495      -22.533       76.476      111.537       52.254     5848.522    12440.414     2730.429        4.651        1.051      267.414       55.905        0.044      341.003       15.410      856.755
04/12/2014  01:55:00     -136.436       96.959      -19.604       53.031       64.999       39.111     2812.314     4224.854     1529.668        1.848        0.428      167.380       38.264        0.052      340.823       15.108      856.774
04/12/2014  01:56:00     -112.481       30.023      -30.137       35.262       63.236       27.605     1243.394     3998.783      762.048        1.023        0.300      116.419       22.801        0.038      340.840       15.139      856.786
04/12/2014  01:57:00     -138.872       42.756      -12.064       86.680       88.772       46.029     7513.418     7880.521     2118.689        1.938        0.876      145.305       36.835        0.064      340.715       14.925      856.790
04/12/2014  01:58:00     -137.911      215.644      -28.795       53.216       71.143       38.629     2831.914     5061.287     1492.206        3.787        0.469      255.972       27.846        0.012      340.688       14.878      856.774
04/12/2014  01:59:00     -102.341       96.740      -18.850       53.743       66.272       34.614     2888.337     4391.965     1198.135        1.433        0.424      140.827       35.228        0.063      340.764       15.009      856.765
04/12/2014  02:00:00      -81.622       39.976      -11.928       40.944       76.468       27.643     1676.375     5847.362      764.108        0.834        0.414       90.886       26.658        0.086      340.730       14.952      856.757
04/12/2014  02:01:00     -122.953        3.544      -13.958       45.466       45.654       32.766     2067.133     2084.298     1073.639        1.027        0.261      123.004       25.341        0.042      340.744       14.976      856.775
04/12/2014  02:02:00     -157.321      -32.045      -11.303       69.726       50.940       35.727     4861.731     2594.931     1276.403        1.732        0.437      160.552       33.843        0.044      340.643       14.803      856.797
04/12/2014  02:03:00     -168.690       45.387      -31.887       79.068       63.164       41.737     6251.744     3989.628     1741.953        2.176        0.599      174.689       41.672        0.057      340.569       14.676      856.789
04/12/2014  02:04:00     -154.927       62.313      -26.438       51.706       54.583       36.470     2673.476     2979.274     1330.052        1.778        0.349      166.989       34.860        0.044      340.542       14.635      856.792
04/12/2014  02:05:00     -127.104      166.360      -31.248       66.909       67.135       40.519     4476.834     4507.060     1641.780        2.771        0.531      209.359       38.681        0.034      340.555       14.654      856.783
04/12/2014  02:06:00     -160.329      176.864      -36.499       56.935       66.630       43.705     3241.551     4439.590     1910.165        3.395        0.480      238.719       31.205        0.017      340.550       14.643      856.754
04/12/2014  02:07:00     -194.358      124.340      -22.740       89.218       82.645       44.808     7959.864     6830.151     2007.724        3.527        0.840      230.728       41.121        0.032      340.501       14.562      856.763
04/12/2014  02:08:00     -188.740        6.664      -21.603       68.286       75.100       40.024     4663.015     5640.082     1601.889        2.402        0.595      188.857       15.110        0.006      340.475       14.518      856.767
04/12/2014  02:09:00     -212.749      -52.719      -12.639      102.153       73.157       39.909    10435.191     5351.944     1592.721        3.279        0.869      219.183       46.516        0.045      340.339       14.287      856.759
04/12/2014  02:10:00     -185.907      -27.741      -24.899       64.984       70.828       43.182     4222.905     5016.539     1864.648        2.353        0.555      187.966       38.997        0.043      340.415       14.418      856.748
04/12/2014  02:11:00     -151.994       86.129      -26.317      104.036       83.039       46.318    10823.485     6895.558     2145.314        2.553        0.993      174.701       56.562        0.105      340.526       14.606      856.735
04/12/2014  02:12:00     -102.127       97.045       -6.339       75.742       66.155       45.873     5736.861     4376.532     2104.310        1.605        0.611      140.882       44.918        0.102      340.599       14.729      856.738
04/12/2014  02:13:00     -193.520       77.676      -33.118       74.104       93.969       37.169     5491.371     8830.257     1381.527        3.014        0.785      208.528       28.964        0.019      340.632       14.783      856.736
04/12/2014  02:14:00      -86.832       -4.562       -8.522       47.997       49.186       31.191     2303.730     2419.238      972.855        0.666        0.285       86.952       22.770        0.069      340.601       14.733      856.728
04/12/2014  02:15:00     -100.911       21.431      -13.725       63.282       43.231       34.076     4004.610     1868.927     1161.169        0.893        0.352      103.161       38.432        0.139      340.557       14.659      856.724
04/12/2014  02:16:00     -113.501       48.687       -7.990       59.672       45.612       32.067     3560.807     2080.491     1028.279        1.099        0.333      123.503       26.955        0.048      340.496       14.556      856.720
04/12/2014  02:17:00     -162.386       74.006      -19.913       93.389       62.670       41.065     8721.443     3927.496     1686.360        2.329        0.717      178.455       45.073        0.064      340.646       14.808      856.711
04/12/2014  02:18:00     -141.904       30.124       -8.008       84.042       76.799       43.091     7063.087     5898.057     1856.839        1.796        0.741      145.067       37.878        0.068      340.617       14.761      856.709
04/12/2014  02:19:00     -153.209       46.644      -30.063       51.628       68.744       35.141     2665.457     4725.691     1234.888        1.759        0.431      160.152       25.164        0.025      340.696       14.893      856.690
04/12/2014  02:20:00      -99.891      -69.033      -18.114       56.008       55.951       33.821     3136.885     3130.472     1143.857        1.124        0.371      121.424       26.174        0.046      340.630       14.782      856.682
04/12/2014  02:21:00     -105.580      -18.055      -14.660       52.832       46.169       27.943     2791.245     2131.612      780.789        0.869        0.285      107.113       18.162        0.029      340.666       14.845      856.662
04/12/2014  02:22:00      -88.679       13.635       -8.091       33.942       48.092       27.479     1152.066     2312.821      755.106        0.617        0.211       89.721       19.208        0.046      340.711       14.921      856.661
04/12/2014  02:23:00      -70.125       57.650       -7.018       42.688       55.846       37.888     1822.266     3118.755     1435.496        0.733        0.319       90.780       31.157        0.118      340.799       15.068      856.665
04/12/2014  02:24:00     -104.547      122.325      -19.421       47.859       67.575       34.511     2290.512     4566.423     1191.018        1.716        0.402      160.915       39.599        0.061      340.820       15.103      856.665
04/12/2014  02:25:00     -113.950      104.067      -23.520       50.023       47.101       36.435     2502.253     2218.472     1327.503        1.521        0.302      154.319       29.182        0.036      340.807       15.082      856.673
04/12/2014  02:26:00     -101.449       75.039      -14.320       41.756       56.359       24.097     1743.549     3176.310      580.672        1.081        0.275      126.185       22.206        0.031      340.790       15.053      856.673
04/12/2014  02:27:00     -121.447       82.632      -18.890       42.542       49.647       20.235     1809.853     2464.811      409.435        1.331        0.234      146.892       19.012        0.017      340.768       15.017      856.677
04/12/2014  02:28:00     -153.032       32.313      -12.953       46.862       28.300       23.900     2196.085      800.912      571.216        1.410        0.178      156.406       26.252        0.028      340.854       15.162      856.686
04/12/2014  02:29:00     -147.110       -0.546      -17.769       35.667       67.632       27.713     1272.127     4574.091      768.015        1.428        0.331      147.111       21.929        0.022      340.754       14.992      856.684
04/12/2014  02:30:00      -95.514      -11.854       -6.193       34.921       47.898       22.564     1219.458     2294.176      509.136        0.666        0.201       96.247       18.654        0.038      340.655       14.827      856.689
04/12/2014  02:31:00      -96.252       -4.618       -1.615       52.910       37.011       28.265     2799.430     1369.810      798.905        0.713        0.248       96.363       29.499        0.094      340.553       14.651      856.685
04/12/2014  02:32:00      -22.573       -4.000        5.771       41.710       84.190       30.784     1739.687     7087.960      947.659        0.517        0.489       22.924       28.468        1.542      340.743       14.975      856.680
04/12/2014  02:33:00      -57.399        6.555       -3.049       32.218       34.155       22.082     1037.970     1166.575      487.632        0.302        0.135       57.772       19.894        0.119      340.782       15.039      856.671
04/12/2014  02:34:00       14.784      -23.269        1.985       37.782       37.604       21.090     1427.498     1414.083      444.805        0.202        0.164       27.568       17.526        0.404      340.521       14.599      856.679
04/12/2014  02:35:00      -84.272      -78.148       -5.860       48.822       42.657       28.736     2383.631     1819.603      825.761        0.914        0.251      114.930       25.077        0.048      340.547       14.643      856.688
04/12/2014  02:36:00      -74.070      -61.573        5.216       56.774       53.880       30.750     3223.245     2903.059      945.551        0.819        0.354       96.320       34.707        0.130      340.521       14.599      856.670
04/12/2014  02:37:00      -52.227      -28.547        9.856       79.357       43.962       28.191     6297.585     1932.648      794.748        0.633        0.451       59.520       32.593        0.300      340.519       14.595      856.668
04/12/2014  02:38:00      -94.952      -90.317        1.565       58.405       47.629       30.103     3411.187     2268.534      906.217        1.188        0.329      131.046       32.300        0.061      340.480       14.529      856.667
04/12/2014  02:39:00     -123.943      -96.794        7.320       49.932       44.950       30.407     2493.199     2020.461      924.572        1.511        0.272      157.261       29.783        0.036      340.444       14.468      856.659
04/12/2014  02:40:00     -128.727      -71.535       -5.897       29.989       33.997       21.427      899.355     1155.800      459.134        1.212        0.126      147.268       15.136        0.011      340.478       14.527      856.649
04/12/2014  02:41:00     -111.002      -56.095        6.704       57.721       40.028       26.766     3331.730     1602.248      716.418        1.058        0.283      124.371       30.307        0.059      340.480       14.530      856.631
04/12/2014  02:42:00     -130.035      -61.654       -4.891       44.499       39.542       25.644     1980.188     1563.594      657.608        1.247        0.210      143.911       12.494        0.008      340.445       14.469      856.634
04/12/2014  02:43:00     -110.455       -8.115       -5.787       32.388       25.292       19.802     1048.953      639.675      392.137        0.719        0.104      110.753       19.242        0.030      340.415       14.421      856.634
04/12/2014  02:44:00     -104.317      -45.076       -3.649       25.538       33.155       20.849      652.212     1099.240      434.679        0.756        0.109      113.639       16.951        0.022      340.391       14.379      856.623
04/12/2014  02:45:00      -85.607      -51.861       -1.510       58.105       35.414       24.822     3376.239     1254.117      616.110        0.763        0.262      100.090       30.318        0.092      340.358       14.323      856.621
04/12/2014  02:46:00      -92.400      -50.623       -6.626       50.282       27.571       19.620     2528.306      760.171      384.944        0.741        0.184      105.359       23.255        0.049      340.383       14.366      856.627
04/12/2014  02:47:00     -135.456      -65.838       -8.185       23.796       22.972       17.393      566.231      527.707      302.500        1.207        0.070      150.609       10.263        0.005      340.458       14.493      856.627
04/12/2014  02:48:00      -49.978      -48.216       -5.463       59.585       43.540       29.814     3550.394     1895.709      888.863        0.559        0.317       69.445       21.785        0.098      340.370       14.345      856.645
04/12/2014  02:49:00      -70.466      -77.907        2.464       51.575       44.207       32.259     2659.936     1954.295     1040.634        0.835        0.283      105.047       30.339        0.083      340.380       14.362      856.645
04/12/2014  02:50:00     -112.434      -99.433       -0.390       55.697       43.372       27.022     3102.197     1881.095      730.209        1.412        0.286      150.094       26.260        0.031      340.399       14.393      856.624
04/12/2014  02:51:00      -59.568      -57.286       10.763       51.103       39.990       27.531     2611.521     1599.228      757.971        0.596        0.248       82.644       27.655        0.112      340.345       14.301      856.620
04/12/2014  02:52:00      -43.015      -56.846        9.561       61.142       38.104       34.704     3738.337     1451.950     1204.369        0.578        0.320       71.287       21.529        0.091      340.245       14.132      856.623
04/12/2014  02:53:00      -64.268      -25.304        5.458       49.228       33.842       22.706     2423.433     1145.275      515.578        0.444        0.204       69.070       20.405        0.087      340.185       14.032      856.613
04/12/2014  02:54:00     -102.156      -18.409       -8.011       35.965       33.691       17.793     1293.511     1135.085      316.597        0.679        0.137      103.801       15.438        0.022      340.258       14.155      856.637
04/12/2014  02:55:00      -66.198      -31.662       -4.087       21.883       15.267       13.222      478.873      233.076      174.813        0.314        0.044       73.381        9.920        0.018      340.174       14.011      856.655
04/12/2014  02:56:00      -10.549      -69.941       -1.318       15.918       38.027       13.784      253.369     1446.035      189.985        0.345        0.094       70.732       11.572        0.027      340.214       14.077      856.652
04/12/2014  02:57:00      -56.571     -113.176       -7.845       29.044       16.148       15.010      843.582      260.773      225.312        0.870        0.066      126.527        8.705        0.005      340.184       14.028      856.650
04/12/2014  02:58:00      -36.700      -63.703       12.899       60.162       42.756       29.616     3619.431     1828.060      877.135        0.595        0.316       73.518       38.771        0.278      340.155       13.980      856.653
04/12/2014  02:59:00      -87.077      -89.405       -5.387       46.446       34.577       20.790     2157.271     1195.585      432.224        0.969        0.189      124.802       15.341        0.015      340.138       13.952      856.652
04/12/2014  03:00:00      -58.137      -45.467        1.876       50.859       26.336       24.057     2586.618      693.560      578.756        0.465        0.193       73.805       13.522        0.034      340.098       13.885      856.644
04/12/2014  03:01:00      -59.970      -42.020        7.636       47.436       35.703       24.122     2250.192     1274.694      581.852        0.476        0.205       73.226       21.992        0.090      340.053       13.808      856.653
04/12/2014  03:02:00      -57.960       -4.977        0.475       46.141       17.223       20.514     2128.989      296.615      420.833        0.311        0.142       58.173       26.633        0.210      339.969       13.666      856.660
04/12/2014  03:03:00      -38.981      -45.921      -10.448       50.244       27.142       18.337     2524.460      736.705      336.254        0.367        0.180       60.235       20.845        0.120      340.029       13.769      856.669
04/12/2014  03:04:00       36.643       28.533       -0.348       28.248       50.283       25.947      797.974     2528.375      673.260        0.308        0.200       46.442       23.048        0.246      339.810       13.400      856.655
04/12/2014  03:05:00       49.646       39.369       -1.758       17.402       18.002       18.161      302.847      324.064      329.806        0.249        0.048       63.361       11.485        0.033      339.794       13.372      856.673
04/12/2014  03:06:00       36.666       27.066      -13.142       24.686       18.431       15.719      609.420      339.684      247.072        0.172        0.060       45.574       10.269        0.051      339.799       13.381      856.689
04/12/2014  03:07:00       36.742       15.574        9.806       18.904       20.472       21.140      357.350      419.087      446.885        0.146        0.061       39.906       11.237        0.079      339.661       13.145      856.693
04/12/2014  03:08:00       52.426      -26.891        5.165       24.241       22.255       19.957      587.646      495.292      398.278        0.249        0.074       58.920       13.559        0.053      339.310       12.555      856.687
04/12/2014  03:09:00       52.696      -35.682       -9.917       32.210       28.261       18.789     1037.484      798.676      353.022        0.317        0.109       63.640       16.375        0.066      339.514       12.898      856.691
04/12/2014  03:10:00       12.115      -44.189        1.562       30.429       24.359       23.549      925.911      593.362      554.566        0.209        0.104       45.820       22.777        0.247      339.564       12.984      856.687
04/12/2014  03:11:00       17.704        2.422       -6.524       24.691       20.427       13.836      609.633      417.269      191.430        0.079        0.061       17.869        5.352        0.090      339.551       12.961      856.686
04/12/2014  03:12:00      -12.729      -22.106       -5.702       14.077       19.752       15.487      198.167      390.143      239.852        0.076        0.041       25.509        7.325        0.082      339.532       12.930      856.686
04/12/2014  03:13:00       -7.949        5.883      -14.969       17.995       15.626       14.723      323.815      244.161      216.753        0.055        0.039        9.889       11.978        1.467      339.487       12.854      856.696
04/12/2014  03:14:00       32.883       27.433       -5.869       29.041       19.359       20.640      843.372      374.782      425.998        0.176        0.082       42.824       19.935        0.217      339.526       12.920      856.702
04/12/2014  03:15:00      104.743       55.541       24.398       23.946       19.400       20.181      573.388      376.354      407.282        0.800        0.068      118.557       11.188        0.009      339.659       13.144      856.701
04/12/2014  03:16:00       89.469       62.247       45.703       33.157       34.783       29.693     1099.408     1209.887      881.646        0.858        0.160      108.993       15.054        0.019      339.611       13.064      856.686
04/12/2014  03:17:00       78.643       30.992       11.476       36.772       30.317       24.386     1352.184      919.128      594.676        0.507        0.143       84.530       16.119        0.036      339.590       13.027      856.693
04/12/2014  03:18:00       88.545       33.804       21.824       48.132       30.075       32.082     2316.666      904.522     1029.244        0.685        0.213       94.778       22.227        0.055      339.537       12.940      856.693
04/12/2014  03:19:00       72.086       59.615       50.051       41.497       34.365       37.091     1722.019     1180.950     1375.735        0.777        0.214       93.543       22.479        0.058      339.548       12.957      856.684
04/12/2014  03:20:00       43.279       47.705       39.802       37.438       29.026       21.637     1401.575      842.498      468.163        0.422        0.136       64.412       16.868        0.069      339.559       12.974      856.694
04/12/2014  03:21:00       89.778       61.391       17.649       31.059       27.486       19.689      964.670      755.495      387.654        0.712        0.105      108.761       13.034        0.014      339.597       13.040      856.708
04/12/2014  03:22:00       96.292       28.523        8.794       27.790       19.410       18.399      772.297      376.751      338.539        0.583        0.074      100.428       14.999        0.022      339.433       12.763      856.706
04/12/2014  03:23:00       47.635       34.341       45.187       43.907       30.156       26.056     1927.798      909.394      678.895        0.450        0.176       58.723       23.111        0.155      339.421       12.742      856.701
04/12/2014  03:24:00       40.732       -2.072       29.968       33.808       34.943       27.829     1142.986     1221.010      774.453        0.285        0.157       40.784       26.174        0.412      339.490       12.859      856.713
04/12/2014  03:25:00       61.632      -13.610       16.568       26.974       21.115       18.213      727.576      445.860      331.729        0.288        0.075       63.117       13.964        0.049      339.586       13.020      856.741
04/12/2014  03:26:00       21.811       14.430        8.069       15.900       16.069       13.054      252.808      258.223      170.409        0.072        0.034       26.153       11.144        0.182      339.494       12.864      856.752
04/12/2014  03:27:00       12.651        1.980       14.544       14.553       13.271       11.284      211.796      176.106      127.326        0.045        0.026       12.805        6.814        0.283      339.426       12.749      856.762
04/12/2014  03:28:00       45.429       33.364       38.229       22.803       22.624       19.199      519.992      511.831      368.604        0.302        0.070       56.364       16.532        0.086      339.298       12.535      856.742
04/12/2014  03:29:00      104.038       42.911       20.388       34.037       30.929       28.170     1158.545      956.593      793.529        0.799        0.145      112.540       21.496        0.036      339.289       12.521      856.722
04/12/2014  03:30:00       98.257       45.319       15.006       20.090       18.142       14.588      403.590      329.134      212.811        0.644        0.047      108.205       10.323        0.009      339.242       12.441      856.708
04/12/2014  03:31:00       79.324       37.579       48.958       25.009       34.692       27.807      625.435     1203.521      773.237        0.635        0.130       87.775       24.616        0.079      339.212       12.392      856.700
04/12/2014  03:32:00       88.608       36.204       28.473       56.117       41.448       32.635     3149.124     1717.949     1065.046        0.795        0.297       95.719       28.013        0.086      339.275       12.496      856.701
04/12/2014  03:33:00       55.743       16.979       23.569       47.391       31.566       37.935     2245.920      996.389     1439.073        0.432        0.234       58.271       28.553        0.240      339.218       12.400      856.702
04/12/2014  03:34:00       74.597       47.685       40.898       50.564       34.603       39.064     2556.693     1197.393     1525.984        0.739        0.264       88.536       36.212        0.167      339.226       12.415      856.681
04/12/2014  03:35:00       43.899       53.131       44.316       40.018       26.399       29.819     1601.430      696.899      889.164        0.495        0.159       68.920       25.097        0.133      339.244       12.443      856.671
04/12/2014  03:36:00       21.165       46.641       56.892       34.948       33.623       29.188     1221.363     1130.501      851.941        0.453        0.160       51.218       27.006        0.278      339.245       12.446      856.663
04/12/2014  03:37:00       12.460       19.897       53.758       30.209       36.665       23.877      912.581     1344.318      570.117        0.313        0.141       23.476       24.015        1.046      339.345       12.615      856.669
04/12/2014  03:38:00       -3.354       20.634       47.318       13.355       39.476       20.114      178.349     1558.354      404.572        0.241        0.107       20.904       25.554        1.494      339.436       12.769      856.675
04/12/2014  03:39:00       13.182       30.416        9.803       32.174       24.024       33.253     1035.183      577.165     1105.791        0.196        0.136       33.149       21.048        0.403      339.273       12.493      856.691
04/12/2014  03:40:00       10.337      -29.118       -1.821       35.324       24.602       21.212     1247.779      605.249      449.945        0.163        0.115       30.899       22.477        0.529      339.382       12.675      856.698
04/12/2014  03:41:00       54.833       32.642       24.211       16.141       19.110       23.096      260.543      365.208      533.420        0.291        0.058       63.813        8.202        0.017      339.279       12.503      856.703
04/12/2014  03:42:00       25.960       25.537        1.379       26.944       17.116       18.623      725.955      292.959      346.805        0.135        0.068       36.415       17.888        0.241      339.355       12.632      856.702
04/12/2014  03:43:00       22.415       20.635       17.984       26.544       19.980       20.734      704.560      399.215      429.913        0.139        0.077       30.467       19.666        0.417      339.335       12.598      856.715
04/12/2014  03:44:00       24.846       23.363        1.175       10.791       17.805        9.573      116.452      317.005       91.642        0.084        0.026       34.105        5.993        0.031      339.393       12.695      856.731
04/12/2014  03:45:00       18.969      -12.495       -1.901       16.311       14.080        8.411      266.053      198.256       70.752        0.053        0.027       22.715        5.987        0.069      339.471       12.828      856.719
04/12/2014  03:46:00        9.276        0.254       11.142        9.950       15.927       11.345       99.001      253.668      128.712        0.035        0.024        9.279       11.316        1.487      339.339       12.604      856.701
04/12/2014  03:47:00       13.286      -30.538        5.424       15.243       25.348       16.132      232.345      642.532      260.243        0.114        0.057       33.303       15.202        0.208      339.527       12.921      856.693
04/12/2014  03:48:00      -21.960      -38.501        1.223       23.112       26.357       22.977      534.163      694.682      527.925        0.186        0.088       44.324       18.984        0.183      339.773       13.338      856.707
04/12/2014  03:49:00       -8.764       -5.897        6.706       14.691        7.816       10.672      215.829       61.087      113.896        0.027        0.020       10.563        5.774        0.299      339.317       12.567      856.714
04/12/2014  03:50:00        3.077       -4.485        1.426        7.672        8.080        7.526       58.860       65.286       56.647        0.011        0.009        5.439        6.745        1.538      339.356       12.633      856.697
04/12/2014  03:51:00       15.627        8.076        6.119        8.759        9.179        9.229       76.726       84.257       85.180        0.030        0.012       17.590        8.281        0.222      339.213       12.394      856.688
04/12/2014  03:52:00        7.254      -14.969       -1.864        6.564        7.517        4.652       43.087       56.500       21.644        0.020        0.006       16.634        4.773        0.082      339.649       13.128      856.677
04/12/2014  03:53:00        1.444        0.866        3.977        6.082        8.836        7.268       36.989       78.068       52.821        0.009        0.008        1.684        6.721       15.939      339.371       12.659      856.679
04/12/2014  03:54:00      -47.326        5.374       -8.281       19.900       18.766       10.314      396.016      352.178      106.378        0.160        0.043       47.631        8.718        0.034      339.372       12.659      856.676
04/12/2014  03:55:00      -40.249       -3.153       -6.733       26.341       20.048       14.716      693.860      401.908      216.557        0.149        0.066       40.373       16.456        0.166      339.465       12.818      856.683
04/12/2014  03:56:00      -18.492      -28.858       -0.891       14.991       16.978        6.846      224.719      288.245       46.866        0.087        0.028       34.274        3.703        0.012      339.417       12.735      856.685
04/12/2014  03:57:00      -17.547      -28.175       -2.320       23.060       17.167        8.360      531.786      294.706       69.891        0.100        0.045       33.192        6.812        0.042      339.534       12.933      856.682
04/12/2014  03:58:00     -108.294      -13.736      -12.179       24.346       20.051       12.334      592.705      402.048      152.129        0.661        0.057      109.162        7.825        0.005      339.229       12.419      856.690
04/12/2014  03:59:00      -47.703      -30.311       -4.323       24.390        9.021        8.932      594.896       81.370       79.775        0.198        0.038       56.519       10.450        0.034      339.314       12.562      856.689
04/12/2014  04:00:00      -30.678      -34.101        1.150       12.585        7.844        9.500      158.370       61.522       90.253        0.121        0.016       45.869        9.997        0.048      339.387       12.685      856.684
04/12/2014  04:01:00      -35.257      -34.887        4.978       18.430        9.621        9.625      339.664       92.567       92.633        0.150        0.026       49.600        8.909        0.032      339.476       12.837      856.680
04/12/2014  04:02:00      -57.685      -32.777       -3.090       14.967       12.549        8.514      224.004      157.480       72.480        0.243        0.023       66.346        7.595        0.013      339.426       12.752      856.686
04/12/2014  04:03:00      -24.919      -13.017        0.182       23.200       16.868       11.222      538.233      284.524      125.944        0.087        0.047       28.114       10.900        0.150      339.704       13.219      856.680
04/12/2014  04:04:00      -32.331      -31.487        5.253       31.112       19.083       15.069      967.971      364.164      227.076        0.181        0.078       45.130       15.323        0.115      339.443       12.780      856.670
04/12/2014  04:05:00      -80.115      -26.855       -4.700       30.728       19.670       12.719      944.235      386.917      161.781        0.433        0.075       84.496       13.630        0.026      339.297       12.534      856.670
04/12/2014  04:06:00      -63.440      -37.088       -5.628       21.943       19.368        9.865      481.495      375.121       97.319        0.319        0.048       73.485        8.563        0.014      339.442       12.777      856.665
04/12/2014  04:07:00      -70.881      -41.198       -8.358       31.525       10.983       12.842      993.811      120.626      164.910        0.404        0.064       81.985       16.141        0.039      339.483       12.846      856.656
04/12/2014  04:08:00      -72.963       42.982       -7.753       49.949       74.062       20.510     2494.906     5485.136      420.656        0.781        0.420       84.682       15.417        0.033      339.691       13.199      856.650
04/12/2014  04:09:00     -151.617       52.628      -13.785       70.141       43.213       24.945     4919.692     1867.379      622.253        1.668        0.370      160.491       26.836        0.028      339.763       13.316      856.641
04/12/2014  04:10:00      -76.151       13.064       -4.392       36.417       40.978       24.583     1326.185     1679.172      604.319        0.480        0.180       77.264       17.213        0.050      339.703       13.218      856.627
04/12/2014  04:11:00     -108.435      108.804      -24.384       64.201       58.978       38.932     4121.711     3478.421     1515.675        1.665        0.456      153.611       46.585        0.092      339.864       13.488      856.605
04/12/2014  04:12:00     -111.357       28.137       -3.056       44.815       68.012       28.168     2008.424     4625.665      793.416        1.031        0.371      114.857       29.293        0.065      339.728       13.260      856.584
04/12/2014  04:13:00     -109.803      -20.420       -9.946       67.000       49.054       32.870     4488.938     2406.340     1080.438        1.027        0.399      111.686       34.945        0.098      339.532       12.930      856.572
04/12/2014  04:14:00     -105.176      -24.962       -3.253       38.192       22.627       20.322     1458.640      511.995      412.970        0.704        0.119      108.097       22.727        0.044      339.470       12.825      856.538
04/12/2014  04:15:00     -110.582      -29.847        0.193       39.292       31.784       17.352     1543.860     1010.221      301.093        0.799        0.143      114.539       17.784        0.024      339.454       12.799      856.518
04/12/2014  04:16:00     -155.941      -92.414       -6.861       55.602       34.890       29.659     3091.622     1217.292      879.637        1.905        0.259      181.267       18.720        0.011      339.298       12.532      856.537
04/12/2014  04:17:00     -152.979     -108.603      -15.538       53.232       45.735       33.578     2833.677     2091.696     1127.465        2.074        0.303      187.609       34.424        0.034      339.087       12.179      856.571
04/12/2014  04:18:00      -99.365      -63.371       -2.431       57.467       40.626       30.146     3302.502     1650.497      908.790        0.988        0.293      117.853       22.355        0.036      339.026       12.078      856.597
04/12/2014  04:19:00     -105.329      -63.576       -5.911       39.298       30.835       20.092     1544.331      950.789      403.700        0.903        0.145      123.029       12.968        0.011      339.096       12.196      856.594
04/12/2014  04:20:00      -55.886      -95.979       10.750       56.232       38.326       33.729     3162.087     1468.845     1137.648        0.911        0.288      111.064       33.799        0.093      339.250       12.454      856.559
04/12/2014  04:21:00      -77.939     -183.979       -4.949       48.775       65.025       29.713     2378.995     4228.256      882.872        2.372        0.375      199.807       25.448        0.016      339.226       12.413      856.550
04/12/2014  04:22:00     -115.134     -185.017      -10.066       63.967       55.129       35.783     4091.732     3039.210     1280.435        2.800        0.421      217.915       32.440        0.022      339.073       12.154      856.544
04/12/2014  04:23:00     -102.000     -108.958      -12.481       66.910       67.848       36.864     4476.901     4603.326     1358.954        1.643        0.522      149.251       34.573        0.054      338.976       11.991      856.550
04/12/2014  04:24:00      -91.710      -78.643        0.233       54.628       48.508       29.409     2984.253     2352.989      864.892        1.040        0.310      120.812       25.480        0.044      338.905       11.874      856.562
04/12/2014  04:25:00      -57.916      -41.222       16.723       60.743       49.870       27.505     3689.673     2487.027      756.539        0.613        0.347       71.088       26.903        0.143      338.812       11.717      856.595
04/12/2014  04:26:00      -84.629      -11.730       -1.457       67.849       37.839       28.597     4603.524     1431.762      817.814        0.708        0.343       85.438       28.682        0.113      338.771       11.649      856.605
04/12/2014  04:27:00     -118.621       34.549      -13.192       49.303       39.949       26.090     2430.801     1595.952      680.683        1.007        0.235      123.550       24.725        0.040      338.805       11.707      856.621
04/12/2014  04:28:00      -80.305       54.290       -9.505       25.137       37.919       23.558      631.845     1437.858      555.001        0.606        0.131       96.935       14.860        0.024      338.833       11.753      856.615
04/12/2014  04:29:00      -57.451      -31.150        8.757       42.556       22.946       21.786     1811.054      526.529      474.617        0.358        0.141       65.353       20.359        0.097      338.784       11.672      856.580
04/12/2014  04:30:00      -39.250      -46.606        9.451       57.802       37.824       30.864     3341.036     1430.634      952.565        0.476        0.286       60.932       31.632        0.270      338.791       11.682      856.533
04/12/2014  04:31:00      -90.480     -107.425        1.099       49.937       64.353       28.246     2493.712     4141.251      797.838        1.358        0.372      140.452       23.270        0.027      338.893       11.853      856.516
04/12/2014  04:32:00      -54.674      -58.024       10.732       61.861       49.700       36.654     3826.836     2470.088     1343.488        0.705        0.382       79.725       28.727        0.130      338.843       11.769      856.502
04/12/2014  04:33:00      -86.562     -131.573       -6.496       45.523       40.915       29.595     2072.337     1674.045      875.891        1.473        0.231      157.494       13.488        0.007      338.749       11.611      856.488
04/12/2014  04:34:00      -84.250      -48.388        4.360       41.769       31.174       17.693     1744.633      971.804      313.025        0.624        0.151       97.157       18.877        0.038      338.725       11.571      856.499
04/12/2014  04:35:00     -121.221      -85.426        0.069       44.432       34.829       23.442     1974.223     1213.055      549.514        1.286        0.187      148.298       19.729        0.018      338.622       11.399      856.535
04/12/2014  04:36:00      -93.765      -49.405      -16.422       35.660       39.967       17.606     1271.638     1597.395      309.957        0.734        0.159      105.984       15.608        0.022      338.616       11.389      856.542
04/12/2014  04:37:00     -110.953       14.912       -9.706       24.737       26.879       20.030      611.937      722.485      401.218        0.718        0.087      111.951       13.443        0.014      338.597       11.354      856.562
04/12/2014  04:38:00      -51.267      -39.842        0.403       39.943       41.299       16.868     1595.425     1705.597      284.544        0.390        0.179       64.928       13.406        0.043      338.598       11.358      856.554
04/12/2014  04:39:00      -63.054     -143.411       -5.077       27.633       35.282       19.196      763.603     1244.845      368.496        1.347        0.119      156.661       14.129        0.008      338.670       11.481      856.518
04/12/2014  04:40:00      -20.055      -35.433        9.803       23.430       43.935       16.863      548.977     1930.256      284.374        0.226        0.138       40.715       21.675        0.283      338.652       11.449      856.489
04/12/2014  04:41:00      -15.157       -7.260       12.813       32.744       26.238       23.564     1072.164      688.424      555.275        0.138        0.116       16.806       25.584        2.318      338.632       11.415      856.471
04/12/2014  04:42:00      -20.831        2.244       36.293       22.721       25.675       20.789      516.250      659.201      432.176        0.168        0.080       20.952       14.821        0.500      338.608       11.374      856.454
04/12/2014  04:43:00       -4.056       22.963       55.537       18.013       28.103       25.086      324.458      789.791      629.291        0.269        0.087       23.319       22.008        0.891      338.574       11.319      856.472
04/12/2014  04:44:00       -9.029       30.186       74.033       18.018       33.870       23.687      324.652     1147.170      561.059        0.425        0.102       31.508       25.038        0.631      338.610       11.378      856.503
04/12/2014  04:45:00       12.635       44.234       76.071       40.743       39.282       30.196     1660.026     1543.077      911.775        0.601        0.206       46.003       27.020        0.345      338.603       11.366      856.516
04/12/2014  04:46:00      106.885       40.748        3.697       42.110       31.076       24.694     1773.222      965.710      609.786        0.822        0.167      114.388       11.911        0.011      338.570       11.311      856.526
04/12/2014  04:47:00      118.376       52.740       20.842       49.908       30.874       33.812     2490.824      953.190     1143.220        1.091        0.229      129.593       23.878        0.034      338.459       11.125      856.524
04/12/2014  04:48:00       30.163       24.138       20.856       32.814       33.981       19.677     1076.784     1154.701      387.174        0.227        0.131       38.632       14.752        0.146      338.483       11.165      856.512
04/12/2014  04:49:00        3.337      -46.163        7.015       22.098       23.667       11.655      488.304      560.109      135.836        0.169        0.059       46.283        7.364        0.025      338.647       11.439      856.513
04/12/2014  04:50:00      -10.140       -1.249        6.767        8.651       10.204       10.411       74.839      104.120      108.389        0.022        0.014       10.216        6.832        0.447      338.477       11.155      856.512
04/12/2014  04:51:00       -4.545        7.692        1.657        8.211        9.922        7.332       67.419       98.442       53.757        0.015        0.011        8.935        4.800        0.289      338.551       11.278      856.514
04/12/2014  04:52:00        4.299       56.481       14.801       16.102       24.511       13.789      259.282      600.793      190.131        0.224        0.053       56.644       15.168        0.072      338.598       11.357      856.494
04/12/2014  04:53:00      -31.522       50.072       -4.106       29.111       19.839       12.900      847.445      393.593      166.404        0.246        0.070       59.168       12.496        0.045      338.547       11.272      856.478
04/12/2014  04:54:00      -82.702       43.970      -15.923       12.551       17.251       11.120      157.518      297.603      123.663        0.480        0.029       93.664        7.693        0.007      338.618       11.392      856.482
04/12/2014  04:55:00      -84.386      -11.318       -9.505       17.086       16.205       10.469      291.945      262.608      109.602        0.400        0.033       85.142       11.386        0.018      338.503       11.200      856.487
04/12/2014  04:56:00      -43.171       11.072       -3.305       23.941       17.981        9.882      573.164      323.322       97.662        0.150        0.050       44.568        9.801        0.048      338.461       11.128      856.503
04/12/2014  04:57:00       14.347       38.172        3.604       20.165       10.131       13.338      406.619      102.632      177.901        0.118        0.034       40.779        5.870        0.021      338.603       11.366      856.494
04/12/2014  04:58:00       25.862       46.476      -17.179       19.906       14.886       11.563      396.265      221.592      133.714        0.194        0.038       53.187        7.873        0.022      338.460       11.128      856.473
04/12/2014  04:59:00      -19.365       -2.452       -9.718       10.481       19.406        8.660      109.852      376.580       75.003        0.052        0.028       19.520        6.309        0.104      338.574       11.318      856.476
04/12/2014  05:00:00       11.845       29.435       11.559       18.639       13.714       14.701      347.395      188.071      216.125        0.095        0.038       31.729       11.509        0.132      338.624       11.403      856.468
04/12/2014  05:01:00       60.579       54.467        8.013       15.914        9.426       18.562      253.245       88.842      344.566        0.369        0.034       81.465       12.542        0.024      338.583       11.332      856.452
04/12/2014  05:02:00       18.885       42.355      -10.448       17.771       16.607        9.558      315.824      275.808       91.360        0.147        0.034       46.374        6.327        0.019      338.420       11.059      856.443
04/12/2014  05:03:00      -14.991       55.692       -9.751       18.159       19.598        8.909      329.763      384.079       79.367        0.211        0.040       57.675        9.688        0.028      338.568       11.308      856.444
04/12/2014  05:04:00      -18.920       -3.445       -7.639       10.791       12.412        6.635      116.453      154.052       44.022        0.037        0.016       19.231        5.801        0.091      338.571       11.312      856.431
04/12/2014  05:05:00       -9.383       -4.206       -4.054        7.047        7.350        5.341       49.659       54.022       28.523        0.013        0.007       10.283        3.318        0.104      338.497       11.189      856.416
04/12/2014  05:06:00        5.397        6.406        3.619        9.778       10.063        7.074       95.616      101.271       50.045        0.017        0.012        8.376        3.288        0.154      338.473       11.148      856.423
04/12/2014  05:07:00       21.829       54.174        2.907       10.808       17.463        6.700      116.804      304.941       44.884        0.194        0.023       58.407        7.671        0.017      338.790       11.681      856.434
04/12/2014  05:08:00       43.098      114.801      -13.581       20.353       35.828       24.663      414.249     1283.630      608.259        0.876        0.115      122.624       22.929        0.035      338.481       11.162      856.446
04/12/2014  05:09:00       80.569       73.881       -2.900       39.244       42.081       22.899     1540.106     1770.824      524.354        0.790        0.192      109.315       17.952        0.027      338.436       11.087      856.447
04/12/2014  05:10:00       98.704       50.953       13.512       36.892       24.975       31.794     1361.031      623.771     1010.835        0.776        0.150      111.080       11.391        0.011      338.509       11.210      856.441
04/12/2014  05:11:00       50.741       22.931        7.652       35.547       20.301       18.742     1263.578      412.113      351.274        0.259        0.101       55.682       13.590        0.060      338.461       11.126      856.464
04/12/2014  05:12:00      -47.132       -5.974       -9.836       22.623       17.235       11.933      511.778      297.030      142.401        0.165        0.048       47.510       10.829        0.052      338.349       10.941      856.482
04/12/2014  05:13:00      -51.817        2.708       -5.184       21.619       14.346       11.337      467.400      205.807      128.528        0.176        0.040       51.888        9.122        0.031      338.271       10.808      856.492
04/12/2014  05:14:00       -1.037        2.143        3.750       15.734        8.441        7.777      247.559       71.249       60.486        0.020        0.019        2.381        6.695        7.904      338.270       10.809      856.481
04/12/2014  05:15:00       24.953       19.239        6.310       13.768        8.243        9.898      189.557       67.942       97.961        0.069        0.018       31.509        5.183        0.027      338.467       11.138      856.460
04/12/2014  05:16:00       21.297       53.847        1.468       18.282       19.148       12.285      334.221      366.661      150.922        0.210        0.043       57.905        8.299        0.021      338.464       11.134      856.444
04/12/2014  05:17:00       -8.641      111.931      -13.461       15.267       21.680       10.430      233.085      470.003      108.784        0.680        0.041      112.264        6.815        0.004      338.598       11.359      856.442
04/12/2014  05:18:00      -33.856      145.142      -19.163       18.763       23.676       12.841      352.059      560.545      164.904        1.183        0.054      149.038       10.065        0.005      338.751       11.615      856.446
04/12/2014  05:19:00      -29.092      115.578      -19.260       24.987       30.352       15.945      624.371      921.223      254.240        0.819        0.090      119.183       16.668        0.020      338.901       11.868      856.452
04/12/2014  05:20:00        9.246       99.480       -9.271       17.608       21.601       10.748      310.028      466.596      115.524        0.548        0.045       99.908        9.650        0.009      339.156       12.296      856.440
04/12/2014  05:21:00      -23.181       11.433       -6.006       20.692       42.401       12.175      428.147     1797.858      148.226        0.154        0.119       25.847       16.354        0.400      338.918       11.896      856.454
04/12/2014  05:22:00      -44.176      -23.970       -4.613       13.306        8.054        7.135      177.053       64.865       50.910        0.142        0.015       50.260        5.096        0.010      338.528       11.238      856.459
04/12/2014  05:23:00        9.676      -15.039        3.073       13.139        9.169        8.544      172.643       84.077       72.998        0.033        0.016       17.883        5.023        0.079      338.604       11.367      856.460
04/12/2014  05:24:00       23.472       19.356        9.413       20.649       19.719       18.577      426.369      388.831      345.119        0.109        0.058       30.424        7.466        0.060      338.532       11.247      856.475
04/12/2014  05:25:00       45.876       16.262        3.769       11.225       14.080       11.690      125.999      198.245      136.655        0.142        0.023       48.673       10.615        0.048      338.749       11.613      856.491
04/12/2014  05:26:00       28.652       23.084        2.113       22.167       15.013       10.496      491.370      225.391      110.158        0.109        0.041       36.794        7.602        0.043      338.788       11.678      856.496
04/12/2014  05:27:00      -45.422        6.246       -5.087       25.984       18.469       12.374      675.186      341.121      153.115        0.165        0.058       45.849       10.842        0.056      338.515       11.218      856.514
04/12/2014  05:28:00     -108.914        2.015       -7.069       23.904       19.486       16.399      571.397      379.702      268.934        0.657        0.061      108.933       13.006        0.014      338.228       10.736      856.527
04/12/2014  05:29:00      -16.052      -22.467       -2.206       29.214       15.037       11.873      853.461      226.115      140.962        0.099        0.061       27.612       14.503        0.276      338.242       10.760      856.533
04/12/2014  05:30:00       -9.236       -8.930        3.863       11.803       14.681       10.540      139.314      215.524      111.100        0.032        0.023       12.847        5.962        0.215      338.277       10.819      856.532
04/12/2014  05:31:00      -25.138      -18.733       -1.061       11.900       10.799        8.913      141.618      116.623       79.447        0.066        0.017       31.350        4.883        0.024      338.400       11.026      856.539
04/12/2014  05:32:00      -30.861      -13.850       -0.587       12.746       10.598        7.237      162.458      112.309       52.380        0.074        0.016       33.826        6.233        0.034      338.386       11.002      856.539
04/12/2014  05:33:00      -33.501       -4.167       -6.287       11.493        7.978        8.007      132.098       63.642       64.119        0.072        0.013       33.759        1.461        0.002      338.338       10.923      856.542
04/12/2014  05:34:00      -16.144      -11.427       -4.000       19.833        7.948        8.356      393.352       63.171       69.819        0.047        0.026       19.778        5.785        0.086      338.332       10.913      856.555
04/12/2014  05:35:00      -66.164      -14.318       -9.236       32.726       16.524        9.327     1071.005      273.028       86.996        0.305        0.072       67.695       12.441        0.034      338.270       10.808      856.565
04/12/2014  05:36:00      -66.337      -35.037       -5.535       30.540       19.965       12.906      932.721      398.614      166.567        0.358        0.075       75.021        7.222        0.009      338.208       10.703      856.579
04/12/2014  05:37:00      -76.640      -19.857       -9.733       19.305       22.618       11.270      372.666      511.591      127.005        0.369        0.051       79.171        5.577        0.005      338.162       10.626      856.590
04/12/2014  05:38:00        6.411      -18.259       -1.290       29.652       14.766        9.547      879.217      218.025       91.139        0.078        0.059       19.352       11.933        0.380      338.406       11.036      856.577
04/12/2014  05:39:00       34.738        4.372        5.449       20.185       14.332       12.931      407.447      205.414      167.219        0.102        0.039       35.012       11.189        0.102      338.237       10.752      856.575
04/12/2014  05:40:00        0.488       -5.119        8.497       14.681       21.770       10.960      215.544      473.923      120.116        0.045        0.040        5.142       11.295        4.825      338.341       10.928      856.585
04/12/2014  05:41:00       -8.467        4.201      -11.027       14.362       12.584        5.255      206.272      158.350       27.617        0.030        0.020        9.452        2.593        0.075      338.559       11.293      856.594
04/12/2014  05:42:00      -34.862      -15.312       -0.223       10.696        9.799        7.567      114.408       96.030       57.264        0.086        0.013       38.076        4.980        0.017      338.339       10.924      856.592
04/12/2014  05:43:00      -43.708      -17.704       -0.937        5.918        9.965        5.639       35.027       99.306       31.799        0.120        0.008       47.158        2.658        0.003      338.208       10.704      856.592
04/12/2014  05:44:00      -31.130      -25.947      -10.667        9.418       10.468        9.751       88.697      109.579       95.074        0.102        0.015       40.525        6.449        0.025      338.291       10.841      856.603
04/12/2014  05:45:00      -34.294      -29.948       -6.241       14.906        8.535        7.083      222.175       72.854       50.164        0.123        0.017       45.530        6.726        0.022      338.360       10.959      856.618
04/12/2014  05:46:00        8.239      -12.840        9.332       10.316       12.205        8.870      106.423      148.974       78.673        0.033        0.017       15.256        8.959        0.345      338.350       10.942      856.629
04/12/2014  05:47:00      -26.855      -26.930        8.452       18.952       17.395       15.128      359.188      302.574      228.851        0.120        0.045       38.032       11.207        0.087      338.337       10.919      856.620
04/12/2014  05:48:00      -70.073      -43.728        2.495       29.829       23.738       17.942      889.766      563.474      321.931        0.430        0.089       82.597       11.089        0.018      337.987       10.332      856.624
04/12/2014  05:49:00      -60.031      -66.613       -4.474       31.229       18.308       13.979      975.248      335.165      195.410        0.478        0.075       89.671       14.303        0.025      338.201       10.691      856.625
04/12/2014  05:50:00      -46.728      -94.348      -11.187       18.292       15.525       12.673      334.597      241.023      160.612        0.597        0.037      105.286        7.974        0.006      338.566       11.304      856.606
04/12/2014  05:51:00      -36.248      -37.942        1.106       37.879       33.214       21.945     1434.839     1103.137      481.584        0.289        0.151       52.474       20.750        0.156      338.519       11.225      856.596
04/12/2014  05:52:00      -25.159      -27.157        1.620       34.851       20.330       17.127     1214.577      413.298      293.320        0.165        0.096       37.020       12.012        0.105      338.397       11.021      856.603
04/12/2014  05:53:00        8.799       -7.760        0.199       30.432       14.351       17.261      926.086      205.937      297.937        0.078        0.071       11.732        6.331        0.291      338.236       10.750      856.605
04/12/2014  05:54:00        5.585       -6.652       -1.317       17.515       11.897        5.073      306.792      141.543       25.731        0.028        0.024        8.686        4.251        0.240      338.183       10.663      856.602
04/12/2014  05:55:00      -22.675       -6.834        1.039       12.283       15.377        9.187      150.863      236.439       84.398        0.052        0.024       23.683       10.605        0.201      338.280       10.824      856.591
04/12/2014  05:56:00      -37.132        6.798        3.078       14.582       10.817        9.785      212.624      116.998       95.746        0.093        0.021       37.749        7.209        0.036      338.304       10.864      856.604
04/12/2014  05:57:00      -67.688      -34.144        3.852       48.551       32.191       16.583     2357.188     1036.290      274.984        0.471        0.183       75.812       13.826        0.033      338.231       10.743      856.633
04/12/2014  05:58:00      -70.883      -56.513       -0.948       37.741       23.007       22.306     1424.350      529.342      497.563        0.533        0.123       90.654        8.983        0.010      338.202       10.693      856.655
04/12/2014  05:59:00      -21.487      -55.464        9.925       36.330       30.242       22.611     1319.891      914.606      511.250        0.319        0.137       59.480       20.809        0.122      338.190       10.672      856.658
04/12/2014  06:00:00      -50.223      -46.226        7.256       42.439       28.334       18.666     1801.074      802.814      348.434        0.383        0.148       68.258       17.425        0.065      338.280       10.825      856.658
04/12/2014  06:01:00      -45.243      -42.963        7.572       60.004       32.869       22.648     3600.517     1080.391      512.916        0.457        0.260       62.392       17.236        0.076      338.263       10.796      856.669
04/12/2014  06:02:00      -71.161      -56.321        3.982       65.225       39.139       24.929     4254.350     1531.868      621.448        0.733        0.320       90.752       27.107        0.089      338.197       10.686      856.682
04/12/2014  06:03:00      -97.294      -59.697       -1.005       43.694       32.660       21.336     1909.126     1066.703      455.210        0.823        0.172      114.148       12.269        0.012      338.157       10.617      856.706
04/12/2014  06:04:00      -55.818      -38.459        3.828       43.196       36.551       21.864     1865.910     1335.955      478.016        0.414        0.184       67.784       23.060        0.116      338.133       10.578      856.720
04/12/2014  06:05:00      -91.058      -61.313       -0.138       57.775       32.135       23.459     3337.993     1032.682      550.319        0.848        0.246      109.776       25.044        0.052      338.193       10.678      856.733
04/12/2014  06:06:00      -72.374      -68.087       -1.420       49.789       38.325       22.865     2478.986     1468.832      522.787        0.717        0.224       99.367       18.981        0.036      338.161       10.624      856.740
04/12/2014  06:07:00     -101.915     -106.446        2.169       48.859       52.247       26.713     2387.238     2729.775      713.582        1.378        0.292      147.369       28.421        0.037      338.124       10.562      856.741
04/12/2014  06:08:00      -84.976     -106.205       -8.662       57.134       47.716       23.914     3264.284     2276.777      571.871        1.234        0.306      136.016       20.075        0.022      338.061       10.457      856.736
04/12/2014  06:09:00     -120.570     -126.372      -13.535       39.108       37.981       25.377     1529.421     1442.524      644.003        1.715        0.181      174.662       24.187        0.019      338.075       10.481      856.740
04/12/2014  06:10:00     -150.077      -88.625      -10.732       44.537       51.225       23.600     1983.572     2623.990      556.977        1.783        0.258      174.292       24.329        0.019      338.084       10.494      856.760
04/12/2014  06:11:00     -130.941      -99.203      -14.073       40.770       53.272       24.240     1662.194     2837.919      587.555        1.614        0.254      164.277       17.106        0.011      338.061       10.458      856.777
04/12/2014  06:12:00      -56.693      -58.506        1.650       39.490       29.650       18.728     1559.462      879.099      350.720        0.471        0.139       81.469       16.602        0.042      338.034       10.411      856.767
04/12/2014  06:13:00      -12.604      -89.638        4.086       49.591       41.211       29.189     2459.307     1698.386      852.017        0.661        0.250       90.520       26.505        0.086      338.128       10.569      856.757
04/12/2014  06:14:00      -18.183      -69.423        3.896       39.507       39.804       21.849     1560.770     1584.322      477.394        0.439        0.181       71.765       18.272        0.065      338.117       10.550      856.757
04/12/2014  06:15:00      -38.893      -67.383        6.384       51.691       39.937       22.606     2672.008     1594.987      511.039        0.543        0.239       77.802       22.718        0.085      338.032       10.409      856.748
04/12/2014  06:16:00     -108.538     -105.156      -10.391       53.028       39.212       26.666     2811.929     1537.606      711.087        1.400        0.253      151.124       26.557        0.031      337.923       10.226      856.748
04/12/2014  06:17:00     -107.695      -69.309       -9.898       36.600       41.298       20.352     1339.541     1705.553      414.197        0.998        0.173      128.070       13.213        0.011      337.872       10.140      856.760
04/12/2014  06:18:00     -129.025      -94.947       -4.686       54.857       51.392       30.076     3009.298     2641.140      904.586        1.612        0.328      160.195       35.840        0.050      337.872       10.141      856.764
04/12/2014  06:19:00     -128.680     -105.452        1.047       60.985       50.371       34.302     3719.158     2537.254     1176.652        1.755        0.372      166.369       34.605        0.043      337.888       10.165      856.764
04/12/2014  06:20:00      -88.220     -101.926       -2.768       31.900       31.915       22.245     1017.585     1018.585      494.827        1.035        0.127      134.803       20.640        0.023      337.893       10.174      856.761
04/12/2014  06:21:00      -75.095     -118.934       -2.031       34.953       65.218       23.835     1221.697     4253.418      568.084        1.291        0.302      140.658       23.584        0.028      337.940       10.253      856.751
04/12/2014  06:22:00     -116.700      -97.576       -7.762       46.550       50.940       26.256     2166.857     2594.877      689.375        1.432        0.273      152.118       20.644        0.018      337.913       10.208      856.744
04/12/2014  06:23:00     -122.628      -90.245       -9.902       39.004       41.840       21.271     1521.304     1750.581      452.444        1.350        0.186      152.256       15.859        0.011      337.885       10.161      856.761
04/12/2014  06:24:00     -117.912      -42.268        0.072       50.269       35.188       23.017     2527.022     1238.187      529.801        0.999        0.215      125.259       18.059        0.021      337.807       10.030      856.781
04/12/2014  06:25:00     -136.654      -67.475      -16.947       33.127       27.502       21.755     1097.388      756.349      473.286        1.292        0.116      152.405       21.326        0.020      337.777        9.980      856.801
04/12/2014  06:26:00     -123.525      -38.693      -10.743       27.919       25.505       19.581      779.493      650.485      383.403        0.934        0.091      129.443       15.316        0.014      337.801       10.020      856.818
04/12/2014  06:27:00     -114.399      -44.456      -18.686       37.539       33.382       15.126     1409.167     1114.371      228.783        0.908        0.138      122.733       10.820        0.008      337.833       10.073      856.833
04/12/2014  06:28:00      -94.160      -30.839       -5.344       43.831       23.816       15.403     1921.137      567.192      237.252        0.629        0.136       99.081       16.994        0.029      337.851       10.105      856.846
04/12/2014  06:29:00     -102.550      -18.497       -3.926       28.717       25.334       15.656      824.679      641.836      245.110        0.629        0.086      104.205       12.987        0.016      337.795       10.010      856.862
04/12/2014  06:30:00      -98.018      -15.223       -4.728       42.191       24.878       22.571     1780.071      618.901      509.461        0.638        0.145       99.193       21.628        0.048      337.660        9.784      856.894
04/12/2014  06:31:00     -131.789      -26.708       -8.176       53.476       38.830       24.629     2859.714     1507.757      606.575        1.156        0.249      134.468       29.304        0.047      337.515        9.541      856.896
04/12/2014  06:32:00     -121.816      -25.548       -0.956       37.511       35.737       22.668     1407.048     1277.161      513.843        0.934        0.160      124.466       17.146        0.019      337.473        9.470      856.881
04/12/2014  06:33:00      -72.370      -47.009        2.622       39.096       26.999       22.872     1528.497      728.935      523.112        0.512        0.139       86.297       19.424        0.051      337.634        9.740      856.857
04/12/2014  06:34:00      -85.134      -34.705        3.110       34.846       30.329       19.604     1214.212      919.866      384.324        0.549        0.126       91.936       19.591        0.045      337.632        9.737      856.848
04/12/2014  06:35:00     -101.642      -28.462       -2.077       26.589       28.518       14.485      706.955      813.300      209.824        0.644        0.087      105.551        8.615        0.007      337.643        9.757      856.873
04/12/2014  06:36:00      -88.248      -13.068       -6.616       46.141       18.370       15.373     2128.947      337.456      236.315        0.535        0.135       89.211       16.643        0.035      337.630        9.734      856.906
04/12/2014  06:37:00     -137.589      -13.427       -8.773       29.035       18.257       14.135      843.012      333.319      199.797        1.028        0.069      138.243       10.915        0.006      337.647        9.764      856.923
04/12/2014  06:38:00     -107.146      -31.716       -4.528       32.810       28.473       17.371     1076.504      810.693      301.764        0.735        0.109      111.741       16.265        0.021      337.652        9.772      856.932
04/12/2014  06:39:00      -91.252       12.950       -8.903       29.220       27.091       19.647      853.816      733.911      385.986        0.527        0.099       92.166       17.372        0.036      337.627        9.729      856.948
04/12/2014  06:40:00      -86.588        3.899       -3.028       28.258       23.968       16.941      798.494      574.487      287.010        0.459        0.083       86.676       10.267        0.014      337.676        9.810      856.945
04/12/2014  06:41:00      -61.879      -29.381        3.094       29.857       16.450       14.706      891.458      270.588      216.254        0.304        0.069       68.500       15.441        0.051      337.672        9.804      856.925
04/12/2014  06:42:00     -108.568      -45.916        4.399       46.300       29.941       20.950     2143.728      896.441      438.922        0.870        0.174      117.878       23.485        0.040      337.785        9.994      856.937
04/12/2014  06:43:00     -130.451      -20.687       -2.839       50.797       43.433       19.776     2580.288     1886.422      391.087        1.115        0.243      132.081       24.786        0.035      337.721        9.888      856.988
04/12/2014  06:44:00     -133.288      -33.183       -6.477       49.236       49.780       27.603     2424.193     2478.087      761.918        1.229        0.283      137.357       26.160        0.036      337.408        9.361      857.002
04/12/2014  06:45:00      -62.383      -48.914        4.725       39.886       38.903       23.975     1590.875     1513.416      574.816        0.499        0.184       79.273       19.863        0.063      337.404        9.356      856.993
04/12/2014  06:46:00      -75.326      -15.153       -4.070       16.802       17.734       12.901      282.321      314.486      166.442        0.334        0.038       76.835       10.599        0.019      337.538        9.577      856.983
04/12/2014  06:47:00     -134.472        2.730      -13.874       36.324       27.556       16.981     1319.462      759.329      288.362        1.032        0.118      134.500       12.875        0.009      337.444        9.421      856.979
04/12/2014  06:48:00     -123.750      -41.215       -0.994       60.715       34.710       24.059     3686.346     1204.781      578.851        1.124        0.273      130.433       29.100        0.050      337.454        9.439      856.974
04/12/2014  06:49:00      -83.220      -49.450        5.086       38.271       36.521       22.525     1464.705     1333.782      507.367        0.635        0.165       96.803       19.768        0.042      337.758        9.947      856.972
04/12/2014  06:50:00     -101.688       -6.324       -1.044       43.089       27.326       17.140     1856.645      746.731      293.766        0.664        0.145      101.885       18.122        0.032      337.669        9.800      856.987
04/12/2014  06:51:00     -123.336        1.688      -10.158       41.856       27.632       25.091     1751.954      763.554      629.537        0.923        0.157      123.348       25.606        0.043      337.499        9.513      857.006
04/12/2014  06:52:00     -119.300       -6.232      -14.365       39.869       28.408       18.983     1589.523      807.015      360.338        0.862        0.138      119.463       16.442        0.019      337.420        9.381      857.007
04/12/2014  06:53:00     -100.077      -19.230       -4.598       31.594       27.819       15.973      998.167      773.891      255.136        0.622        0.101      101.908       13.444        0.017      337.475        9.473      856.992
04/12/2014  06:54:00      -51.343      -41.041       -1.251       24.386       13.281        9.117      594.671      176.374       83.127        0.259        0.043       65.730       12.023        0.033      337.546        9.593      856.979
04/12/2014  06:55:00      -54.284      -32.413       -2.635       15.185        9.172        9.754      230.578       84.122       95.134        0.221        0.020       63.225        7.522        0.014      337.676        9.811      856.971
04/12/2014  06:56:00     -100.227      -50.256       -5.236       23.494       25.067       11.364      551.975      628.331      129.146        0.695        0.065      112.121        8.590        0.006      337.783        9.990      856.980
04/12/2014  06:57:00     -112.480      -33.703       -3.363       34.459       28.256       17.261     1187.426      798.383      297.957        0.804        0.114      117.421       15.862        0.018      337.661        9.786      857.008
04/12/2014  06:58:00      -98.662      -17.151       -0.206       35.765       18.103       17.932     1279.162      327.734      321.551        0.598        0.096      100.142       19.934        0.040      337.537        9.577      857.024
04/12/2014  06:59:00     -113.716      -20.636       -7.557       13.730       19.466       11.347      188.515      378.935      128.751        0.706        0.035      115.573        7.845        0.005      337.475        9.472      857.033
04/12/2014  07:00:00      -91.186      -51.145       -1.691       37.816       29.257       18.585     1430.068      855.988      345.391        0.678        0.132      104.550       14.605        0.020      337.560        9.618      857.033
04/12/2014  07:01:00      -84.758      -30.839       -5.266       35.172       25.619       14.814     1237.041      656.309      219.460        0.514        0.106       90.194       13.724        0.023      337.706        9.862      857.039
04/12/2014  07:02:00      -73.549       -6.089        3.141       31.603       20.748       15.978      998.745      430.493      255.303        0.357        0.084       73.800       16.602        0.051      337.573        9.637      857.032
04/12/2014  07:03:00      -92.464      -35.077       -4.333       28.918       21.573       12.323      836.240      465.385      151.863        0.563        0.073       98.894       13.863        0.020      337.713        9.873      857.029
04/12/2014  07:04:00      -96.477      -36.694        0.006       25.007       26.593       13.504      625.368      707.194      182.362        0.608        0.076      103.219       10.473        0.010      337.684        9.825      857.029
04/12/2014  07:05:00      -76.516      -38.709       -4.886       39.308       23.851       14.511     1545.130      568.883      210.565        0.485        0.116       85.750       13.762        0.026      337.671        9.802      857.028
04/12/2014  07:06:00      -72.572      -33.939        1.786       25.605       30.771       18.015      655.625      946.845      324.523        0.417        0.096       80.116       15.548        0.038      337.629        9.732      857.025
04/12/2014  07:07:00      -27.054      -22.421        0.591       28.524       19.516       16.584      813.622      380.867      275.019        0.135        0.073       35.138       16.283        0.215      337.657        9.778      857.012
04/12/2014  07:08:00      -61.026      -23.788       -5.635       30.507       23.760       15.962      930.678      564.546      254.779        0.304        0.088       65.499       16.377        0.063      337.660        9.785      857.009
04/12/2014  07:09:00     -133.852      -20.471      -12.615       33.627       18.388       17.173     1130.802      338.101      294.920        1.013        0.088      135.408       16.629        0.015      337.675        9.809      857.017
04/12/2014  07:10:00     -120.973      -64.520       -4.081       25.435       20.110       17.938      646.920      404.422      321.772        1.009        0.069      137.103       14.512        0.011      337.661        9.788      857.025
04/12/2014  07:11:00     -102.132      -60.809      -10.798       23.641       12.548       11.488      558.885      157.460      131.971        0.755        0.042      118.864       11.030        0.009      337.671        9.802      857.030
04/12/2014  07:12:00      -85.430      -57.638       -7.726       14.950       16.559        9.078      223.513      274.197       82.418        0.563        0.029      103.056        7.293        0.005      337.692        9.837      857.031
04/12/2014  07:13:00      -91.062      -17.137       -7.765       17.037       17.420       14.485      290.276      303.446      209.805        0.472        0.040       92.661       10.770        0.014      337.676        9.813      857.034
04/12/2014  07:14:00      -85.893      -44.887       -1.478       27.346       22.256       12.671      747.802      495.308      160.546        0.540        0.070       96.915       12.335        0.016      337.731        9.902      857.043
04/12/2014  07:15:00      -52.729      -31.288       -0.634       28.403       21.747       12.161      806.703      472.930      147.879        0.259        0.071       61.313       15.482        0.064      337.857       10.115      857.041
04/12/2014  07:16:00      -40.036      -11.375        2.923       12.318       15.186       12.667      151.725      230.625      160.457        0.114        0.027       41.621        7.380        0.031      337.774        9.974      857.046
04/12/2014  07:17:00      -61.731      -17.150       -5.011       12.669       12.075       10.028      160.491      145.814      100.557        0.227        0.020       64.070        7.777        0.015      337.719        9.882      857.042
04/12/2014  07:18:00      -50.402      -21.580       -4.063       12.013        9.208        7.429      144.315       84.784       55.184        0.165        0.014       54.827        5.299        0.009      337.759        9.949      857.029
04/12/2014  07:19:00      -46.499      -26.015        1.709       26.013       16.027       12.831      676.684      256.872      164.635        0.197        0.055       53.282       10.087        0.036      337.828       10.066      857.032
04/12/2014  07:20:00      -77.301      -53.189       -0.802       29.921       20.389       15.814      895.294      415.715      250.073        0.518        0.078       93.832       15.447        0.027      337.904       10.193      857.041
04/12/2014  07:21:00      -56.285      -55.348       -1.177       39.196       19.037       14.374     1536.340      362.420      206.601        0.417        0.105       78.939       15.249        0.037      337.955       10.278      857.054
04/12/2014  07:22:00      -11.122      -61.475        5.283       15.783       14.482       11.285      249.111      209.742      127.358        0.226        0.029       62.473        5.054        0.007      338.071       10.474      857.052
04/12/2014  07:23:00      -22.476      -60.939        6.676       19.244       26.740       20.324      370.319      715.048      413.068        0.288        0.075       64.952       14.535        0.050      338.268       10.803      857.039
04/12/2014  07:24:00      -27.777      -31.204        2.497       25.476       22.797       18.277      649.011      519.712      334.064        0.163        0.075       41.776       13.627        0.106      338.263       10.796      857.044
04/12/2014  07:25:00      -17.866      -48.458        6.182       22.149       30.147       16.429      490.565      908.872      269.918        0.219        0.083       51.647       18.130        0.123      338.258       10.788      857.036
04/12/2014  07:26:00      -29.708      -52.978        0.135       24.829       21.930       22.597      616.476      480.943      510.631        0.265        0.080       60.739       19.737        0.106      338.137       10.584      857.043
04/12/2014  07:27:00      -17.527      -48.495       11.072       35.733       26.204       25.395     1276.820      686.663      644.904        0.269        0.130       51.565       26.465        0.263      338.227       10.735      857.054
04/12/2014  07:28:00      -51.951      -34.153       -3.936       35.594       20.799       19.446     1266.900      432.587      378.147        0.298        0.104       62.172       14.641        0.055      338.165       10.631      857.044
04/12/2014  07:29:00      -46.944      -31.867        4.129       39.773       40.138       18.400     1581.873     1611.093      338.542        0.338        0.177       56.738       17.362        0.094      338.153       10.612      857.055
04/12/2014  07:30:00     -103.746      -64.899       -7.383       44.585       26.585       27.316     1987.856      706.784      746.143        0.923        0.172      122.373       21.840        0.032      338.042       10.425      857.065
04/12/2014  07:31:00      -67.117      -46.742       -2.395       21.880       20.357        9.635      478.742      414.423       92.836        0.384        0.049       81.790        8.417        0.011      338.089       10.503      857.066
04/12/2014  07:32:00      -72.586      -45.313       -4.826       24.142       16.619       15.416      582.850      276.201      237.662        0.422        0.055       85.568       11.522        0.018      338.139       10.586      857.065
04/12/2014  07:33:00      -43.886      -29.548        1.843       21.706       12.237       12.610      471.130      149.735      159.016        0.179        0.039       52.906       10.093        0.036      338.203       10.694      857.068
04/12/2014  07:34:00      -27.649       -2.581        2.786       18.147       16.266       16.122      329.310      264.594      259.914        0.082        0.043       27.769       12.228        0.194      338.395       11.018      857.065
04/12/2014  07:35:00        7.108       -1.638        5.724       16.587       13.983       19.026      275.129      195.511      361.973        0.046        0.042        7.295       11.373        2.431      338.617       11.391      857.059
04/12/2014  07:36:00      -39.173       -3.506        8.463       33.628       25.240       20.650     1130.826      637.067      426.424        0.191        0.110       39.330       23.967        0.371      338.396       11.020      857.050
04/12/2014  07:37:00      -59.912       -3.027       -3.319       22.021       23.143       13.871      484.922      535.585      192.405        0.241        0.061       59.988       10.372        0.030      338.301       10.860      857.052
04/12/2014  07:38:00      -56.836      -38.004       13.311       39.438       48.829       21.528     1555.378     2384.266      463.446        0.463        0.220       68.372       12.040        0.031      338.382       10.997      857.037
04/12/2014  07:39:00      -57.149      -66.308       -5.734       34.326       40.438       17.321     1178.296     1635.202      300.027        0.540        0.156       87.537       16.828        0.037      338.296       10.850      857.046
04/12/2014  07:40:00     -121.523     -105.189       -6.282       41.767       37.243       23.770     1744.508     1387.073      564.997        1.478        0.185      160.724       20.264        0.016      338.258       10.786      857.047
04/12/2014  07:41:00     -131.604      -46.612       -0.879       54.954       38.490       26.553     3019.941     1481.507      705.083        1.235        0.260      139.615       20.131        0.021      338.220       10.722      857.048
04/12/2014  07:42:00      -74.356      -38.285       10.127       54.844       32.451       24.625     3007.830     1053.036      606.389        0.588        0.233       83.633       32.707        0.153      338.468       11.140      857.063
04/12/2014  07:43:00      -79.544      -82.422        2.942       49.167       35.322       26.321     2417.383     1247.645      692.776        0.874        0.218      114.546       25.033        0.048      338.345       10.933      857.069
04/12/2014  07:44:00     -103.318      -73.316       -8.596       41.212       38.393       24.349     1698.423     1474.035      592.890        0.994        0.188      126.688       20.328        0.026      338.331       10.910      857.088
04/12/2014  07:45:00      -63.101      -29.776        2.378       39.017       52.076       27.717     1522.316     2711.948      768.241        0.494        0.250       69.773       26.188        0.141      338.539       11.258      857.105
04/12/2014  07:46:00      -61.483      -33.446       -3.357       28.838       33.480       25.272      831.657     1120.940      638.665        0.375        0.130       69.991       19.113        0.075      338.538       11.258      857.127
04/12/2014  07:47:00      -60.054      -39.936        1.340       31.927       31.132       13.954     1019.307      969.209      194.718        0.369        0.109       72.121       13.038        0.033      338.479       11.160      857.135
04/12/2014  07:48:00      -26.657     -101.724       -0.811       28.809       29.826       15.295      829.934      889.562      233.949        0.651        0.098      105.158       12.556        0.014      338.597       11.356      857.138
04/12/2014  07:49:00      -26.210       -4.720       14.976       21.206       31.066       20.558      449.714      965.085      422.639        0.139        0.092       26.632       22.499        0.714      338.801       11.701      857.139
04/12/2014  07:50:00      -61.367      -18.872        7.556       34.709       28.764       22.634     1204.681      827.356      512.301        0.336        0.127       64.203       16.823        0.069      338.571       11.313      857.148
04/12/2014  07:51:00      -39.514      -39.443        5.304       26.842       33.644       18.046      720.516     1131.926      325.655        0.266        0.109       55.831       13.204        0.056      338.564       11.300      857.154
04/12/2014  07:52:00      -81.711      -76.672       -7.154       28.460       39.809       14.807      809.959     1584.723      219.260        0.761        0.131      112.050       11.664        0.011      338.577       11.324      857.160
04/12/2014  07:53:00      -65.860     -109.326       -3.468       26.164       28.348       19.315      684.534      803.595      373.080        0.908        0.093      127.631       18.497        0.021      338.618       11.391      857.177
04/12/2014  07:54:00      -63.597     -110.019       -5.176       25.262       21.102       17.479      638.187      445.314      305.501        0.878        0.069      127.077       14.175        0.012      338.626       11.404      857.181
04/12/2014  07:55:00      -17.743      -67.545       -0.653       13.080       29.381       12.039      171.093      863.221      144.929        0.303        0.059       69.836        4.455        0.004      338.660       11.461      857.184
04/12/2014  07:56:00      -22.564      -50.349       -0.954       15.161       22.284       11.724      229.854      496.583      137.462        0.195        0.043       55.174        7.252        0.017      338.723       11.570      857.181
04/12/2014  07:57:00      -12.556      -18.804        0.393       14.450       24.141       16.272      208.796      582.780      264.769        0.078        0.053       22.611       12.880        0.324      338.927       11.911      857.183
04/12/2014  07:58:00      -37.259        1.665        0.701       13.164       19.777        8.658      173.296      391.125       74.956        0.102        0.032       37.296        5.654        0.023      338.825       11.739      857.179
04/12/2014  07:59:00      -23.194      -23.360       -5.073       15.382       21.542       14.872      236.605      464.043      221.168        0.102        0.046       32.919        8.738        0.070      338.980       12.000      857.176
04/12/2014  08:00:00      -46.957      -35.572       -2.998       23.628       14.389       14.447      558.259      207.037      208.714        0.223        0.049       58.909       15.456        0.069      338.926       11.909      857.175
04/12/2014  08:01:00      -43.190      -16.853       -0.833       20.408       17.384       13.799      416.505      302.201      190.406        0.153        0.045       46.361       12.654        0.074      338.938       11.928      857.165
04/12/2014  08:02:00      -49.560      -40.348       -5.296       12.400       44.204       10.269      153.767     1954.016      105.450        0.316        0.111       63.907       11.129        0.030      338.912       11.886      857.167
04/12/2014  08:03:00      -43.335      -16.021        2.376       15.497       28.559       13.360      240.144      815.595      178.502        0.169        0.062       46.202        8.265        0.032      339.050       12.119      857.171
04/12/2014  08:04:00      -61.552       -4.871       -2.163       15.275       20.299        7.921      233.329      412.067       62.746        0.226        0.035       61.744        4.966        0.006      338.991       12.019      857.185
04/12/2014  08:05:00      -20.199      -17.648        2.675       17.574       12.747       13.044      308.828      162.478      170.156        0.068        0.032       26.823        9.842        0.135      339.251       12.456      857.198
04/12/2014  08:06:00      -11.907       -0.391       18.328       14.905       13.211        7.057      222.166      174.535       49.808        0.046        0.022       11.914        5.084        0.182      339.600       13.045      857.206
04/12/2014  08:07:00      -23.047      -20.705        9.134       11.802       18.908       16.149      139.296      357.527      260.778        0.090        0.038       30.982       12.562        0.164      339.379       12.673      857.221
04/12/2014  08:08:00      -16.709      -29.679       -4.343       13.708       15.617       12.331      187.911      243.894      152.049        0.088        0.029       34.059        7.459        0.048      339.159       12.300      857.219
04/12/2014  08:09:00       -8.004        3.554        7.923        7.581        8.384       11.161       57.469       70.300      124.561        0.020        0.013        8.758        5.677        0.420      339.753       13.301      857.220
04/12/2014  08:10:00      -11.967       14.032       31.868       10.995       12.931       11.529      120.889      167.219      132.920        0.089        0.021       18.442        7.963        0.186      340.065       13.829      857.206
04/12/2014  08:11:00      -32.333       11.347       -8.123       18.000       13.273       12.043      323.998      176.166      145.023        0.094        0.032       34.266        9.616        0.079      339.351       12.624      857.191
04/12/2014  08:12:00      -17.171      -29.939        9.025       13.219       26.772       15.747      174.737      716.730      247.963        0.121        0.057       34.514        8.723        0.064      339.484       12.848      857.175
04/12/2014  08:13:00       -7.658      -60.205        5.529       12.034       23.252       16.409      144.806      540.678      269.268        0.233        0.048       60.690       11.110        0.034      339.335       12.598      857.171
04/12/2014  08:14:00      -32.817        7.580        6.932       23.998       22.878       15.820      575.894      523.411      250.285        0.127        0.067       33.681       15.001        0.198      339.590       13.029      857.175
04/12/2014  08:15:00      -60.975       26.581       -6.679       16.677       16.153       11.882      278.133      260.918      141.174        0.257        0.034       66.517        6.961        0.011      339.269       12.487      857.178
04/12/2014  08:16:00      -92.269        1.894      -12.935       36.997       29.166       14.112     1368.796      850.654      199.156        0.555        0.121       92.289       17.958        0.038      339.278       12.501      857.190
04/12/2014  08:17:00      -94.387      -28.931      -13.771       39.927       27.010       23.192     1594.161      729.560      537.870        0.640        0.143       98.721       27.669        0.079      339.371       12.660      857.195
04/12/2014  08:18:00      -24.030      -55.167       -8.538       18.713       23.054       17.706      350.192      531.487      313.504        0.244        0.060       60.173       10.784        0.032      339.391       12.693      857.182
04/12/2014  08:19:00      -21.281      -53.863       -2.252       21.961       20.960       20.458      482.302      439.312      418.546        0.235        0.067       57.915       11.720        0.041      339.498       12.872      857.175
04/12/2014  08:20:00       -2.523      -57.067       18.246       34.410       26.551       15.859     1184.079      704.935      251.522        0.287        0.107       57.123       13.726        0.058      339.620       13.079      857.166
04/12/2014  08:21:00       -8.762      -45.305       17.520       20.383       24.269       15.697      415.475      588.990      246.407        0.184        0.063       46.144       14.981        0.105      339.761       13.317      857.159
04/12/2014  08:22:00       -3.685      -38.725       18.469       19.476       32.477       24.800      379.319     1054.784      615.037        0.195        0.102       38.900       23.742        0.373      340.183       14.030      857.159
04/12/2014  08:23:00      -43.726      -25.158       -4.155       13.618       18.497       13.256      185.447      342.153      175.732        0.163        0.035       50.447       10.552        0.044      339.714       13.237      857.171
04/12/2014  08:24:00      -27.020        0.065       -5.845       14.319       10.315       15.414      205.039      106.397      237.587        0.066        0.027       27.020       10.521        0.152      339.923       13.590      857.179
04/12/2014  08:25:00      -26.804        9.451       14.648       26.268       14.905       16.726      690.006      222.148      279.766        0.111        0.060       28.422       17.330        0.372      340.055       13.812      857.177
04/12/2014  08:26:00      -12.525       13.126       12.366       28.910       18.809       18.526      835.773      353.767      343.204        0.101        0.077       18.142       17.881        0.971      340.341       14.295      857.176
04/12/2014  08:27:00      -33.411       38.336        5.975       30.822       44.090       27.355      949.972     1943.886      748.321        0.313        0.182       50.853       24.883        0.239      340.228       14.105      857.185
04/12/2014  08:28:00      -27.984       17.264       15.387       33.429       18.058       20.450     1117.478      326.078      418.195        0.159        0.093       32.881       21.849        0.442      340.559       14.665      857.183
04/12/2014  08:29:00        3.994       17.719       30.873       17.983       25.549       16.462      323.385      652.757      271.006        0.126        0.062       18.163       14.004        0.594      340.521       14.598      857.184
04/12/2014  08:30:00       19.461       -5.777       24.456       23.771       24.898       24.432      565.084      619.904      596.915        0.140        0.089       20.300       15.244        0.564      340.395       14.387      857.180
04/12/2014  08:31:00       12.506      -13.403       20.451       21.960       23.806       18.589      482.226      566.727      345.542        0.107        0.070       18.331       17.699        0.932      340.224       14.098      857.182
04/12/2014  08:32:00      -22.865       16.669       17.501       18.516       15.047       14.491      342.830      226.414      209.987        0.094        0.039       28.296       10.905        0.149      340.224       14.098      857.180
04/12/2014  08:33:00       -3.183        6.513       25.144       13.293       16.818       20.368      176.695      282.860      414.869        0.078        0.044        7.249       15.385        4.504      340.966       15.352      857.180
04/12/2014  08:34:00       -3.425        8.645       37.335       12.981       19.118       12.447      168.498      365.515      154.928        0.108        0.034        9.299        6.656        0.512      341.135       15.638      857.175
04/12/2014  08:35:00       14.436        5.373       -3.260       18.736       21.432       26.091      351.021      459.316      680.753        0.087        0.075       15.403        7.301        0.225      340.394       14.385      857.174
04/12/2014  08:36:00        8.149      -30.827       13.460       20.278       27.893       21.650      411.195      778.007      468.721        0.143        0.083       31.886       17.895        0.315      340.249       14.141      857.178
04/12/2014  08:37:00       27.917      -28.162       12.275       38.270       41.946       36.999     1464.599     1759.427     1368.900        0.316        0.230       39.655       32.747        0.682      340.449       14.477      857.175
04/12/2014  08:38:00        5.899      -27.052       13.926       24.492       32.844       29.806      599.834     1078.759      888.399        0.176        0.128       27.688       19.613        0.502      340.753       14.991      857.172
04/12/2014  08:39:00       11.059      -66.401        3.314       28.529       34.280       32.066      813.910     1175.099     1028.241        0.378        0.151       67.315       19.590        0.085      340.096       13.882      857.157
04/12/2014  08:40:00       34.838      -54.731      -11.668       27.858       20.217       20.187      776.073      408.732      407.523        0.297        0.080       64.878       14.579        0.050      340.098       13.884      857.153
04/12/2014  08:41:00      -40.350      -14.139        5.002       48.932       42.412       35.021     2394.385     1798.757     1226.492        0.364        0.271       42.755       36.373        0.724      340.689       14.883      857.144
04/12/2014  08:42:00      -20.926       -7.672       15.386       31.669       32.888       24.838     1002.920     1081.629      616.932        0.172        0.135       22.288       22.669        1.034      340.666       14.844      857.129
04/12/2014  08:43:00      -32.080      -36.857        3.795       37.221       30.914       24.640     1385.417      955.669      607.126        0.267        0.147       48.863       17.650        0.130      340.498       14.560      857.118
04/12/2014  08:44:00      -52.100      -45.591       -3.362       20.087       24.748       16.517      403.478      612.470      272.812        0.305        0.064       69.232       13.704        0.039      340.255       14.151      857.115
04/12/2014  08:45:00      -69.167      -30.854       -0.782       31.868       21.046       14.287     1015.558      442.919      204.126        0.370        0.083       75.737       14.626        0.037      340.219       14.090      857.108
04/12/2014  08:46:00      -18.314        8.831        1.627       30.481       18.608       16.854      929.103      346.249      284.048        0.099        0.078       20.332       16.685        0.673      340.522       14.600      857.094
04/12/2014  08:47:00       -6.677      -10.096        2.720       17.608       15.510        9.901      310.031      240.572       98.023        0.040        0.032       12.104        8.189        0.458      340.713       14.923      857.087
04/12/2014  08:48:00        0.703      -40.346      -11.279       19.502       20.280       17.124      380.328      411.259      293.242        0.142        0.054       40.353        9.397        0.054      340.267       14.169      857.093
04/12/2014  08:49:00      -38.184      -23.807        7.532       30.615       26.391       19.269      937.273      696.470      371.278        0.204        0.100       44.997       17.677        0.154      340.449       14.477      857.098
04/12/2014  08:50:00      -35.610       -8.966       18.439       24.987       20.730       18.536      624.344      429.740      343.582        0.154        0.070       36.722       19.149        0.272      340.635       14.792      857.095
04/12/2014  08:51:00      -19.355        4.306        9.977       24.152       16.161       20.905      583.305      261.177      437.032        0.089        0.064       19.828       11.876        0.359      340.525       14.607      857.091
04/12/2014  08:52:00      -35.898       20.825      -23.299       22.638       20.660       14.852      512.500      426.851      220.581        0.171        0.058       41.501       10.143        0.060      340.298       14.222      857.097
04/12/2014  08:53:00      -17.110       14.473        1.824       24.076       20.017       25.523      579.645      400.700      651.443        0.107        0.082       22.410       13.002        0.337      340.724       14.942      857.108
04/12/2014  08:54:00      -24.659      -33.944        5.878       32.435       36.661       26.629     1052.017     1343.999      709.112        0.245        0.155       41.955       22.701        0.293      340.560       14.666      857.110
04/12/2014  08:55:00      -64.554      -67.284        1.394       26.516       29.197       22.634      703.100      852.445      512.284        0.538        0.103       93.243       18.819        0.041      340.256       14.152      857.115
04/12/2014  08:56:00      -82.599     -113.810       -5.078       33.196       41.654       17.329     1101.955     1735.078      300.281        1.147        0.157      140.625       13.346        0.009      340.177       14.019      857.119
04/12/2014  08:57:00      -71.210      -57.399       -3.593       34.787       28.494       20.977     1210.104      811.888      440.031        0.542        0.123       91.463       17.355        0.036      340.237       14.118      857.123
04/12/2014  08:58:00      -73.844      -58.288       -6.693       14.731       22.585        9.745      217.000      510.076       94.972        0.486        0.041       94.077        4.495        0.002      340.240       14.121      857.117
04/12/2014  08:59:00      -61.236      -11.673       -8.251       29.137       25.396       14.530      848.961      644.965      211.125        0.283        0.085       62.338        8.436        0.018      340.332       14.279      857.115
04/12/2014  09:00:00      -44.496      -15.979      -13.204       23.277       18.059       10.824      541.821      326.139      117.150        0.170        0.049       47.278        5.705        0.015      340.376       14.354      857.113
04/12/2014  09:01:00      -30.702       -8.189       -3.579       13.385       14.612       10.093      179.161      213.500      101.867        0.076        0.025       31.775       10.741        0.114      340.502       14.566      857.106
04/12/2014  09:02:00      -24.997      -55.299        4.454       22.107       50.253       12.612      488.723     2525.388      159.075        0.344        0.159       60.686       10.938        0.032      340.653       14.824      857.114
04/12/2014  09:03:00      -52.314      -74.214      -14.085       25.422       38.990       18.120      646.256     1520.187      328.323        0.547        0.125       90.799       16.136        0.032      340.411       14.412      857.110
04/12/2014  09:04:00      -38.758      -63.703       -0.490       25.284       27.773       16.194      639.266      771.367      262.244        0.362        0.084       74.567       10.251        0.019      340.567       14.676      857.106
04/12/2014  09:05:00      -37.226      -76.115       -5.135       22.945       38.611       17.243      526.472     1490.820      297.327        0.476        0.116       84.731       19.756        0.054      340.564       14.671      857.107
04/12/2014  09:06:00      -36.925      -14.238       -1.321       19.174       13.987       15.976      367.656      195.645      255.228        0.119        0.041       39.575       11.186        0.080      340.627       14.780      857.106
04/12/2014  09:07:00      -23.164       -0.932        9.948       16.954       18.055       14.977      287.430      325.991      224.313        0.074        0.042       23.182       12.494        0.290      340.996       15.404      857.095
04/12/2014  09:08:00       18.601       -9.299       35.471       44.951       18.958       22.488     2020.599      359.402      505.699        0.229        0.144       20.796       19.500        0.879      341.221       15.784      857.089
04/12/2014  09:09:00       -5.426      -59.194        5.600       23.611       31.831       16.511      557.490     1013.240      272.621        0.270        0.092       59.442       11.567        0.038      340.752       14.989      857.074
04/12/2014  09:10:00       -6.314      -44.971       14.470       16.622       27.398       17.366      276.292      750.672      301.564        0.180        0.066       45.412       17.865        0.155      340.757       14.999      857.069
04/12/2014  09:11:00      -54.765       -9.341        2.664       37.929       14.324       20.434     1438.578      205.175      417.542        0.258        0.103       55.556       25.135        0.205      340.780       15.036      857.063
04/12/2014  09:12:00      -59.735      -14.475       -5.567       27.834       19.563       12.271      774.725      382.704      150.581        0.256        0.065       61.464       14.100        0.053      340.612       14.754      857.057
04/12/2014  09:13:00      -34.194        7.366        3.355       16.664       14.637       14.882      277.689      214.237      221.475        0.097        0.036       34.978        9.271        0.070      340.832       15.125      857.050
04/12/2014  09:14:00      -21.662       13.336      -12.793       14.483       10.749       13.784      209.756      115.539      190.002        0.066        0.026       25.439        4.677        0.034      340.775       15.028      857.046
04/12/2014  09:15:00        9.527        3.879       -6.081       17.343       21.627       12.358      300.786      467.725      152.714        0.053        0.046       10.287        8.944        0.756      340.863       15.177      857.045
04/12/2014  09:16:00       13.278        2.093        3.598       14.953       14.993       16.672      223.592      224.791      277.945        0.046        0.036       13.442       10.294        0.586      341.126       15.623      857.047
04/12/2014  09:17:00        7.042      -14.457       19.171       13.704       18.429       17.319      187.788      339.620      299.944        0.073        0.041       16.080       12.644        0.618      341.453       16.178      857.051
04/12/2014  09:18:00       22.360       -1.149        2.046       35.599       21.213       22.002     1267.264      449.982      484.087        0.135        0.110       22.390       17.601        0.618      340.976       15.368      857.059
04/12/2014  09:19:00        5.539      -26.259       18.176       28.516       27.694       23.630      813.159      766.976      558.354        0.159        0.107       26.836        8.514        0.101      341.197       15.742      857.056
04/12/2014  09:20:00       40.094       35.500       31.139       31.093       27.252       26.735      966.796      742.661      714.740        0.313        0.121       53.552       16.212        0.092      341.637       16.489      857.060
04/12/2014  09:21:00       21.826       35.871       13.938       35.746       33.668       28.866     1277.805     1133.534      833.227        0.260        0.162       41.990       17.445        0.173      341.693       16.584      857.058
04/12/2014  09:22:00       34.222       41.276        6.283       44.626       35.885       29.744     1991.452     1287.699      884.723        0.354        0.208       53.618       22.578        0.177      341.362       16.022      857.057
04/12/2014  09:23:00      -42.778       55.336       21.477       32.875       37.757       42.524     1080.751     1425.554     1808.302        0.483        0.216       69.943       22.703        0.105      341.551       16.342      857.050
04/12/2014  09:24:00      -19.321        2.113       32.973       19.984       15.906       22.665      399.373      252.997      513.696        0.132        0.058       19.437       17.711        0.830      341.842       16.837      857.041
04/12/2014  09:25:00       49.672       34.240       35.297       39.967       38.067       28.829     1597.398     1449.118      831.130        0.438        0.194       60.330       11.347        0.035      341.538       16.320      857.032
04/12/2014  09:26:00       58.228       30.711       17.900       54.736       35.682       24.244     2996.008     1273.240      587.784        0.475        0.243       65.831       19.361        0.086      341.336       15.979      857.026
04/12/2014  09:27:00       64.143       55.380       12.282       32.559       39.264       33.495     1060.105     1541.668     1121.932        0.553        0.186       84.743       24.465        0.083      341.299       15.917      857.019
04/12/2014  09:28:00       19.865       44.771       39.601       46.464       41.136       27.672     2158.933     1692.202      765.715        0.429        0.231       48.981       28.784        0.345      341.500       16.255      857.009
04/12/2014  09:29:00       15.091       13.055       43.744       35.542       57.495       28.071     1263.217     3305.629      787.966        0.383        0.268       19.954       21.234        1.132      341.631       16.479      857.006
04/12/2014  09:30:00      112.079       77.800       34.356       44.656       45.591       36.021     1994.158     2078.499     1297.523        1.258        0.269      136.435       18.066        0.018      341.093       15.566      856.998
04/12/2014  09:31:00       71.850       69.836       15.464       23.819       27.784       30.808      567.342      771.934      949.143        0.628        0.114      100.197       16.848        0.028      341.130       15.630      856.995
04/12/2014  09:32:00        8.958      -17.044        4.942       24.217       18.833       20.755      586.455      354.674      430.751        0.088        0.069       19.255       10.617        0.304      341.379       16.051      856.981
04/12/2014  09:33:00       14.790      -50.001       -2.308       26.067       37.774       25.853      679.514     1426.896      668.380        0.275        0.139       52.143       15.973        0.094      341.274       15.875      856.966
04/12/2014  09:34:00       40.610       26.659       45.045       48.000       37.846       31.962     2304.030     1432.304     1021.571        0.457        0.238       48.578       19.555        0.162      341.566       16.368      856.952
04/12/2014  09:35:00       10.762       12.601       37.353       41.895       53.645       34.564     1755.205     2877.743     1194.696        0.375        0.291       16.571       32.103        3.753      341.895       16.926      856.942
04/12/2014  09:36:00       40.232        1.676       10.512       44.656       63.741       29.442     1994.187     4062.922      866.828        0.433        0.346       40.267       15.898        0.156      341.781       16.732      856.945
04/12/2014  09:37:00       46.206      -68.072       -3.707       46.554       50.838       40.513     2167.319     2584.540     1641.301        0.659        0.320       82.273       26.788        0.106      341.730       16.645      856.935
04/12/2014  09:38:00       32.816      -47.225        4.282       36.802       68.503       36.604     1354.374     4692.625     1339.844        0.535        0.369       57.507       25.665        0.199      341.477       16.218      856.925
04/12/2014  09:39:00       35.324      -63.739       -6.165       49.759       58.851       30.381     2475.961     3463.451      922.984        0.610        0.343       72.873       29.836        0.168      341.706       16.605      856.920
04/12/2014  09:40:00       24.130      -42.044        9.719       27.559       34.441       24.020      759.505     1186.208      576.938        0.248        0.126       48.476       16.860        0.121      341.620       16.459      856.902
04/12/2014  09:41:00        5.213      -18.183        9.913       27.233       54.299       39.998      741.628     2948.348     1599.804        0.287        0.264       18.916       37.377        3.904      341.710       16.611      856.900
04/12/2014  09:42:00       23.850       37.992       52.928       32.035       39.964       32.833     1026.265     1597.150     1078.024        0.426        0.185       44.858       22.075        0.242      342.335       17.672      856.889
04/12/2014  09:43:00       62.111      104.841      105.014       84.269       51.776       51.461     7101.286     2680.737     2648.213        1.915        0.622      121.858       48.874        0.161      341.728       16.643      856.890
04/12/2014  09:44:00       88.728        4.135       54.947       96.147       68.125       53.528     9244.292     4641.075     2865.250        1.383        0.838       88.824       33.389        0.141      341.319       15.948      856.892
04/12/2014  09:45:00       22.151       33.475       30.590       32.671       47.387       23.212     1067.383     2245.490      538.803        0.320        0.193       40.140       19.076        0.226      341.359       16.017      856.888
04/12/2014  09:46:00       98.407      105.919       42.701       69.433       57.590       53.169     4820.885     3316.553     2826.920        1.684        0.548      144.578       35.070        0.059      341.627       16.470      856.870
04/12/2014  09:47:00      107.343      114.461       96.717       42.055       40.960       39.212     1768.611     1677.710     1537.615        1.948        0.249      156.920       14.247        0.008      341.393       16.073      856.875
04/12/2014  09:48:00       69.942       62.588       15.439       32.808       24.622       33.296     1076.361      606.223     1108.603        0.592        0.140       93.857       22.236        0.056      341.136       15.639      856.883
04/12/2014  09:49:00       63.172       48.056       26.337       40.207       27.039       28.458     1616.571      731.099      809.844        0.508        0.158       79.373       22.511        0.080      341.702       16.599      856.867
04/12/2014  09:50:00       32.884       14.785       25.856       47.525       53.076       39.971     2258.655     2817.093     1597.671        0.432        0.334       36.055       18.740        0.270      341.815       16.790      856.868
04/12/2014  09:51:00       70.301       65.577       54.280       75.255       44.110       42.913     5663.282     1945.655     1841.546        1.082        0.473       96.139       37.896        0.155      342.005       17.112      856.863
04/12/2014  09:52:00       71.067       88.100       70.207       78.108       39.642       50.184     6100.884     1571.524     2518.463        1.396        0.510      113.191       42.773        0.143      341.630       16.477      856.862
04/12/2014  09:53:00       43.195       36.594       46.346       70.916       43.785       34.621     5029.130     1917.104     1198.590        0.675        0.407       56.612       16.746        0.088      341.955       17.027      856.860
04/12/2014  09:54:00        6.689       35.115       62.897       51.860       62.838       36.113     2689.440     3948.645     1304.183        0.659        0.397       35.747       29.176        0.666      342.168       17.389      856.863
04/12/2014  09:55:00      104.532       25.985       15.855       41.203       71.592       41.889     1697.670     5125.472     1754.706        1.021        0.429      107.713       40.881        0.144      341.422       16.124      856.858
04/12/2014  09:56:00       45.922        3.807       53.756       48.054       74.915       54.098     2309.233     5612.319     2926.580        0.793        0.542       46.080       53.550        1.350      341.663       16.533      856.857
04/12/2014  09:57:00       45.039      -56.616       22.677       64.196       81.669       54.438     4121.064     6669.771     2963.527        0.975        0.688       72.345       55.612        0.591      341.989       17.085      856.836
04/12/2014  09:58:00       66.706      -46.769       15.290       73.576       50.213       37.963     5413.475     2521.355     1441.186        0.812        0.469       81.468       32.251        0.157      341.532       16.310      856.830
04/12/2014  09:59:00       30.669       -5.156       17.286       54.353       51.072       36.850     2954.302     2608.341     1357.940        0.409        0.346       31.099       36.198        1.355      341.995       17.096      856.807
04/12/2014  10:00:00       75.063      -36.401        1.417       61.174      122.060       54.215     3742.235    14898.572     2939.256        1.427        1.079       83.424       56.648        0.461      342.024       17.143      856.787
04/12/2014  10:01:00       60.327       51.637       69.576       96.230       74.148       63.801     9260.149     5497.876     4070.576        1.498        0.941       79.409       63.713        0.644      342.257       17.540      856.785
04/12/2014  10:02:00       51.350       80.677       81.285       62.606       63.951       40.068     3919.474     4089.751     1605.451        1.268        0.481       95.633       27.572        0.083      341.844       16.838      856.781
04/12/2014  10:03:00       88.006       79.011       75.254      106.230      119.677       63.975    11284.901    14322.593     4092.823        2.467        1.485      118.270       65.154        0.303      341.726       16.637      856.775
04/12/2014  10:04:00       16.839       53.474      107.405       45.127       95.761       51.951     2036.422     9170.167     2698.861        1.429        0.695       56.063       60.302        1.157      341.721       16.630      856.781
04/12/2014  10:05:00       18.433       -9.978       37.305       59.543       63.054       51.978     3545.321     3975.771     2701.697        0.602        0.511       20.960       37.169        3.145      342.166       17.385      856.791
04/12/2014  10:06:00       73.449      -44.475       27.360       49.369       61.496       47.970     2437.274     3781.814     2301.142        0.832        0.426       85.865       40.696        0.225      341.695       16.587      856.765
04/12/2014  10:07:00       31.072      -51.906       23.735       59.676       84.004       47.581     3561.222     7056.717     2263.914        0.855        0.644       60.495       47.123        0.607      341.926       16.978      856.755
04/12/2014  10:08:00       66.232     -122.215      -18.880       74.934      117.213       56.807     5615.135    13738.945     3227.047        2.113        1.129      139.007       52.750        0.144      342.055       17.196      856.736
04/12/2014  10:09:00      114.754     -135.088      -20.512       97.377      106.156       67.928     9482.237    11269.095     4614.259        2.860        1.268      177.249       78.235        0.195      341.901       16.934      856.723
04/12/2014  10:10:00       41.069      -44.389       42.970       60.906       72.397       68.479     3709.528     5241.388     4689.396        0.957        0.682       60.474       57.007        0.889      342.160       17.376      856.729
04/12/2014  10:11:00      174.403     -196.049      -50.112      102.146      126.151       62.884    10433.784    15914.073     3954.379        5.083        1.515      262.396       66.508        0.064      341.734       16.650      856.706
04/12/2014  10:12:00       80.597      -64.513        8.770       71.913       85.319       48.456     5171.492     7279.375     2348.029        1.276        0.740      103.237       60.091        0.339      342.107       17.285      856.727
04/12/2014  10:13:00       41.008      -18.205       47.706       51.059      101.972       50.750     2607.028    10398.306     2575.531        0.993        0.779       44.868       65.449        2.128      341.897       16.929      856.727
04/12/2014  10:14:00       76.098     -109.892       -4.608       94.825       72.145       40.877     8991.828     5204.972     1670.910        1.687        0.793      133.669       37.277        0.078      342.084       17.246      856.712
04/12/2014  10:15:00       80.563      -33.479       35.515       64.845      109.527       71.169     4204.935    11996.232     5065.040        1.507        1.063       87.242       70.977        0.662      342.424       17.824      856.715
04/12/2014  10:16:00       57.861       67.451       73.386       80.741       82.655       54.189     6519.043     6831.874     2936.397        1.478        0.814       88.868       38.751        0.190      342.085       17.247      856.724
04/12/2014  10:17:00      149.614      109.698       74.043       89.482       49.775       53.973     8007.075     2477.553     2913.112        2.665        0.670      185.520       37.461        0.041      341.840       16.829      856.716
04/12/2014  10:18:00       89.875       56.848       42.849       89.662       58.700       45.870     8039.188     3445.742     2104.014        1.336        0.679      106.344       37.874        0.127      342.181       17.411      856.712
04/12/2014  10:19:00       64.882      -59.352       10.178       80.459       83.264       54.090     6473.671     6932.857     2925.675        1.208        0.817       87.933       55.226        0.394      342.155       17.366      856.729
04/12/2014  10:20:00       30.972      -59.947       24.613       51.771      105.695       57.701     2680.268    11171.416     3329.434        1.117        0.859       67.475       63.117        0.875      342.330       17.665      856.717
04/12/2014  10:21:00       77.592      -96.696       23.305       89.667      152.310       90.443     8040.097    23198.299     8179.870        2.766        1.971      123.979       96.539        0.606      342.345       17.688      856.680
04/12/2014  10:22:00      101.472     -100.982       27.660       85.238      102.282       79.209     7265.444    10461.596     6274.051        2.263        1.200      143.157       67.664        0.223      342.401       17.782      856.677
04/12/2014  10:23:00       81.012      -70.367       14.553       87.971      103.383       79.412     7738.812    10688.060     6306.257        1.822        1.237      107.305       69.520        0.420      342.269       17.559      856.664
04/12/2014  10:24:00      178.954     -181.542      -45.988       95.377      118.190       58.595     9096.822    13968.975     3433.432        4.679        1.325      254.916       69.654        0.075      341.922       16.968      856.658
04/12/2014  10:25:00       84.609     -108.456       26.590       91.881      169.910       95.997     8442.175    28869.453     9215.390        3.307        2.326      137.555      120.941        0.773      342.092       17.258      856.667
04/12/2014  10:26:00       16.447       58.523       89.285       53.937       67.674       43.467     2909.216     4579.736     1889.389        1.052        0.469       60.790       37.157        0.374      342.275       17.571      856.671
04/12/2014  10:27:00        9.935        2.943       51.616       41.157       93.346       49.170     1693.882     8713.448     2417.692        0.780        0.641       10.362       58.768       32.165      342.039       17.169      856.657
04/12/2014  10:28:00       54.846      -42.484        5.958       67.202       62.663       42.468     4516.111     3926.642     1803.530        0.755        0.512       69.376       41.507        0.358      342.044       17.179      856.651
04/12/2014  10:29:00       18.190       27.870       68.758       37.327       67.276       49.412     1393.287     4526.092     2441.538        0.710        0.418       33.281       51.460        2.391      342.590       18.106      856.656
04/12/2014  10:30:00       18.875       65.744       74.963       40.419       41.383       35.187     1633.728     1712.519     1238.109        0.744        0.229       68.400       24.420        0.127      342.360       17.715      856.642
04/12/2014  10:31:00        9.635        1.228       53.548       31.156       59.204       31.773      970.701     3505.075     1009.509        0.422        0.274        9.713       25.398        6.837      342.664       18.233      856.624
04/12/2014  10:32:00       39.277      -24.056       21.488       46.091       67.716       38.310     2124.395     4585.503     1467.643        0.538        0.409       46.058       44.048        0.915      342.542       18.024      856.616
04/12/2014  10:33:00        2.942       22.976       46.363       34.018       34.352       26.213     1157.239     1180.030      687.132        0.285        0.151       23.163       20.953        0.818      342.946       18.713      856.606
04/12/2014  10:34:00       21.590      -68.758       14.118       54.736       70.200       47.429     2996.055     4928.068     2249.477        0.778        0.509       72.068       43.097        0.358      342.709       18.308      856.604
04/12/2014  10:35:00       13.932       12.388       48.256       37.752       44.564       31.317     1425.186     1985.975      980.744        0.353        0.220       18.643       24.488        1.725      343.093       18.961      856.599
04/12/2014  10:36:00      -15.496      -12.047       21.614       23.748       35.522       19.369      563.988     1261.784      375.161        0.153        0.110       19.628       11.528        0.345      343.019       18.837      856.595
04/12/2014  10:37:00       -9.415      -21.822       32.643       26.793       34.759       18.914      717.869     1208.203      357.730        0.196        0.114       23.766       12.614        0.282      343.130       19.027      856.590
04/12/2014  10:38:00       13.591      -68.566        7.046       63.559       59.977       49.327     4039.787     3597.267     2433.148        0.750        0.504       69.900       40.287        0.332      342.842       18.535      856.584
04/12/2014  10:39:00       14.886      -41.571       19.507       31.867       67.828       41.401     1015.495     4600.649     1714.033        0.483        0.367       44.156       43.485        0.970      342.841       18.534      856.573
04/12/2014  10:40:00       10.483        6.417       53.403       41.222       54.789       33.439     1699.274     3001.804     1118.195        0.441        0.291       12.291       27.003        4.827      343.094       18.963      856.563
04/12/2014  10:41:00       53.514      -42.551       39.744       65.389      125.804       62.894     4275.697    15826.547     3955.625        1.515        1.203       68.369       72.655        1.129      342.648       18.204      856.565
04/12/2014  10:42:00       34.355      -51.367       28.381       62.882       71.606       57.781     3954.167     5127.364     3338.689        0.852        0.621       61.797       44.653        0.522      343.002       18.807      856.548
04/12/2014  10:43:00      106.446     -108.077      -14.773       86.839      104.694       74.408     7540.960    10960.916     5536.584        2.363        1.202      151.695       80.925        0.285      342.660       18.222      856.548
04/12/2014  10:44:00       95.317     -114.231      -13.416      125.430      114.655       78.077    15732.695    13145.762     6096.063        2.864        1.749      148.775       86.655        0.339      342.506       17.964      856.527
04/12/2014  10:45:00       76.688      -74.876        2.251      102.679      101.583       78.372    10542.934    10319.123     6142.126        1.924        1.350      107.179       74.456        0.483      342.643       18.195      856.518
04/12/2014  10:46:00       36.371      -79.192        6.134       61.573       88.607       66.459     3791.174     7851.169     4416.844        1.184        0.803       87.145       48.627        0.311      342.721       18.328      856.531
04/12/2014  10:47:00       19.943      -77.159      -13.124       49.341       74.451       40.939     2434.527     5543.001     1675.978        0.809        0.483       79.695       38.289        0.231      342.447       17.864      856.533
04/12/2014  10:48:00       51.258      -66.468       12.965       74.022       93.875       66.712     5479.331     8812.438     4450.518        1.297        0.937       83.937       65.462        0.608      342.905       18.642      856.514
04/12/2014  10:49:00       84.971      -98.309       20.609       56.619       93.895       64.759     3205.710     8816.340     4193.767        1.676        0.811      129.941       64.706        0.248      342.776       18.421      856.524
04/12/2014  10:50:00       29.077       34.258       62.061       51.492       82.045       51.713     2651.419     6731.390     2674.194        0.896        0.603       44.934       52.595        1.370      342.626       18.167      856.535
04/12/2014  10:51:00       16.246      -19.309       28.114       32.194       51.121       30.855     1036.423     2613.389      952.037        0.301        0.230       25.234       32.631        1.672      343.137       19.037      856.531
04/12/2014  10:52:00      -10.741       43.047       44.810       35.349       39.370       42.611     1249.518     1549.995     1815.712        0.429        0.231       44.367       13.866        0.098      343.230       19.196      856.527
04/12/2014  10:53:00       88.627       86.701       44.856       70.612       50.113       38.960     4986.070     2511.275     1517.870        1.320        0.451      123.983       33.100        0.071      342.740       18.360      856.509
04/12/2014  10:54:00       22.208       49.424        5.585       49.724       32.955       31.957     2472.448     1086.022     1021.268        0.377        0.229       54.184       30.245        0.312      342.604       18.130      856.513
04/12/2014  10:55:00       27.589      -72.406        8.611       47.401       49.556       41.430     2246.835     2455.817     1716.425        0.625        0.321       77.484       34.004        0.193      342.781       18.430      856.503
04/12/2014  10:56:00       46.016      -70.331        7.841       38.448       42.952       34.270     1478.271     1844.867     1174.460        0.581        0.225       84.047       26.972        0.103      342.687       18.270      856.491
04/12/2014  10:57:00       10.681       -7.884      -13.911       60.405       24.629       22.149     3648.767      606.604      490.566        0.256        0.237       13.276       14.708        1.227      342.780       18.430      856.479
04/12/2014  10:58:00      -42.243        4.290       -7.762       25.603       24.126       22.398      655.516      582.066      501.692        0.180        0.087       42.460       16.826        0.157      342.731       18.346      856.467
04/12/2014  10:59:00      -18.385      -33.047       16.992       47.799       61.588       36.634     2284.699     3793.086     1342.067        0.457        0.371       37.817       39.863        1.111      343.471       19.607      856.467
04/12/2014  11:00:00       37.549      -84.683        9.720       59.651       73.470       55.121     3558.183     5397.785     3038.336        1.033        0.600       92.634       53.487        0.333      343.391       19.471      856.456
04/12/2014  11:01:00       23.178       35.156       69.853       44.972       55.500       53.116     2022.461     3080.262     2821.267        0.729        0.396       42.109       38.681        0.844      343.569       19.774      856.425
04/12/2014  11:02:00       88.099     -108.029        3.085       93.982      127.284       62.590     8832.632    16201.140     3917.480        2.419        1.448      139.398       79.945        0.329      343.428       19.532      856.409
04/12/2014  11:03:00       46.406      -64.481       21.998       73.238       98.132       79.920     5363.872     9629.866     6387.180        1.408        1.069       79.444       71.365        0.807      343.310       19.332      856.393
04/12/2014  11:04:00      -20.102      -33.162       35.265       74.033       64.040       53.394     5480.881     4101.066     2850.920        0.759        0.622       38.779       37.836        0.952      343.606       19.835      856.390
04/12/2014  11:05:00      -73.413      -33.287       -5.399       41.887       45.791       29.469     1754.496     2096.789      868.449        0.562        0.236       80.607       26.995        0.112      343.337       19.378      856.396
04/12/2014  11:06:00       -7.790      -32.717       10.794       37.468       35.366       32.453     1403.835     1250.722     1053.213        0.248        0.185       33.632       23.016        0.468      343.475       19.614      856.389
04/12/2014  11:07:00       12.490      -69.650       -5.295       38.237       46.440       37.733     1462.044     2156.673     1423.811        0.504        0.252       70.761       19.846        0.079      343.521       19.692      856.382
04/12/2014  11:08:00      -63.159      -59.278       12.694       66.917       57.429       40.035     4477.869     3298.103     1602.808        0.852        0.469       86.620       36.505        0.178      343.393       19.472      856.370
04/12/2014  11:09:00      -81.093      -65.225       -3.960       54.540       39.489       21.839     2974.596     1559.345      476.940        0.793        0.251      104.069       16.562        0.025      342.962       18.740      856.369
04/12/2014  11:10:00      -35.894     -213.882       -6.504       41.680       58.924       27.152     1737.237     3472.070      737.254        2.651        0.297      216.873       19.565        0.008      342.702       18.294      856.365
04/12/2014  11:11:00      -65.245     -135.047       -9.430       36.956       66.814       28.618     1365.760     4464.155      818.976        1.461        0.332      149.983       19.835        0.017      342.755       18.385      856.353
04/12/2014  11:12:00      -24.357     -116.406       -6.904       58.211       73.951       35.012     3388.544     5468.683     1225.869        1.214        0.504      118.927       31.145        0.069      342.972       18.757      856.327
04/12/2014  11:13:00      -91.360      -54.169      -20.988       99.428       41.468       43.723     9885.843     1719.580     1911.667        1.262        0.676      106.212       23.491        0.049      343.076       18.932      856.305
04/12/2014  11:14:00      -93.832        8.263        7.224       58.962       53.756       37.437     3476.559     2889.695     1401.499        0.834        0.388       94.195       32.414        0.118      343.344       19.391      856.283
04/12/2014  11:15:00      -30.097        0.647       26.747       38.058       31.508       29.022     1448.433      992.757      842.294        0.245        0.164       30.104       28.093        0.871      343.738       20.061      856.265
04/12/2014  11:16:00      -87.332      -92.432        4.391       70.160       55.485       33.669     4922.356     3078.566     1133.626        1.266        0.457      127.164       34.131        0.072      342.956       18.730      856.246
04/12/2014  11:17:00     -115.002       18.840      -12.375       58.718       33.603       29.203     3447.753     1129.135      852.816        0.958        0.271      116.535       19.876        0.029      342.988       18.783      856.234
04/12/2014  11:18:00      -25.463      -64.979       -1.109       43.566       26.061       27.501     1898.028      679.180      756.321        0.410        0.167       69.790       20.772        0.089      343.011       18.822      856.219
04/12/2014  11:19:00     -165.831      -36.858      -17.683       46.220       48.867       36.444     2136.323     2387.998     1328.194        1.751        0.293      169.878       28.653        0.028      343.021       18.839      856.200
04/12/2014  11:20:00     -116.994       31.705      -12.327       44.466       49.243       21.537     1977.236     2424.901      463.837        0.985        0.243      121.214       18.791        0.024      343.105       18.984      856.197
04/12/2014  11:21:00        1.751       41.368       24.916       20.437       34.032       27.827      417.657     1158.144      774.368        0.234        0.118       41.405       19.984        0.233      344.133       20.736      856.199
04/12/2014  11:22:00       17.959       15.089       24.682       23.341       24.136       19.048      544.817      582.542      362.831        0.132        0.075       23.457       10.543        0.202      343.916       20.366      856.195
04/12/2014  11:23:00     -117.096      -27.587      -20.542       47.524       38.608       32.476     2258.504     1490.551     1054.706        0.985        0.240      120.302       32.411        0.073      343.254       19.234      856.200
04/12/2014  11:24:00      -20.130       -4.558       -6.800       36.607       24.540       30.764     1340.098      602.198      946.403        0.168        0.144       20.640       31.605        2.345      343.537       19.718      856.204
04/12/2014  11:25:00      -70.414       28.242       11.401       68.735       36.820       29.632     4724.559     1355.739      878.078        0.642        0.348       75.867       29.213        0.148      343.606       19.837      856.190
04/12/2014  11:26:00      -79.957       34.625       -0.396       67.207       39.750       37.446     4516.783     1580.027     1402.176        0.754        0.375       87.132       38.532        0.196      343.559       19.758      856.189
04/12/2014  11:27:00     -132.593       81.983      -17.239       91.488       65.271       30.190     8370.006     4260.315      911.465        1.907        0.677      155.891       34.057        0.048      343.466       19.597      856.188
04/12/2014  11:28:00     -154.592      -14.203      -22.978       51.805       54.354       20.006     2683.709     2954.308      400.235        1.533        0.302      155.243       15.675        0.010      343.004       18.810      856.186
04/12/2014  11:29:00      -80.566      -34.130      -13.595       14.458       20.624       18.434      209.027      425.344      339.827        0.441        0.049       87.497       10.568        0.015      343.118       19.003      856.177
04/12/2014  11:30:00      -29.189      -20.589        1.290       31.639       14.275       14.241     1001.035      203.788      202.802        0.134        0.070       35.720       15.969        0.200      343.503       19.662      856.156
04/12/2014  11:31:00       33.753        3.077       36.806       39.106       52.517       28.295     1529.317     2758.029      800.626        0.379        0.254       33.893       17.762        0.275      343.587       19.804      856.136
04/12/2014  11:32:00      146.562       82.410       32.205       62.374       45.714       48.905     3890.470     2089.769     2391.698        1.884        0.419      168.142       21.506        0.016      343.514       19.678      856.106
04/12/2014  11:33:00      122.502       64.215       22.683       50.187       40.815       45.883     2518.765     1665.904     2105.257        1.297        0.314      138.312       31.211        0.051      343.299       19.313      856.090
04/12/2014  11:34:00       15.287       37.992       49.467       55.043       54.473       46.917     3029.771     2967.279     2201.241        0.616        0.410       40.952       39.589        0.935      344.010       20.527      856.054
04/12/2014  11:35:00       88.971      -69.238        8.361       74.952       81.862       62.391     5617.819     6701.307     3892.654        1.449        0.811      112.738       58.405        0.268      343.683       19.967      856.027
04/12/2014  11:36:00       22.108       31.752       48.317       42.968       41.583       29.991     1846.243     1729.119      899.452        0.415        0.224       38.691       21.265        0.302      344.139       20.747      856.014
04/12/2014  11:37:00       12.037       31.180       37.028       46.854       53.174       52.449     2195.276     2827.423     2750.910        0.513        0.389       33.423       23.590        0.498      344.208       20.864      855.981
04/12/2014  11:38:00       44.595       37.118       27.819       31.720       39.985       37.267     1006.141     1598.827     1388.798        0.407        0.200       58.021       22.437        0.150      343.933       20.393      855.954
04/12/2014  11:39:00       17.882        1.664       11.956       40.599       50.962       42.280     1648.305     2597.159     1787.585        0.325        0.302       17.960       35.707        3.953      344.158       20.780      855.929
04/12/2014  11:40:00       60.387       84.599       79.601       79.373       62.107       70.762     6300.019     3857.291     5007.301        1.615        0.758      103.940       50.096        0.232      343.878       20.298      855.905
04/12/2014  11:41:00       80.979       28.743       27.465       79.231       57.704       46.577     6277.609     3329.698     2169.376        0.996        0.589       85.929       24.005        0.078      343.903       20.343      855.893
04/12/2014  11:42:00      148.701     -145.450       -0.708      109.066      139.902       59.655    11895.306    19572.649     3558.671        3.914        1.751      208.008       70.177        0.114      343.925       20.379      855.871
04/12/2014  11:43:00      183.984     -200.382      -45.429      110.326      126.324       70.496    12171.805    15957.742     4969.639        5.458        1.655      272.035       76.566        0.079      343.851       20.251      855.840
04/12/2014  11:44:00      203.446     -237.148      -58.582      131.825      140.350       66.486    17377.713    19698.116     4420.369        7.127        2.075      312.457       83.282        0.071      343.647       19.904      855.817
04/12/2014  11:45:00       49.015      -34.264       50.272       58.637       76.571       66.999     3438.280     5863.065     4488.891        0.994        0.690       59.804       52.446        0.769      344.161       20.781      855.835
04/12/2014  11:46:00      100.051     -151.287       -5.817       83.556       79.198       48.465     6981.642     6272.319     2348.840        2.426        0.780      181.378       32.863        0.033      343.844       20.241      855.827
04/12/2014  11:47:00       45.524     -154.090      -22.516       96.117      120.713       59.522     9238.554    14571.733     3542.902        2.683        1.368      160.674       60.030        0.140      344.182       20.819      855.799
04/12/2014  11:48:00      -62.774     -101.462        8.562       70.620       96.504       47.978     4987.227     9313.032     2301.924        1.545        0.830      119.311       53.467        0.201      344.352       21.110      855.778
04/12/2014  11:49:00       10.261      -45.510       54.754       39.824       71.277       44.726     1585.956     5080.432     2000.422        0.692        0.433       46.652       28.973        0.386      344.405       21.200      855.791
04/12/2014  11:50:00       26.240      -91.502       35.475       49.787       74.353       47.886     2478.719     5528.423     2293.050        1.031        0.515       95.190       39.860        0.175      344.361       21.124      855.782
04/12/2014  11:51:00      -31.099      -99.979       15.316       73.235      102.331       51.114     5363.414    10471.725     2612.615        1.482        0.922      104.704       55.100        0.277      344.322       21.058      855.785
04/12/2014  11:52:00      -29.813      -96.168       -5.691       77.810       69.653       46.609     6054.402     4851.564     2172.428        1.162        0.654      100.683       38.860        0.149      344.323       21.060      855.760
04/12/2014  11:53:00      -83.682     -117.936       16.331      131.909       89.035       64.308    17400.021     7927.179     4135.522        2.531        1.473      144.608       56.046        0.150      344.124       20.721      855.748
04/12/2014  11:54:00     -106.632      -94.575        2.627      147.642       75.961       52.589    21798.083     5770.108     2765.625        2.532        1.517      142.530       48.872        0.118      343.775       20.123      855.762
04/12/2014  11:55:00     -170.945     -129.055        7.422       73.355       87.050       50.820     5380.948     7577.618     2582.723        3.073        0.777      214.190       28.415        0.018      343.898       20.331      855.774
04/12/2014  11:56:00     -107.834      -73.374        5.843       97.364       88.550       51.791     9479.747     7841.043     2682.259        1.852        1.000      130.430       46.504        0.127      343.784       20.139      855.774
04/12/2014  11:57:00     -180.946      -74.006        5.121       87.984       76.129       35.861     7741.148     5795.554     1286.000        2.653        0.741      195.495       43.540        0.050      343.616       19.850      855.769
04/12/2014  11:58:00      -94.742     -139.423       10.606       92.117      151.550       55.399     8485.543    22967.279     3069.049        3.152        1.726      168.567       77.705        0.212      344.009       20.523      855.782
04/12/2014  11:59:00     -115.536     -100.299      -13.136       79.779       64.797       25.922     6364.703     4198.678      671.925        1.741        0.562      152.999       30.802        0.041      343.610       19.841      855.776
04/12/2014  12:00:00      -89.158      -77.609       -7.040       72.122       70.650       41.655     5201.638     4991.381     1735.166        1.297        0.596      118.205       35.735        0.091      343.760       20.097      855.776
04/12/2014  12:01:00      -12.767      -59.423        7.795       39.460       52.191       35.565     1557.109     2723.923     1264.836        0.465        0.277       60.779       29.353        0.233      343.994       20.498      855.784
04/12/2014  12:02:00       10.056        1.581       27.897       25.276       41.350       28.187      638.901     1709.783      794.503        0.201        0.157       10.180       20.478        4.047      344.452       21.281      855.783
04/12/2014  12:03:00       33.493       60.144        9.083       31.842       43.424       33.558     1013.925     1885.625     1126.143        0.442        0.201       68.841       31.900        0.215      343.990       20.492      855.757
04/12/2014  12:04:00        9.706       88.050       -2.672       28.669       44.101       25.839      821.931     1944.908      667.638        0.564        0.172       88.584       16.687        0.035      344.372       21.144      855.748
04/12/2014  12:05:00        5.477       19.166       40.340       35.195       37.104       37.177     1238.663     1376.686     1382.128        0.301        0.200       19.934       27.093        1.847      344.611       21.554      855.731
04/12/2014  12:06:00      176.442      100.847       21.013       90.089       59.756       51.305     8116.021     3570.771     2632.160        2.803        0.716      203.229       28.242        0.019      343.985       20.479      855.697
04/12/2014  12:07:00      202.702      129.462       22.961       68.520       60.376       54.461     4694.999     3645.206     2966.016        3.484        0.565      240.517       29.957        0.016      344.057       20.602      855.675
04/12/2014  12:08:00      120.594      149.432      100.218      117.069       70.243       80.734    13705.098     4934.101     6518.018        3.603        1.258      192.023       71.566        0.139      344.287       20.995      855.641
04/12/2014  12:09:00      170.252      170.371       90.743       98.232       69.500       81.604     9649.565     4830.241     6659.282        4.369        1.057      240.857       53.000        0.048      344.104       20.681      855.635
04/12/2014  12:10:00      137.596      118.473        7.312       70.943       35.955       45.005     5032.895     1292.797     2025.411        2.068        0.418      181.572       43.932        0.059      343.840       20.233      855.641
04/12/2014  12:11:00       32.366       58.017       -4.006       60.663       37.318       36.777     3680.035     1392.609     1352.537        0.543        0.321       66.434       29.338        0.195      344.099       20.679      855.626
04/12/2014  12:12:00     -174.441       41.438      -40.815       53.813       45.829       24.948     2895.847     2100.282      622.393        1.971        0.281      179.295       18.036        0.010      343.765       20.106      855.656
04/12/2014  12:13:00     -132.877       39.420      -29.115       54.799       59.782       31.569     3002.888     3573.863      996.598        1.381        0.379      138.601       33.154        0.057      343.789       20.149      855.649
04/12/2014  12:14:00        1.570       52.543        4.561       26.616       50.441       31.454      708.402     2544.288      989.335        0.351        0.212       52.567       17.863        0.115      344.207       20.863      855.614
04/12/2014  12:15:00       17.536      142.195      -11.362       43.677       57.106       37.268     1907.681     3261.068     1388.902        1.361        0.328      143.272       31.734        0.049      344.141       20.748      855.622
04/12/2014  12:16:00      -70.448      209.333       -7.969       95.154       96.436       61.233     9054.320     9299.859     3749.446        3.547        1.105      220.869       50.373        0.052      344.383       21.159      855.590
04/12/2014  12:17:00      -48.253      213.836       -7.309       96.801      118.609       57.527     9370.471    14067.994     3309.377        3.742        1.337      219.213       76.675        0.122      344.275       20.976      855.567
04/12/2014  12:18:00        2.571       77.612       -3.731       43.107       64.558       28.843     1858.198     4167.772      831.910        0.645        0.343       77.655        7.642        0.010      344.252       20.938      855.537
04/12/2014  12:19:00       17.804       15.989        4.176       42.694       59.317       35.985     1822.797     3518.478     1294.948        0.361        0.332       23.929       35.052        2.146      344.487       21.341      855.492
04/12/2014  12:20:00      -50.035      -64.311       34.044      110.315      147.857       54.064    12169.316    21861.634     2922.921        2.237        1.848       81.483       46.445        0.325      344.505       21.371      855.459
04/12/2014  12:21:00     -135.058     -124.709       13.082      111.328      124.123       58.101    12393.825    15406.626     3375.670        3.256        1.559      183.829       55.985        0.093      344.196       20.841      855.478
04/12/2014  12:22:00     -161.054     -179.942        8.606      116.991      134.128       65.575    13686.927    17990.453     4300.059        4.718        1.799      241.490       68.990        0.082      344.184       20.820      855.455
04/12/2014  12:23:00     -104.619     -241.297        4.619      110.885      110.126       60.837    12295.445    12127.659     3701.191        4.865        1.406      263.001       45.040        0.029      344.154       20.768      855.442
04/12/2014  12:24:00     -248.555     -173.188      -23.947      107.879       92.370       60.742    11637.780     8532.158     3689.623        5.810        1.193      302.942       45.153        0.022      344.094       20.665      855.445
04/12/2014  12:25:00     -271.081     -170.002      -10.130      129.970       97.424       59.334    16892.167     9491.341     3520.560        6.619        1.495      319.978       59.291        0.034      343.983       20.475      855.454
04/12/2014  12:26:00     -117.187      -28.075       -1.883       55.458       51.563       33.398     3075.610     2658.705     1115.396        1.069        0.342      120.503       34.022        0.080      344.047       20.589      855.445
04/12/2014  12:27:00      -35.998      -41.530        2.942       46.266       34.882       23.319     2140.540     1216.736      543.771        0.346        0.195       54.960       11.075        0.041      344.204       20.856      855.430
04/12/2014  12:28:00     -120.251      -81.299       -1.229       70.277       68.942       38.646     4938.863     4753.032     1493.517        1.613        0.559      145.155       39.032        0.072      344.173       20.804      855.443
04/12/2014  12:29:00     -169.697     -157.299        2.327       98.856      115.729       52.721     9772.449    13393.298     2779.519        3.974        1.297      231.387       55.687        0.058      344.084       20.650      855.435
04/12/2014  12:30:00     -266.913     -164.944        4.549      189.632      195.633       84.075    35960.449    38272.172     7068.684        8.987        4.065      313.766      104.439        0.111      344.225       20.890      855.402
04/12/2014  12:31:00     -313.131     -199.589        1.971      161.658      141.256       80.586    26133.203    19953.126     6494.176        9.523        2.629      371.331       55.666        0.022      344.130       20.726      855.383
04/12/2014  12:32:00     -407.546     -254.200      -15.348      151.503      161.106       82.768    22953.298    25955.194     6850.461       14.334        2.788      480.324       86.837        0.033      343.944       20.409      855.375
04/12/2014  12:33:00     -243.264     -237.637       -3.273      160.495      174.777       84.470    25758.767    30547.002     7135.105        8.954        3.172      340.072       81.104        0.057      343.988       20.485      855.383
04/12/2014  12:34:00      -94.634     -251.512       -9.807      103.381      140.581       59.004    10687.661    19763.088     3481.457        5.311        1.697      268.726       61.884        0.053      344.060       20.609      855.376
04/12/2014  12:35:00      -77.586     -179.824       -2.825      104.200       74.152       54.105    10857.582     5498.499     2927.345        2.882        0.964      195.848       37.914        0.037      344.250       20.934      855.370
04/12/2014  12:36:00      -27.273      -96.996       21.945       53.998       57.845       59.484     2915.792     3345.989     3538.320        1.021        0.490      100.758       36.260        0.130      344.312       21.041      855.339
04/12/2014  12:37:00      -39.760     -233.538      -32.077       72.849       88.706       46.253     5306.982     7868.701     2139.314        3.623        0.766      236.899       36.001        0.023      344.277       20.978      855.334
04/12/2014  12:38:00      -57.953      -44.110       -3.374       38.548       63.670       31.729     1485.932     4053.916     1006.720        0.593        0.327       72.831       19.261        0.070      344.167       20.794      855.309
04/12/2014  12:39:00      -65.812      -21.218       -5.637       40.790       35.470       19.494     1663.851     1258.121      380.004        0.406        0.165       69.148       13.018        0.035      344.426       21.237      855.278
04/12/2014  12:40:00      -96.259     -107.864        3.542       97.694       82.176       47.926     9544.110     6752.892     2296.905        1.975        0.930      144.569       46.390        0.103      344.404       21.198      855.300
04/12/2014  12:41:00      -68.058     -170.638       11.611       80.673      112.714       48.999     6508.055    12704.475     2400.926        2.774        1.081      183.709       42.336        0.053      344.226       20.892      855.300
04/12/2014  12:42:00      -25.927      -19.660       15.690       50.829       30.441       33.296     2583.626      926.640     1108.633        0.296        0.231       32.538       31.693        0.949      344.498       21.358      855.309
04/12/2014  12:43:00     -111.200      -87.804        5.363       97.355       45.342       36.392     9477.975     2055.871     1324.362        1.648        0.643      141.686       30.480        0.046      344.299       21.019      855.291
04/12/2014  12:44:00     -112.140      -79.245       -3.181       71.951       46.197       32.750     5176.899     2134.127     1072.539        1.362        0.419      137.314       33.934        0.061      344.168       20.794      855.253
04/12/2014  12:45:00     -185.528      -74.469       -8.162       58.694       59.611       26.066     3444.939     3553.492      679.416        2.385        0.384      199.916       21.683        0.012      344.301       21.021      855.226
04/12/2014  12:46:00      -85.094       72.903      -10.074      100.629      123.968       38.457    10126.115    15368.155     1478.959        1.981        1.349      112.053       39.976        0.127      344.483       21.332      855.229
04/12/2014  12:47:00       11.073      222.424      -27.015       73.641      128.178       51.543     5423.048    16429.555     2656.661        3.741        1.225      222.699       65.401        0.086      344.723       21.743      855.212
04/12/2014  12:48:00      -37.109      196.863      -14.279       61.017       85.951       55.201     3723.116     7387.634     3047.106        2.724        0.708      200.330       53.066        0.070      344.744       21.777      855.219
04/12/2014  12:49:00     -113.855      111.593      -16.243       58.844       58.656       43.746     3462.583     3440.513     1913.721        1.725        0.441      159.424       43.168        0.073      344.609       21.549      855.198
04/12/2014  12:50:00     -166.588       -7.380       -4.607       98.635       65.302       39.702     9728.840     4264.361     1576.265        2.170        0.778      166.751       40.918        0.060      344.808       21.886      855.192
04/12/2014  12:51:00     -398.505      -41.703      -30.504       93.847      104.990       59.755     8807.327    11022.982     3570.690        9.243        1.170      400.682       55.752        0.019      344.390       21.170      855.194
04/12/2014  12:52:00     -222.352      -90.916       14.592      180.416      133.825       72.475    32549.803    17909.082     5252.587        5.680        2.786      240.221       87.218        0.132      344.239       20.915      855.182
04/12/2014  12:53:00       -5.202      -13.266       10.099       39.982       52.319       29.056     1598.555     2737.241      844.246        0.274        0.259       14.249       21.849        2.351      344.670       21.654      855.191
04/12/2014  12:54:00     -117.028      -17.708       -9.726       43.295       46.216       30.678     1874.495     2135.944      941.141        0.953        0.248      118.360       19.730        0.028      344.438       21.256      855.183
04/12/2014  12:55:00      -90.303       29.970        6.524       82.825       60.332       39.796     6859.949     3639.938     1583.687        1.059        0.604       95.146       40.550        0.182      344.910       22.064      855.187
04/12/2014  12:56:00     -103.259       91.751      -12.664      101.593      131.259       59.005    10321.102    17228.994     3481.581        2.513        1.552      138.133       57.766        0.175      344.850       21.960      855.175
04/12/2014  12:57:00     -120.529      266.674      -18.332       95.530      148.871       64.109     9125.909    22162.479     4110.024        6.068        1.770      292.647       57.631        0.039      344.862       21.978      855.200
04/12/2014  12:58:00      -92.079      335.051      -43.209       98.147      159.890       63.286     9632.749    25564.656     4005.103        8.090        1.960      347.473       57.584        0.027      344.629       21.579      855.164
04/12/2014  12:59:00     -138.802      385.791      -33.138      119.714      157.358       85.143    14331.453    24761.527     7249.250       10.776        2.317      410.001       92.004        0.050      344.669       21.648      855.155
04/12/2014  13:00:00     -208.632      285.689      -40.667      123.434      130.420       72.378    15235.830    17009.373     5238.575        8.213        1.874      353.759       77.090        0.047      344.986       22.190      855.127
04/12/2014  13:01:00     -144.851      222.168      -26.796      118.207      161.978       76.325    13972.935    26236.725     5825.490        5.854        2.302      265.217       55.949        0.045      345.063       22.323      855.124
04/12/2014  13:02:00     -238.552      325.804      -53.426      102.043      136.820       71.874    10412.801    18719.628     5165.926       10.010        1.715      403.801       77.328        0.037      344.623       21.569      855.138
04/12/2014  13:03:00     -216.504      319.471      -53.522      119.752      145.645       82.606    14340.449    21212.566     6823.673        9.708        2.119      385.922       78.209        0.041      344.638       21.595      855.142
04/12/2014  13:04:00     -264.026      321.496      -59.792      154.528      123.890       73.360    23878.896    15348.620     5381.630       11.062        2.230      416.016       86.447        0.043      344.549       21.444      855.128
04/12/2014  13:05:00     -143.780      241.555      -35.378      120.038      112.930       67.526    14409.124    12753.189     4559.767        5.599        1.586      281.108       72.743        0.067      344.712       21.721      855.116
04/12/2014  13:06:00     -169.735      336.502      -46.806      128.062      130.407       63.775    16399.802    17006.005     4067.228        9.085        1.874      376.886       63.826        0.029      344.561       21.465      855.101
04/12/2014  13:07:00     -145.132      192.851      -40.517      109.916      118.621       50.144    12081.573    14071.056     2514.434        4.428        1.433      241.360       54.084        0.050      344.630       21.583      855.118
04/12/2014  13:08:00      -86.088      -53.130        6.487      139.819      112.718       60.176    19549.436    12705.329     3621.112        2.307        1.794      101.163       60.135        0.353      345.006       22.227      855.086
04/12/2014  13:09:00     -175.697      -55.945       16.913      126.281       89.847       55.241    15946.821     8072.395     3051.598        3.067        1.354      184.389       63.921        0.120      344.858       21.974      855.071
04/12/2014  13:10:00      -79.558      184.292      -11.106       60.990      152.562       48.170     3719.838    23275.273     2320.302        3.486        1.466      200.731       41.054        0.042      344.897       22.040      855.069
04/12/2014  13:11:00     -129.941       80.988       -7.806      108.908      110.160       73.423    11861.057    12135.177     5390.996        2.644        1.469      153.113       68.064        0.198      345.431       22.954      855.074
04/12/2014  13:12:00     -250.485       49.562      -19.410      108.272      125.558       58.857    11722.754    15764.838     3464.130        4.826        1.548      255.341       34.967        0.019      345.056       22.310      855.090
04/12/2014  13:13:00     -364.066      225.117      -76.566      201.311      165.447       73.448    40526.118    27372.669     5394.643       13.117        3.665      428.044       74.438        0.030      344.402       21.191      855.153
04/12/2014  13:14:00     -193.829      215.767      -36.364      112.317      114.503       59.445    12615.120    13110.902     3533.700        5.735        1.463      290.043       54.878        0.036      344.789       21.854      855.143
04/12/2014  13:15:00     -195.883      -75.972      -12.230      155.662      101.571       50.901    24230.653    10316.746     2590.934        4.071        1.857      210.100       50.616        0.058      344.224       20.889      855.097
04/12/2014  13:16:00      -55.360      -30.474        9.760       41.471       79.877       28.244     1719.853     6380.258      797.707        0.649        0.445       63.194       26.676        0.178      344.757       21.803      855.063
04/12/2014  13:17:00     -173.401      250.614      -43.491      122.257      176.869       62.230    14946.685    31282.598     3872.527        7.242        2.505      304.755       77.940        0.065      344.723       21.740      855.122
04/12/2014  13:18:00      -23.349      447.465      -38.757       93.680      131.569       71.247     8775.910    17310.523     5076.120       11.671        1.558      448.074       72.032        0.026      344.742       21.774      855.120
04/12/2014  13:19:00     -212.824      238.455      -42.654      178.382      108.835       65.135    31820.078    11844.995     4242.557        7.593        2.395      319.617       48.656        0.023      344.703       21.706      855.097
04/12/2014  13:20:00     -239.990      402.245      -53.560      131.049      172.863       93.414    17173.836    29881.781     8726.143       13.901        2.789      468.397       79.676        0.029      344.579       21.495      855.108
04/12/2014  13:21:00     -307.104      436.360      -78.171      126.205      160.739       73.597    15927.614    25836.895     5416.507       16.900        2.359      533.594       75.366        0.020      344.475       21.316      855.125
04/12/2014  13:22:00     -253.813      346.575      -55.541      118.713      172.197       80.294    14092.752    29651.849     6447.163       11.890        2.510      429.576       80.110        0.035      344.475       21.316      855.123
04/12/2014  13:23:00     -205.384      325.970      -55.279      116.728      136.062       74.413    13625.352    18512.880     5537.359        9.458        1.884      385.278       73.170        0.036      344.387       21.166      855.107
04/12/2014  13:24:00     -142.164      211.113      -21.745       91.632      122.300       58.882     8396.389    14957.332     3467.112        4.603        1.341      254.518       57.294        0.051      344.562       21.465      855.086
04/12/2014  13:25:00      -36.033       99.853       14.414       77.740       92.735       52.759     6043.507     8599.698     2783.485        1.445        0.871      106.156       57.220        0.291      344.809       21.891      855.079
04/12/2014  13:26:00      -28.291      174.668       -8.974       60.194      114.411       67.624     3623.277    13089.959     4573.007        2.633        1.064      176.945       73.503        0.173      344.855       21.967      855.063
04/12/2014  13:27:00      -49.981      223.866      -13.404       56.987      102.481       51.695     3247.514    10502.380     2672.407        3.460        0.821      229.378       46.666        0.041      344.913       22.066      855.051
04/12/2014  13:28:00     -169.673      218.732      -24.658      108.093      144.493       65.519    11684.183    20878.147     4292.687        5.704        1.843      276.825       67.142        0.059      344.657       21.629      855.051
04/12/2014  13:29:00      -55.358      221.517      -16.884       86.216      120.249       57.858     7433.113    14459.722     3347.583        3.882        1.262      228.329       58.741        0.066      344.706       21.712      855.032
04/12/2014  13:30:00     -125.186      330.969      -32.424      140.948      166.949       68.247    19866.467    27871.964     4657.640        8.932        2.620      353.853       67.192        0.036      344.582       21.499      855.009
04/12/2014  13:31:00     -232.875      120.363      -26.327       91.287       94.731       54.355     8333.271     8973.994     2954.444        4.483        1.013      262.141       41.098        0.025      344.593       21.517      855.017
04/12/2014  13:32:00     -294.711       -9.809      -24.016      116.339       93.635       48.338    13534.776     8767.514     2336.573        5.608        1.232      294.874       53.561        0.033      344.466       21.301      855.023
04/12/2014  13:33:00     -180.527      -43.306      -20.679       72.829       66.415       46.334     5304.050     4410.905     2146.883        2.338        0.593      185.649       21.789        0.014      344.531       21.413      855.015
04/12/2014  13:34:00     -371.739     -116.936      -14.138      181.974      154.194       87.704    33114.507    23775.697     7691.934       10.831        3.229      389.697       64.959        0.028      344.507       21.371      854.981
04/12/2014  13:35:00     -295.570      -41.122      -27.399      163.035      143.731       82.853    26580.402    20658.707     6864.643        7.194        2.705      298.417       54.862        0.034      344.639       21.597      854.982
04/12/2014  13:36:00     -132.108      -24.987       -9.399      117.234      151.594       61.017    13743.823    22980.649     3723.056        2.930        2.022      134.450       55.441        0.170      344.822       21.912      854.992
04/12/2014  13:37:00     -332.819      -42.934      -42.706      176.309      145.602       65.865    31084.902    21199.933     4338.209        8.552        2.831      335.577       79.343        0.056      344.476       21.320      855.022
04/12/2014  13:38:00     -224.281      108.242      -17.425      124.664       63.491       57.425    15540.989     4031.146     3297.672        4.259        1.143      249.034       62.908        0.064      344.367       21.132      855.015
04/12/2014  13:39:00      -10.441      226.361      -12.650       85.617      161.004       57.765     7330.194    25922.132     3336.840        4.404        1.829      226.602       64.220        0.080      344.807       21.888      855.000
04/12/2014  13:40:00      -74.634      261.956      -20.251       69.728      139.400       61.732     4861.974    19432.471     3810.836        5.135        1.405      272.381       58.365        0.046      344.821       21.908      855.005
04/12/2014  13:41:00      -88.468       95.291        4.630       79.907       79.649       51.626     6385.101     6343.996     2665.234        1.616        0.770      130.027       47.259        0.132      344.761       21.808      855.006
04/12/2014  13:42:00     -123.870       26.584      -10.513      107.255       71.823       57.294    11503.682     5158.538     3282.616        1.805        0.997      126.690       44.586        0.124      344.921       22.082      855.014
04/12/2014  13:43:00     -174.848      -10.091       -2.502      167.003      112.289       67.320    27889.945    12608.823     4532.033        3.785        2.252      175.139       66.833        0.146      344.870       21.995      855.018
04/12/2014  13:44:00     -164.590      -55.345       -7.846      152.834       87.673       61.264    23358.365     7686.470     3753.276        3.250        1.740      173.646       64.288        0.137      344.814       21.897      855.018
04/12/2014  13:45:00      -82.633      -47.819       10.686      124.073      107.757       56.606    15394.075    11611.616     3204.200        1.971        1.510       95.472       54.755        0.329      344.776       21.833      854.993
04/12/2014  13:46:00     -236.979       -5.974      -29.302      117.015      148.912       58.099    13692.429    22174.778     3375.476        4.814        1.962      237.054       54.347        0.053      344.706       21.711      855.003
04/12/2014  13:47:00     -273.014      104.493      -45.018      131.426      140.111       77.319    17272.869    19631.133     5978.278        6.517        2.144      292.327       70.722        0.059      344.500       21.358      855.010
04/12/2014  13:48:00     -188.781       52.344      -31.792      118.393      124.183       61.933    14016.918    15421.321     3835.641        3.632        1.664      195.904       58.620        0.090      344.492       21.347      854.999
04/12/2014  13:49:00      -46.622      107.239       -4.890       79.842      114.684       60.757     6374.781    13152.322     3691.399        1.845        1.161      116.935       54.753        0.219      344.788       21.854      854.986
04/12/2014  13:50:00     -107.101      153.024      -24.595       97.638      150.669       65.468     9533.095    22701.138     4286.100        3.600        1.826      186.780       54.721        0.086      344.818       21.904      854.954
04/12/2014  13:51:00     -110.882      156.332       -7.734       93.235      140.242       63.064     8692.705    19667.880     3977.131        3.456        1.617      191.663       62.480        0.106      344.803       21.880      854.947
04/12/2014  13:52:00     -194.687      210.172      -28.688      118.000      127.927       66.797    13924.035    16365.387     4461.869        5.882        1.738      286.488       68.316        0.057      344.825       21.915      854.944
04/12/2014  13:53:00     -142.755       18.478        3.343      103.730       81.534       70.985    10759.981     6647.818     5038.934        2.158        1.122      143.946       55.526        0.149      345.041       22.286      854.928
04/12/2014  13:54:00     -131.446       51.841        5.666       98.679       89.690       54.493     9737.468     8044.232     2969.504        2.037        1.038      141.300       53.649        0.144      345.100       22.388      854.871
04/12/2014  13:55:00     -250.393      -55.634      -24.778      124.329      132.393       74.966    15457.720    17527.874     5619.950        5.250        1.930      256.499       71.966        0.079      344.749       21.786      854.876
04/12/2014  13:56:00      -42.374       35.708      -32.152      106.671      102.176       45.368    11378.772    10439.942     2058.253        1.399        1.194       55.413       25.685        0.215      344.923       22.085      854.865
04/12/2014  13:57:00     -168.350        3.887      -25.549      171.849      118.028       46.803    29532.239    13930.704     2190.534        3.732        2.283      168.394       59.833        0.126      344.897       22.040      854.843
04/12/2014  13:58:00     -309.218     -105.040      -36.447      139.727      117.703       69.559    19523.621    13853.891     4838.502        7.309        1.911      326.572       60.516        0.034      344.794       21.863      854.782
04/12/2014  13:59:00     -180.833      -71.967      -14.353      160.343      128.560       75.971    25710.025    16527.678     5771.663        4.304        2.400      194.627       56.460        0.084      345.191       22.543      854.767
04/12/2014  14:00:00     -449.015     -121.212      -32.633      196.589      148.451       76.514    38647.187    22037.733     5854.433       14.194        3.327      465.088       75.274        0.026      345.211       22.576      854.788
04/12/2014  14:01:00     -398.687     -141.589      -15.180      241.920      143.029       90.749    58525.444    20457.225     8235.471       13.321        4.361      423.082       80.366        0.036      345.150       22.471      854.798
04/12/2014  14:02:00     -343.390       55.491      -18.072      182.549      142.403       67.080    33324.240    20278.692     4499.687        8.970        2.905      347.844       74.374        0.046      345.216       22.584      854.821
04/12/2014  14:03:00     -194.161      -17.128       -2.524      147.114      126.998       64.116    21642.477    16128.552     4110.850        3.993        2.094      194.915       61.562        0.100      345.288       22.707      854.810
04/12/2014  14:04:00     -263.925      -88.424      -10.050      236.208      122.885       88.591    55794.194    15100.815     7848.387        7.814        3.937      278.344      118.726        0.182      345.524       23.115      854.832
04/12/2014  14:05:00     -305.607      -11.120      -39.386      168.148      132.868       74.169    28273.677    17654.026     5501.097        7.324        2.571      305.809       61.929        0.041      344.980       22.182      854.846
04/12/2014  14:06:00     -367.016      120.790      -41.962      151.938      113.269       71.470    23085.048    12829.840     5107.980        9.603        2.051      386.382       70.137        0.033      344.748       21.782      854.886
04/12/2014  14:07:00     -330.471       71.427      -51.729      122.251      102.248       62.589    14945.333    10454.685     3917.419        7.315        1.466      338.102       72.880        0.046      344.566       21.473      854.878
04/12/2014  14:08:00     -244.012       20.712      -38.245      119.934       90.175       53.173    14384.225     8131.482     2827.326        4.338        1.267      244.890       62.002        0.064      344.625       21.574      854.832
04/12/2014  14:09:00      -44.535       29.669       14.371       85.840       57.297       36.461     7368.554     3282.986     1329.379        0.752        0.599       53.513       38.215        0.510      345.210       22.578      854.765
04/12/2014  14:10:00     -221.728      -28.649      -13.454      119.703       74.949       50.045    14328.864     5617.308     2504.547        3.630        1.123      223.571       52.387        0.055      345.267       22.673      854.756
04/12/2014  14:11:00     -335.882      -66.068      -29.390       90.928      122.534       51.890     8267.967    15014.466     2692.589        7.200        1.299      342.318       30.200        0.008      344.810       21.889      854.731
04/12/2014  14:12:00     -216.971      -64.478      -14.105      148.571       89.130       50.984    22073.219     7944.113     2599.374        4.202        1.631      226.349       55.234        0.060      345.103       22.391      854.711
04/12/2014  14:13:00      -68.909       41.786       18.741      107.651      145.111       53.938    11588.755    21057.165     2909.274        2.119        1.778       80.588       47.287        0.344      345.220       22.593      854.690
04/12/2014  14:14:00     -268.086      -87.387       -1.496      186.590       93.624       55.181    34815.846     8765.435     3044.958        6.306        2.331      281.969       75.201        0.071      344.796       21.866      854.671
04/12/2014  14:15:00        1.909       44.689       23.722       60.414       74.900       47.392     3649.816     5610.060     2245.960        0.703        0.575       44.729       40.351        0.814      345.292       22.718      854.672
04/12/2014  14:16:00      -86.154      220.761       -7.104       86.911      167.598       74.943     7553.439    28089.049     5616.480        4.873        2.063      236.976       52.381        0.049      345.044       22.291      854.660
04/12/2014  14:17:00      -84.203      153.809       -2.020       85.984       99.151       60.273     7393.230     9830.932     3632.788        2.580        1.043      175.349       47.569        0.074      345.160       22.489      854.667
04/12/2014  14:18:00      -94.188      162.402      -29.113       93.870      111.120       50.818     8811.518    12347.565     2582.470        2.991        1.187      187.739       42.266        0.051      344.986       22.193      854.661
04/12/2014  14:19:00      -14.418       39.837       24.384       48.363       30.733       36.185     2338.951      944.511     1309.367        0.349        0.230       42.366       23.645        0.312      345.525       23.118      854.626
04/12/2014  14:20:00      -29.384       31.461       12.145       66.572       51.156       39.628     4431.881     2616.895     1570.385        0.531        0.431       43.049       19.207        0.199      345.354       22.824      854.606
04/12/2014  14:21:00      -18.192      108.746       -8.632       51.510       56.295       38.812     2653.296     3169.110     1506.379        0.978        0.366      110.257       25.007        0.051      345.476       23.032      854.577
04/12/2014  14:22:00     -142.202      -15.395      -11.115      104.045       98.802       68.358    10825.380     9761.790     4672.872        2.292        1.263      143.033       40.063        0.078      345.213       22.582      854.547
04/12/2014  14:23:00      -94.764      126.143       -3.092      116.854      110.635       52.979    13654.825    12240.023     2806.820        2.680        1.435      157.773       59.241        0.141      345.179       22.523      854.550
04/12/2014  14:24:00     -138.172      110.761      -18.593      149.618      115.478       55.506    22385.576    13335.212     3080.892        3.525        1.940      177.086       64.635        0.133      345.398       22.898      854.518
04/12/2014  14:25:00     -125.038      293.964      -33.365       86.341       95.569       68.599     7454.765     9133.416     4705.783        6.222        1.065      319.452       53.787        0.028      345.129       22.436      854.521
04/12/2014  14:26:00     -126.989      230.189      -29.699       92.139      175.802       61.497     8489.524    30906.183     3781.902        5.658        2.159      262.894       46.252        0.031      345.026       22.260      854.519
04/12/2014  14:27:00     -177.302       69.566      -22.491      194.607      116.717       71.400    37871.932    13622.802     5098.009        4.668        2.830      190.461      100.156        0.277      345.255       22.653      854.515
04/12/2014  14:28:00     -341.051      -24.485      -41.018      107.038      149.250       68.138    11457.200    22275.672     4642.754        7.848        1.919      341.928       49.794        0.021      345.074       22.341      854.506
04/12/2014  14:29:00     -372.646      -51.511      -22.763      141.861      139.524       74.741    20124.451    19466.878     5586.239        9.360        2.259      376.190       72.751        0.037      345.336       22.788      854.508
04/12/2014  14:30:00     -382.870     -175.368      -20.601      176.629      155.093       70.229    31197.960    24053.826     4932.133       11.896        3.009      421.121       77.576        0.034      345.361       22.832      854.497
04/12/2014  14:31:00     -436.193     -154.121      -11.251      162.293      150.721       81.501    26338.941    22716.841     6642.403       13.491        2.785      462.621       82.363        0.032      345.054       22.306      854.501
04/12/2014  14:32:00     -248.083     -194.334       -5.754      184.790      130.539       74.613    34147.463    17040.368     5567.077        7.804        2.838      315.137       91.935        0.085      345.171       22.507      854.489
04/12/2014  14:33:00     -241.172     -137.055        4.486      150.407       87.769       60.423    22622.149     7703.331     3650.898        5.547        1.699      277.395       77.589        0.078      345.049       22.299      854.477
04/12/2014  14:34:00     -266.511     -136.481       -7.452      139.918      110.153       57.658    19576.958    12133.746     3324.396        6.237        1.752      299.425       53.425        0.032      345.124       22.426      854.453
04/12/2014  14:35:00     -382.613     -173.904      -29.656      116.851       92.212       58.665    13654.221     8503.027     3441.609       10.155        1.280      420.280       53.082        0.016      344.828       21.921      854.430
04/12/2014  14:36:00     -309.568     -165.885      -18.295      182.835      144.541       73.431    33428.545    20892.027     5392.173        9.169        2.986      351.212       71.592        0.042      345.221       22.594      854.429
04/12/2014  14:37:00     -433.344     -116.245       -6.827      162.068      144.842       75.367    26265.931    20979.151     5680.167       12.713        2.646      448.665       74.768        0.028      345.139       22.453      854.423
04/12/2014  14:38:00     -261.504      -81.398      -21.715      173.326       91.952       63.650    30042.054     8455.241     4051.345        5.901        2.127      273.880       60.352        0.049      345.215       22.584      854.428
04/12/2014  14:39:00     -259.606     -224.585        1.844      170.780      117.287       78.235    29165.794    13756.319     6120.682        8.343        2.452      343.270       85.916        0.063      344.975       22.170      854.400
04/12/2014  14:40:00     -250.267     -127.655       -1.522      136.086      127.331       66.615    18519.274    16213.246     4437.546        5.904        1.959      280.944       58.105        0.043      345.126       22.431      854.363
04/12/2014  14:41:00     -111.249        8.539        8.136       92.613       70.293       41.579     8577.220     4941.051     1728.828        1.388        0.762      111.576       28.262        0.064      345.639       23.311      854.353
04/12/2014  14:42:00     -231.208     -163.015      -11.951      147.538      110.821       73.476    21767.476    12281.395     5398.691        5.980        1.972      282.897       76.452        0.073      345.223       22.596      854.334
04/12/2014  14:43:00     -385.283       31.250      -33.918      129.868      178.109       76.421    16865.778    31722.826     5840.223       10.249        2.721      386.549       65.996        0.029      345.365       22.841      854.329
04/12/2014  14:44:00     -364.255       35.424       -7.947      186.756      173.452       98.338    34877.775    30085.595     9670.443       10.430        3.732      365.973       89.959        0.060      345.564       23.180      854.319
04/12/2014  14:45:00     -282.493     -148.956        7.188      205.257      175.057      111.634    42130.524    30644.880    12462.089        9.362        4.262      319.359      119.790        0.141      345.438       22.966      854.322
04/12/2014  14:46:00     -217.083     -107.274       -7.718      247.812      168.804      102.152    61410.921    28494.811    10434.992        7.950        5.017      242.142      118.873        0.241      345.500       23.071      854.283
04/12/2014  14:47:00     -257.720       -8.397        3.771      193.129      126.159       74.931    37298.879    15916.113     5614.658        6.266        2.941      257.857       84.552        0.108      345.680       23.382      854.338
04/12/2014  14:48:00      -95.189       38.509        8.000      141.642       74.205       50.431    20062.581     5506.381     2543.295        1.935        1.406      102.683       62.043        0.365      345.833       23.643      854.313
04/12/2014  14:49:00      -78.011      -52.196       17.015       86.034       68.504       41.918     7401.775     4692.852     1757.105        1.147        0.693       93.862       29.206        0.097      346.046       24.011      854.290
04/12/2014  14:50:00     -240.270      -86.959        0.380      110.547       88.952       54.222    12220.728     7912.547     2940.015        4.418        1.154      255.522       58.622        0.053      345.341       22.799      854.278
04/12/2014  14:51:00     -185.325      -62.021       -1.369      113.280       65.056       40.885    12832.379     4232.330     1671.549        2.846        0.937      195.427       49.317        0.064      345.314       22.753      854.279
04/12/2014  14:52:00     -193.517      -63.267       16.131      160.823      159.748       80.180    25863.918    25519.444     6428.819        4.975        2.891      203.596       80.047        0.155      345.814       23.612      854.281
04/12/2014  14:53:00     -367.567      -50.403      -34.707      215.935      159.841       73.656    46627.935    25549.105     5425.206       10.821        3.880      371.007       84.058        0.051      345.413       22.923      854.275
04/12/2014  14:54:00     -116.254       96.652        6.994      121.963      167.093       83.396    14875.000    27919.974     6954.845        3.632        2.487      151.184       74.651        0.244      345.335       22.788      854.286
04/12/2014  14:55:00     -214.012       14.649      -48.576      114.881      119.347       81.326    13197.695    14243.678     6613.872        4.121        1.703      214.512       61.596        0.082      345.034       22.273      854.272
04/12/2014  14:56:00     -160.866       48.085      -32.132       89.027      119.559       67.169     7925.843    14294.274     4511.613        2.797        1.337      167.899       56.228        0.112      345.198       22.555      854.278
04/12/2014  14:57:00     -203.427      -12.562      -13.762       89.734      116.847       48.441     8052.144    13653.177     2346.527        3.289        1.203      203.815       39.416        0.037      345.448       22.983      854.255
04/12/2014  14:58:00     -202.071      -12.575       -2.151      131.892      125.060       72.279    17395.617    15639.999     5224.229        3.962        1.913      202.462       71.547        0.125      345.733       23.470      854.265
04/12/2014  14:59:00     -292.968     -130.952       -5.057      198.285      140.393       79.734    39316.962    19710.325     6357.574        8.418        3.269      320.902      104.547        0.106      345.656       23.340      854.268
04/12/2014  15:00:00     -158.808       23.977        5.169      103.605       89.174       56.794    10733.979     7951.976     3225.530        2.386        1.096      160.608       36.271        0.051      345.651       23.333      854.254
04/12/2014  15:01:00      -82.064      -12.384        0.307      117.018       90.834       66.968    13693.198     8250.752     4484.737        1.665        1.321       82.993       59.389        0.512      345.857       23.685      854.230
04/12/2014  15:02:00       -7.921       37.765       14.810       70.014       86.415       50.734     4901.937     7467.609     2573.923        0.832        0.747       38.587       40.133        1.082      345.745       23.494      854.205
04/12/2014  15:03:00      -59.704      -44.853      -17.734      149.518       86.090       57.431    22355.635     7411.467     3298.287        1.947        1.653       74.676       42.753        0.328      345.548       23.155      854.169
04/12/2014  15:04:00     -314.774     -185.685       -5.565      207.509      180.790       90.236    43060.152    32685.169     8142.471       10.872        4.194      365.461      112.651        0.095      345.328       22.777      854.152
04/12/2014  15:05:00     -255.932     -196.469        6.912      158.612      127.343       80.254    25157.633    16216.295     6440.725        7.597        2.391      322.647       78.119        0.059      345.287       22.706      854.122
04/12/2014  15:06:00      -84.911       28.281        9.535      122.550      109.199       61.628    15018.423    11924.507     3798.002        1.941        1.537       89.497       55.342        0.382      345.704       23.424      854.122
04/12/2014  15:07:00     -211.667        8.601       -5.774      229.404      161.600       77.332    52626.313    26114.526     5980.161        6.480        4.236      211.842       91.937        0.188      345.699       23.414      854.115
04/12/2014  15:08:00     -433.631      -95.315       -9.849      320.705      152.731       91.397   102851.812    23326.893     8353.414       16.585        6.727      443.983      119.824        0.073      345.328       22.778      854.074
04/12/2014  15:09:00     -187.877     -133.297       -3.954      178.581      194.182       76.486    31891.308    37706.756     5850.037        6.425        3.772      230.360       61.522        0.071      345.354       22.823      854.094
04/12/2014  15:10:00     -373.198     -180.492      -15.755      214.685      189.730       88.783    46089.628    35997.638     7882.416       13.102        4.498      414.553      104.157        0.063      345.363       22.837      854.034
04/12/2014  15:11:00     -199.825     -114.183       13.256      196.798      165.435       98.900    38729.425    27368.772     9781.178        6.450        3.794      230.147      100.414        0.190      345.662       23.349      854.045
04/12/2014  15:12:00     -330.046     -123.174        3.684      198.598      152.280       81.558    39441.049    23189.062     6651.690        9.669        3.464      352.281       96.926        0.076      345.536       23.133      854.036
04/12/2014  15:13:00     -271.236     -125.967       -4.136      166.757      132.857       79.410    27808.002    17650.905     6305.947        7.060        2.588      299.059       88.103        0.087      345.522       23.110      854.041
04/12/2014  15:14:00     -303.770     -105.264       -0.931      214.639      159.879       95.550    46069.686    25561.440     9129.726        9.204        4.038      321.491      113.932        0.126      345.577       23.205      854.060
04/12/2014  15:15:00     -250.212       -9.811      -22.639      110.239       87.112       52.426    12152.633     7588.539     2748.507        4.285        1.124      250.404       43.052        0.030      345.672       23.367      854.069
04/12/2014  15:16:00     -433.552      -57.160      -42.274      184.237      127.860       74.017    33943.304    16348.245     5478.463       12.438        2.789      437.303       79.690        0.033      345.262       22.665      854.063
04/12/2014  15:17:00     -334.477       24.032      -45.831      170.999      159.117       70.593    29240.688    25318.126     4983.417        8.704        2.977      335.340       62.158        0.034      345.261       22.663      854.027
04/12/2014  15:18:00     -373.619     -164.274      -23.183      213.692      169.107       93.003    45664.260    28597.010     8649.493       12.500        4.146      408.139       87.883        0.046      345.228       22.606      853.972
04/12/2014  15:19:00     -525.671     -245.142      -17.910      253.662      198.411       93.402    64344.370    39366.963     8723.927       22.457        5.622      580.021      109.489        0.036      345.352       22.818      853.959
04/12/2014  15:20:00     -354.236        4.186       -1.030      267.500      169.425       95.382    71556.086    28704.841     9097.700       11.741        5.468      354.260      132.659        0.140      345.711       23.435      853.998
04/12/2014  15:21:00     -283.287       79.774      -46.758      104.988      128.237       59.200    11022.449    16444.855     3504.601        5.988        1.549      294.305       25.329        0.007      345.635       23.301      854.048
04/12/2014  15:22:00     -224.410        0.625      -17.757      122.091       91.351       59.415    14906.309     8345.086     3530.133        3.872        1.339      224.411       64.633        0.083      345.683       23.386      854.021
04/12/2014  15:23:00     -500.267     -144.464      -37.914      213.565      171.880      101.596    45610.113    29542.894    10321.771       17.901        4.274      520.708      114.601        0.048      345.385       22.875      854.009
04/12/2014  15:24:00     -367.547       -6.914      -33.096      179.803      119.355       72.558    32329.298    14245.530     5264.690        9.403        2.592      367.612       88.904        0.058      345.307       22.741      854.016
04/12/2014  15:25:00     -204.976      -47.566        1.307      216.872      134.016       81.825    47033.621    17960.349     6695.333        5.797        3.584      210.423       79.508        0.143      345.674       23.372      853.962
04/12/2014  15:26:00     -506.587      -21.588      -33.228      237.442      134.747       83.784    56378.704    18156.643     7019.794       16.986        4.078      507.046      116.896        0.053      345.262       22.662      854.012
04/12/2014  15:27:00     -357.569     -157.404      -12.718      195.920      141.781       92.273    38384.510    20101.726     8514.229       10.988        3.350      390.681       90.489        0.054      345.231       22.608      853.985
04/12/2014  15:28:00     -366.545     -119.302      -18.762      115.937      117.420       66.186    13441.353    13787.475     4380.598        9.027        1.580      385.471       55.362        0.021      345.341       22.798      854.015
04/12/2014  15:29:00     -115.700      -91.586       32.712      172.663      127.575       73.503    29812.578    16275.385     5402.652        3.716        2.575      147.562       93.184        0.399      345.663       23.353      853.990
04/12/2014  15:30:00     -194.877     -162.287       -3.228      150.641      122.148       83.888    22692.677    14920.088     7037.273        5.448        2.233      253.602       72.219        0.081      345.485       23.046      853.963
04/12/2014  15:31:00     -590.648      -88.407      -40.871      331.793      145.677       94.721   110086.902    21221.775     8972.029       24.929        7.014      597.228      142.261        0.057      345.406       22.909      853.973
04/12/2014  15:32:00     -607.323      -60.681      -45.021      246.636      194.497       94.333    60829.389    37829.253     8898.684       24.103        5.378      610.347      102.823        0.028      345.151       22.476      853.937
04/12/2014  15:33:00     -400.372      -76.351      -12.794      243.576      133.401       83.376    59329.326    17795.705     6951.618       12.517        4.204      407.587      106.485        0.068      345.462       23.008      853.890
04/12/2014  15:34:00     -264.329     -236.929       15.103      207.921      143.643      103.691    43231.215    20633.265    10751.756       10.041        3.731      354.972      124.952        0.124      345.421       22.935      853.896
04/12/2014  15:35:00     -374.731     -152.882      -12.355      179.567      151.439       76.302    32244.203    22933.761     5822.066       11.246        3.050      404.718       80.659        0.040      345.136       22.447      853.861
04/12/2014  15:36:00     -502.009     -118.501      -25.172      226.989      214.924      101.229    51523.879    46192.136    10247.294       18.730        5.398      515.806      107.639        0.044      345.412       22.920      853.839
04/12/2014  15:37:00     -387.703     -192.505      -10.382      212.775      201.572       98.694    45273.292    40631.454     9740.442       14.154        4.782      432.865       99.584        0.053      345.516       23.098      853.874
04/12/2014  15:38:00     -357.202     -324.340      -22.872      261.063      166.485      110.481    68153.699    27717.150    12206.005       17.067        5.404      482.483      127.722        0.070      345.276       22.689      853.887
04/12/2014  15:39:00     -322.623     -211.170        1.662      217.527      168.630       83.708    47318.043    28436.220     7007.045       11.570        4.138      385.589       96.522        0.063      345.255       22.650      853.879
04/12/2014  15:40:00     -351.709     -181.875        0.442      179.028      143.256       83.275    32051.117    20522.368     6934.768       10.813        2.975      395.952       86.247        0.047      345.329       22.777      853.854
04/12/2014  15:41:00     -436.344     -287.319      -31.868      186.675      190.672      106.214    34847.445    36355.663    11281.480       17.821        4.124      522.445       98.143        0.035      345.243       22.632      853.862
04/12/2014  15:42:00     -211.604     -200.019        9.870      192.675      185.699      101.830    37123.818    34484.215    10369.384        8.341        4.099      291.177      127.283        0.191      345.390       22.883      853.869
04/12/2014  15:43:00     -374.725     -227.941      -17.737      173.872      196.349       86.785    30231.498    38553.025     7531.551       13.449        3.816      438.607       83.570        0.036      345.274       22.684      853.853
04/12/2014  15:44:00     -216.957      -82.349       12.700      140.860      130.687       61.419    19841.493    17078.966     3772.322        4.734        2.035      232.060       69.688        0.090      345.776       23.545      853.837
04/12/2014  15:45:00     -266.892      -49.991        1.585      202.796      114.772       67.457    41126.404    13172.683     4550.485        6.628        2.942      271.533       71.041        0.068      345.766       23.528      853.837
04/12/2014  15:46:00     -607.821     -114.677      -18.443      255.454      158.062       97.044    65256.980    24983.719     9417.535       24.128        4.983      618.545      114.345        0.034      345.280       22.693      853.802
04/12/2014  15:47:00     -196.720      -76.546       19.186      196.133      146.687       75.428    38467.959    21517.195     5689.444        5.529        3.284      211.087       95.321        0.204      345.670       23.365      853.848
04/12/2014  15:48:00     -502.504     -109.278      -27.164      217.467      172.901       97.634    47291.684    29894.705     9532.463       17.594        4.336      514.249      111.045        0.047      345.339       22.795      853.831
04/12/2014  15:49:00     -349.605     -124.375      -20.902      211.617      134.547       78.839    44781.692    18102.803     6215.655       10.360        3.455      371.070       88.362        0.057      345.509       23.087      853.844
04/12/2014  15:50:00     -350.911     -232.397      -10.499      208.118      193.462       96.297    43313.238    37427.586     9273.133       13.362        4.501      420.889      107.329        0.065      345.313       22.751      853.812
04/12/2014  15:51:00     -487.822     -346.844      -20.454      257.570      180.559      102.345    66342.197    32601.727    10474.501       23.403        5.471      598.557       98.479        0.027      344.947       22.124      853.785
04/12/2014  15:52:00     -358.258     -215.168      -17.832      180.712      177.455       89.867    32656.877    31490.390     8076.118       12.358        3.611      417.906       94.427        0.051      345.158       22.485      853.801
04/12/2014  15:53:00     -338.926     -170.798        2.013      161.626      179.720       84.387    26122.933    32299.119     7121.189       10.478        3.277      379.529       79.217        0.044      345.221       22.593      853.795
04/12/2014  15:54:00     -304.146     -209.333      -10.686      195.613      154.010       96.827    38264.430    23718.938     9375.472       10.388        3.568      369.222      107.593        0.085      345.353       22.818      853.834
04/12/2014  15:55:00     -236.510     -160.936       24.105      217.016      154.067       93.980    47096.114    23736.765     8832.154        8.103        3.983      286.072      102.548        0.129      345.497       23.068      853.839
04/12/2014  15:56:00     -429.137      -26.111       -7.519      296.165      202.298      108.176    87713.637    40924.571    11701.980       16.259        7.017      429.931      125.838        0.086      345.402       22.904      853.857
04/12/2014  15:57:00     -434.071     -178.128      -26.325      209.992      175.687      101.097    44096.634    30865.854    10220.697       15.299        4.259      469.199      103.190        0.048      345.015       22.240      853.842
04/12/2014  15:58:00     -316.043      -98.943      -26.890      146.489      133.681       69.874    21459.164    17870.712     4882.364        7.730        2.211      331.170       68.988        0.043      345.103       22.390      853.823
04/12/2014  15:59:00     -310.508       13.496      -40.014      113.600       83.771       50.324    12904.991     7017.602     2532.471        6.032        1.123      310.801       50.824        0.027      345.168       22.502      853.818
04/12/2014  16:00:00     -365.349      -73.971      -16.852      163.152      173.267       85.950    26618.682    30021.403     7387.481       10.162        3.201      372.762       82.714        0.049      345.555       23.165      853.812
04/12/2014  16:01:00     -525.762     -150.275       -9.339      188.335      197.572       88.954    35470.228    39034.644     7912.812       19.074        4.121      546.816       92.242        0.028      345.504       23.078      853.838
04/12/2014  16:02:00     -413.871     -106.780      -11.259      213.011      177.888       84.629    45373.485    31644.105     7162.070       13.348        4.209      427.424       88.214        0.043      345.403       22.906      853.865
04/12/2014  16:03:00     -334.994      105.283      -24.337      191.496      173.073       93.707    36670.659    29954.320     8781.090        9.964        3.770      351.148      103.168        0.086      345.247       22.638      853.800
04/12/2014  16:04:00     -281.152      -86.912        7.943      195.304      201.624       84.949    38143.582    40652.337     7216.359        8.632        4.301      294.279       92.095        0.098      345.522       23.109      853.811
04/12/2014  16:05:00     -155.387     -127.442       -0.243      155.625      118.896       82.398    24219.050    14136.159     6789.420        4.276        2.257      200.964       75.869        0.143      345.715       23.440      853.810
04/12/2014  16:06:00     -411.867     -104.087      -10.836      247.470      157.967       91.306    61241.309    24953.503     8336.760       13.754        4.727      424.816      124.722        0.086      345.750       23.500      853.801
04/12/2014  16:07:00     -409.085     -128.101       -1.902      291.453      203.848      110.863    84945.075    41554.023    12290.581       16.125        6.939      428.673      125.849        0.086      345.441       22.970      853.792
04/12/2014  16:08:00     -415.108     -129.135      -12.335      204.751      175.705       85.182    41922.798    30872.287     7256.042       13.458        4.003      434.730       93.453        0.046      345.387       22.877      853.779
04/12/2014  16:09:00     -353.959     -199.971       -3.011      247.378      182.207       94.459    61196.038    33199.234     8922.438       13.428        5.166      406.541      101.684        0.063      345.329       22.779      853.767
04/12/2014  16:10:00     -477.554     -197.874      -33.369      157.884      192.381       88.791    24927.239    37010.320     7883.878       16.906        3.491      516.925       77.448        0.022      345.446       22.980      853.753
04/12/2014  16:11:00     -272.146     -117.809        1.679      236.278      127.337       73.988    55827.467    16214.779     5474.160        8.272        3.876      296.550       85.713        0.084      345.378       22.862      853.796
04/12/2014  16:12:00     -551.434     -139.159      -34.650      189.637      135.161       81.856    35962.038    18268.398     6700.392       19.278        3.047      568.722       72.761        0.016      345.140       22.454      853.818
04/12/2014  16:13:00     -331.394     -114.977      -13.803      134.676      133.965       69.479    18137.739    17946.495     4827.292        8.206        2.046      350.773       61.506        0.031      345.396       22.893      853.799
04/12/2014  16:14:00     -288.144      -68.392      -11.360      146.466      117.331       69.111    21452.150    13766.566     4776.270        6.391        2.000      296.149       76.418        0.067      345.614       23.266      853.803
04/12/2014  16:15:00     -254.043       16.261       -7.486      155.696      105.856       73.433    24241.180    11205.421     5392.345        5.284        2.042      254.563       65.223        0.066      345.593       23.230      853.819
04/12/2014  16:16:00     -338.456      -90.432       -6.497      204.629      133.036       70.306    41873.175    17698.463     4942.980        9.363        3.226      350.329       90.846        0.067      345.613       23.267      853.820
04/12/2014  16:17:00     -415.529     -218.455      -29.320      268.755      189.538       98.068    72229.246    35924.772     9617.317       16.949        5.889      469.454       95.513        0.041      345.206       22.568      853.789
04/12/2014  16:18:00     -222.477      -80.303        2.152      170.529      175.051       73.666    29080.108    30642.732     5426.753        6.054        3.257      236.526       60.213        0.065      345.436       22.962      853.804
04/12/2014  16:19:00     -230.147     -146.055       22.033      235.082      181.996      102.206    55263.653    33122.693    10445.995        8.679        4.942      272.580      128.245        0.221      345.211       22.577      853.774
04/12/2014  16:20:00     -239.446      -69.199       -0.869      182.138      152.239       77.789    33174.346    23176.811     6051.168        6.225        3.120      249.244       84.081        0.114      345.275       22.685      853.774
04/12/2014  16:21:00     -261.609      -71.090      -15.547      153.954      120.776       65.260    23701.944    14586.934     4258.901        5.813        2.127      271.096       72.559        0.072      345.553       23.162      853.761
04/12/2014  16:22:00     -244.570      -90.592       17.766      214.891      170.051       96.996    46178.259    28917.356     9408.290        7.640        4.225      260.809      100.219        0.148      345.584       23.216      853.753
04/12/2014  16:23:00     -517.111     -188.794      -38.543      336.246      183.204       91.223   113061.199    33563.715     8321.592       22.971        7.747      550.497       97.936        0.032      344.997       22.210      853.756
04/12/2014  16:24:00     -240.092     -188.522        2.641      191.261      153.749      102.594    36580.761    23638.658    10525.535        8.195        3.537      305.262      104.738        0.118      345.252       22.647      853.742
04/12/2014  16:25:00     -330.115     -336.678      -10.804      252.849      181.173      133.729    63932.554    32823.673    17883.330       16.852        5.732      471.517      129.484        0.075      345.072       22.337      853.726
04/12/2014  16:26:00     -349.944     -226.545        7.239      251.073      153.225      103.416    63037.500    23477.796    10694.839       13.550        4.861      416.873      132.476        0.101      344.974       22.170      853.726
04/12/2014  16:27:00     -437.802     -206.413       -8.714      225.692      231.541      112.702    50936.781    53611.234    12701.820       17.578        5.862      484.022      114.215        0.056      344.956       22.141      853.717
04/12/2014  16:28:00     -370.168      -82.102       -5.491      256.039      153.984       83.338    65556.023    23711.174     6945.173       11.998        4.811      379.164       94.609        0.062      345.164       22.495      853.723
04/12/2014  16:29:00     -528.508      -68.135      -56.240      198.266      134.544       83.008    39309.262    18102.099     6890.250       17.570        3.215      532.882       94.099        0.031      345.027       22.262      853.725
04/12/2014  16:30:00     -228.025     -207.672        4.610      188.115      104.266       75.361    35387.386    10871.394     5679.314        7.353        2.597      308.420       82.594        0.072      345.094       22.375      853.680
04/12/2014  16:31:00     -257.362       37.254        0.691      242.599      147.820       91.544    58854.279    21850.759     8380.379        7.834        4.454      260.044      106.086        0.166      345.283       22.700      853.681
04/12/2014  16:32:00     -277.093       -6.355       16.086      235.531      192.989      108.622    55474.956    37244.762    11798.779        9.078        5.226      277.166      116.469        0.177      345.400       22.900      853.686
04/12/2014  16:33:00     -434.905      -67.704      -26.802      194.526      128.628       82.419    37840.313    16545.235     6792.902       12.780        3.059      440.144       94.058        0.046      345.184       22.529      853.689
04/12/2014  16:34:00     -290.494      -74.512      -26.562      136.131      111.275       76.209    18531.582    12382.031     5807.798        6.368        1.836      299.898       68.652        0.052      345.232       22.613      853.651
04/12/2014  16:35:00     -348.102     -258.173       -7.732      216.671      164.920      103.070    46946.328    27198.533    10623.466       13.631        4.238      433.391      107.907        0.062      345.220       22.592      853.657
04/12/2014  16:36:00     -402.811     -107.810      -17.895      217.915      186.731       86.593    47486.739    34868.432     7498.433       13.201        4.493      416.989       96.077        0.053      345.060       22.318      853.668
04/12/2014  16:37:00     -258.773     -227.431        4.279      169.050      160.706       81.706    28577.844    25826.568     6675.834        8.988        3.054      344.512       72.947        0.045      345.116       22.412      853.621
04/12/2014  16:38:00     -228.981      -45.713        2.259      154.497      135.442       77.393    23869.248    18344.543     5989.629        5.136        2.410      233.499       73.005        0.098      345.439       22.967      853.638
04/12/2014  16:39:00     -598.190     -169.238      -39.868      294.370      207.450      117.194    86653.860    43035.646    13734.448       26.571        7.171      621.669      146.756        0.056      345.198       22.553      853.650
04/12/2014  16:40:00     -419.816     -172.860       19.997      265.475      237.228      108.555    70477.220    56277.192    11784.129       17.250        6.927      454.011      124.295        0.075      345.194       22.548      853.654
04/12/2014  16:41:00     -389.933     -162.565       -4.950      220.769      191.102       97.098    48738.811    36519.902     9427.996       13.657        4.734      422.463      104.687        0.061      345.110       22.402      853.650
04/12/2014  16:42:00     -255.903     -104.894      -26.792      217.651      133.095       90.599    47372.022    17714.343     8208.251        7.524        3.665      276.566      111.880        0.164      345.329       22.779      853.698
04/12/2014  16:43:00     -372.611     -191.181      -32.259      170.981      134.881       88.715    29234.667    18192.958     7870.270       11.585        2.765      418.795       76.128        0.033      345.093       22.374      853.689
04/12/2014  16:44:00     -496.824     -317.274       -9.396      297.299      186.167      121.503    88386.879    34658.208    14763.044       24.267        6.890      589.488      143.618        0.059      344.930       22.095      853.572
04/12/2014  16:45:00     -535.304     -302.196       -7.435      310.097      220.182      119.890    96160.238    48480.122    14373.620       26.844        7.951      614.714      151.383        0.061      344.918       22.074      853.591
04/12/2014  16:46:00     -355.096     -164.559       -4.086      195.418      178.219       82.242    38188.221    31761.834     6763.725       11.494        3.836      391.373       93.654        0.057      345.140       22.454      853.629
04/12/2014  16:47:00     -407.360     -199.764       -4.128      243.191      156.274       92.841    59141.755    24421.551     8619.526       14.901        4.609      453.704      109.654        0.058      345.221       22.592      853.669
04/12/2014  16:48:00     -290.872      -86.711        5.423      179.760      178.980       91.407    32313.478    32033.795     8355.316        8.241        3.635      303.522       88.218        0.084      345.304       22.737      853.658
04/12/2014  16:49:00     -362.265     -249.035      -10.902      198.592      169.782       85.766    39438.919    28826.053     7355.725       13.448        3.781      439.607      106.570        0.059      345.062       22.322      853.648
04/12/2014  16:50:00     -525.159     -281.345      -36.074      172.267      196.660       92.795    29676.032    38675.209     8610.862       21.659        3.848      595.774       80.748        0.018      344.943       22.117      853.640
04/12/2014  16:51:00     -373.752     -176.784        1.979      169.883      144.976       85.066    28860.306    21018.068     7236.227       11.402        2.856      413.453       92.786        0.050      345.105       22.392      853.672
04/12/2014  16:52:00     -407.020       45.485      -24.223      173.307      167.890       95.369    30035.145    28187.173     9095.266       11.781        3.366      409.553       68.913        0.028      345.264       22.667      853.677
04/12/2014  16:53:00     -521.820     -214.804      -28.495      219.483      222.991      104.228    48172.925    49724.827    10863.500       21.398        5.438      564.302      106.938        0.036      344.831       21.925      853.656
04/12/2014  16:54:00     -527.704      -66.269      -39.235      225.869      223.236       84.714    51016.984    49834.483     7176.482       19.619        5.401      531.849       92.807        0.030      345.106       22.396      853.630
04/12/2014  16:55:00     -433.759      -44.286      -22.969      304.793      170.009       99.683    92898.521    28902.899     9936.774       16.116        6.587      436.013      128.750        0.087      345.044       22.290      853.627
04/12/2014  16:56:00     -549.858     -109.667      -18.333      262.077      196.445      119.568    68684.499    38590.803    14296.529       21.811        6.079      560.688      131.625        0.055      344.923       22.083      853.660
04/12/2014  16:57:00     -521.684     -103.346      -24.903      243.268      194.031      107.074    59179.320    37648.063    11464.927       19.585        5.415      531.822      109.082        0.042      344.877       22.004      853.676
04/12/2014  16:58:00     -287.782     -135.584        2.384      189.573      167.360       99.358    35938.063    28009.275     9872.095        8.750        3.691      318.122       85.746        0.073      345.039       22.283      853.671
04/12/2014  16:59:00     -403.902     -192.685      -12.497      217.390      168.001       90.665    47258.502    28224.211     8220.065       14.205        4.185      447.509       82.034        0.034      344.925       22.086      853.666
04/12/2014  17:00:00     -312.743      -44.222       -4.242      214.811      179.578       78.012    46143.748    32248.131     6085.875        9.211        4.224      315.854       82.761        0.069      344.979       22.180      853.675
04/12/2014  17:01:00     -337.879     -120.268      -18.612      191.973      157.052       68.533    36853.763    24665.377     4696.837        9.758        3.311      358.646       60.840        0.029      345.109       22.401      853.652
04/12/2014  17:02:00     -254.862     -194.995       33.564      233.463      139.465       93.240    54505.069    19450.553     8693.728        9.336        4.132      320.901      106.916        0.111      344.995       22.207      853.648
04/12/2014  17:03:00     -470.091     -149.138      -18.120      277.483      164.455       91.120    76996.966    27045.545     8302.910       17.793        5.617      493.181      112.913        0.052      344.974       22.171      853.665
04/12/2014  17:04:00     -262.599     -242.698        6.187      174.740      165.618       96.256    30534.079    27429.400     9265.251        9.755        3.361      357.576       95.227        0.071      345.012       22.236      853.687
04/12/2014  17:05:00     -264.019      -95.624      -13.552      149.627      168.427       79.617    22388.096    28367.804     6338.933        6.805        2.855      280.802       70.156        0.062      345.140       22.455      853.685
04/12/2014  17:06:00     -437.101     -209.781      -17.532      174.957      176.845       86.717    30610.020    31274.072     7519.804       15.237        3.470      484.836       90.800        0.035      344.960       22.147      853.685
04/12/2014  17:07:00     -488.027     -114.543       -1.591      299.416      218.384      108.393    89650.095    47691.511    11749.069       20.016        7.455      501.288      125.370        0.063      344.968       22.160      853.661
04/12/2014  17:08:00     -467.036     -124.594      -15.244      270.005      220.347      102.666    72902.698    48552.977    10540.317       18.291        6.600      483.370      127.166        0.069      344.949       22.128      853.683
04/12/2014  17:09:00     -610.382       34.910      -56.175      278.002      202.210      103.969    77285.141    40888.922    10809.528       25.294        6.449      611.380      115.883        0.036      344.907       22.055      853.683
04/12/2014  17:10:00     -502.623     -183.746      -12.686      203.121      151.913       84.693    41258.081    23077.592     7172.980       17.902        3.575      535.156       82.367        0.024      344.858       21.972      853.676
04/12/2014  17:11:00     -475.605      -26.834      -14.943      133.711      193.755       73.697    17878.699    37541.146     5431.197       14.398        3.043      476.361       56.457        0.014      344.800       21.871      853.688
04/12/2014  17:12:00     -268.649      -70.210        4.078      169.524      196.209       84.981    28738.449    38497.930     7221.811        7.577        3.723      277.672       62.329        0.050      345.005       22.223      853.683
04/12/2014  17:13:00     -234.928     -116.853        6.399      195.028      148.886       82.119    38036.081    22167.135     6743.538        6.790        3.347      262.385       88.435        0.114      345.115       22.412      853.701
04/12/2014  17:14:00     -540.284     -357.224      -16.956      296.743      269.636      144.427    88056.346    72703.366    20859.215       30.068        9.081      647.701      157.395        0.059      344.733       21.756      853.617
04/12/2014  17:15:00     -365.196     -256.440        2.965      287.022      242.975      134.286    82381.734    59037.018    18032.700       17.926        7.973      446.240      147.612        0.109      344.947       22.124      853.581
04/12/2014  17:16:00     -535.208     -350.465       -6.576      231.595      188.855      106.759    53636.434    35666.196    11397.503       25.499        5.035      639.745      115.639        0.033      344.875       22.000      853.594
04/12/2014  17:17:00     -288.472      -63.906       18.269      206.577      176.014      106.797    42674.108    30981.047    11405.630        8.633        4.253      295.465       98.333        0.111      345.036       22.276      853.635
04/12/2014  17:18:00     -351.567     -140.178       15.164      195.123      166.606      109.873    38072.868    27757.696    12072.028       11.068        3.895      378.482      102.684        0.074      344.956       22.140      853.660
04/12/2014  17:19:00     -210.575     -149.538        8.374      158.774      152.715       77.308    25209.068    23321.799     5976.517        6.063        2.725      258.270       88.160        0.117      344.969       22.163      853.675
04/12/2014  17:20:00     -337.984     -180.135        1.369      223.480      179.524      101.914    49943.282    32228.961    10386.376       11.960        4.628      382.990      112.452        0.086      344.876       22.004      853.642
04/12/2014  17:21:00     -278.556     -184.988        3.128      231.067      151.923      104.886    53392.173    23080.592    11001.066        9.963        4.374      334.386      106.222        0.101      344.951       22.131      853.674
04/12/2014  17:22:00     -305.441     -170.628       13.447      277.993      186.390      114.371    77280.197    34741.359    13080.755       12.382        6.255      349.869      137.042        0.153      344.961       22.149      853.662
04/12/2014  17:23:00     -391.021     -223.476       -4.892      255.194      202.866      119.128    65123.797    41154.562    14191.516       16.164        6.023      450.377      140.634        0.098      344.942       22.116      853.658
04/12/2014  17:24:00     -534.753     -224.431      -15.321      273.872      212.278      109.952    75005.821    45061.911    12089.537       23.433        6.608      579.940      122.153        0.044      344.768       21.817      853.690
04/12/2014  17:25:00     -519.377     -146.490      -13.485      278.542      192.607      103.603    77585.681    37097.603    10733.646       20.838        6.271      539.641      115.689        0.046      344.765       21.812      853.696
04/12/2014  17:26:00     -280.832      -22.125        2.746      192.470      136.050       85.274    37044.892    18509.607     7271.654        7.108        3.141      281.702       97.432        0.120      344.992       22.201      853.699
04/12/2014  17:27:00     -329.266     -129.660       -8.068      147.672      138.789       66.424    21807.011    19262.473     4412.196        8.538        2.274      353.875       61.465        0.030      344.926       22.089      853.725
04/12/2014  17:28:00     -409.358     -192.656        8.862      357.875      247.557      131.506   128074.707    61284.653    17293.871       20.567       10.333      452.427      174.858        0.149      344.855       21.968      853.689
04/12/2014  17:29:00     -448.799     -120.257      -15.969      292.771      195.659      107.653    85714.963    38282.614    11589.198       17.583        6.779      464.631      127.939        0.076      344.683       21.672      853.689
04/12/2014  17:30:00     -500.128     -351.370       -3.344      248.577      257.115      120.050    61790.643    66107.922    14412.053       25.793        7.116      611.219      124.662        0.042      344.587       21.508      853.652
04/12/2014  17:31:00     -612.313     -327.293      -23.513      231.209      213.794      106.175    53457.745    45707.772    11273.233       29.650        5.522      694.297      106.642        0.024      344.525       21.402      853.644
04/12/2014  17:32:00     -470.615     -236.229      -18.117      274.715      175.804      112.399    75468.374    30907.005    12633.496       19.829        5.950      526.576      125.701        0.057      344.614       21.554      853.666
04/12/2014  17:33:00     -431.468     -124.181      -14.307      200.086      179.033       96.701    40034.484    32052.780     9351.045       14.160        4.072      448.982      110.835        0.061      344.657       21.627      853.689
04/12/2014  17:34:00     -557.713     -230.248      -21.371      227.923      297.730      116.665    51948.970    88642.913    13610.609       25.933        7.710      603.372      114.918        0.036      344.620       21.562      853.682
04/12/2014  17:35:00     -609.635     -147.405      -27.423      383.273      211.773      122.175   146898.556    44847.773    14926.614       30.036       10.334      627.202      183.599        0.086      344.537       21.423      853.648
04/12/2014  17:36:00     -255.731     -115.802       31.172      246.364      202.360      106.655    60695.156    40949.731    11375.238        9.638        5.651      280.728      123.228        0.193      344.715       21.726      853.664
04/12/2014  17:37:00     -454.880     -285.291        0.532      287.363      185.469      115.594    82577.672    34398.740    13362.032       20.930        6.517      536.942      128.362        0.057      344.648       21.613      853.658
04/12/2014  17:38:00     -592.420     -286.685      -10.928      328.204      242.222      140.561   107717.836    58671.646    19757.415       30.967        9.307      658.141      168.642        0.066      344.519       21.392      853.652
04/12/2014  17:39:00     -442.710     -185.339       -6.191      304.220      290.049      127.433    92549.544    84128.451    16239.179       21.161        9.646      479.940      156.226        0.106      344.524       21.400      853.617
04/12/2014  17:40:00     -519.336     -223.930       13.057      390.164      325.100      133.737   152228.074   105689.744    17885.612       29.786       13.790      565.557      177.016        0.098      344.497       21.355      853.555
04/12/2014  17:41:00     -317.118     -155.566        4.698      194.482      205.693       92.723    37823.406    42309.631     8597.620       10.674        4.437      353.221       90.430        0.066      344.635       21.591      853.585
04/12/2014  17:42:00     -558.811     -292.028      -24.895      295.136      182.958      116.097    87105.384    33473.768    13478.509       26.609        6.703      630.515      137.910        0.048      344.446       21.266      853.568
04/12/2014  17:43:00     -602.238     -432.986      -19.372      295.569      331.118      133.534    87361.311   109638.816    17831.333       38.264       10.742      741.732      166.689        0.051      344.384       21.161      853.561
04/12/2014  17:44:00     -413.684     -243.149      -10.022      289.904      211.848      109.015    84044.560    44879.592    11884.353       18.555        7.040      479.850      132.863        0.077      344.453       21.280      853.602
04/12/2014  17:45:00     -586.887     -356.457      -17.854      301.689      230.709      117.045    91016.117    53226.471    13699.417       31.485        7.897      686.657      131.325        0.037      344.401       21.191      853.611
04/12/2014  17:46:00     -518.135     -196.909       -6.172      225.704      160.125      104.425    50942.134    25639.992    10904.535       19.736        4.374      554.290      103.888        0.035      344.455       21.283      853.629
04/12/2014  17:47:00     -458.418     -217.958       -2.937      243.558      157.616      102.796    59320.743    24842.750    10567.020       17.618        4.737      507.595      115.279        0.052      344.516       21.386      853.636
04/12/2014  17:48:00     -495.821     -312.704      -16.537      282.427      184.998      107.607    79764.992    34224.167    11579.303       23.471        6.278      586.193      125.949        0.046      344.466       21.301      853.605
04/12/2014  17:49:00     -393.777     -277.148        2.085      274.470      207.293      112.991    75333.805    42970.462    12766.913       18.145        6.554      481.530      140.805        0.086      344.360       21.120      853.599
04/12/2014  17:50:00     -526.353     -326.314      -17.446      267.462      202.164      112.470    71536.068    40870.461    12649.605       25.442        6.253      619.297      126.490        0.042      344.306       21.028      853.573
04/12/2014  17:51:00     -359.173     -208.262       -0.972      277.431      226.761      101.197    76967.881    51420.739    10240.845       15.548        6.931      415.185       98.929        0.057      344.459       21.289      853.564
04/12/2014  17:52:00     -541.577     -337.909      -25.151      287.385      254.944      124.221    82590.156    64996.566    15430.918       28.554        8.151      638.348      135.265        0.045      344.284       20.991      853.554
04/12/2014  17:53:00     -472.964     -386.259       -3.978      305.518      272.965      135.631    93340.972    74509.762    18395.712       27.954        9.312      610.648      160.899        0.069      344.358       21.117      853.531
04/12/2014  17:54:00     -568.458     -397.954       -9.736      325.811      240.099      148.655   106152.714    57647.526    22098.382       33.372        9.295      693.911      172.591        0.062      344.302       21.020      853.557
04/12/2014  17:55:00     -491.512     -296.255      -25.297      222.643      200.970      114.489    49570.108    40389.039    13107.791       21.651        5.153      573.891      116.417        0.041      344.336       21.079      853.600
04/12/2014  17:56:00     -559.469     -154.043      -23.393      256.577      219.741      103.441    65831.897    48286.192    10699.962       23.103        6.241      580.289      120.922        0.043      344.363       21.125      853.640
04/12/2014  17:57:00     -313.091     -164.025        7.452      201.928      193.257       84.176    40775.049    37348.410     7085.568       10.508        4.260      353.454      102.391        0.084      344.453       21.279      853.654
04/12/2014  17:58:00     -456.633     -320.072      -21.634      326.958      266.098      127.931   106901.493    70808.149    16366.444       25.271        9.704      557.638      155.897        0.078      344.350       21.103      853.598
04/12/2014  17:59:00     -490.182     -231.436       -0.292      357.647      229.253      134.723   127911.504    52557.096    18150.206       24.619        9.931      542.071      152.760        0.079      344.224       20.889      853.599
04/12/2014  18:00:00     -339.114     -154.545        6.748      188.353      152.124       83.887    35477.017    23141.790     7037.059       10.228        3.283      372.669       85.629        0.053      344.384       21.160      853.636
04/12/2014  18:01:00     -578.293     -258.546      -23.279      245.202      208.793      106.579    60123.985    43594.415    11359.097       25.842        5.754      633.458      116.547        0.034      344.232       20.903      853.631
04/12/2014  18:02:00     -475.610     -292.175        3.853      275.783      210.492      124.813    76056.112    44306.756    15578.389       22.374        6.797      558.186      137.856        0.061      344.222       20.885      853.589
04/12/2014  18:03:00     -506.749     -229.340       -3.318      335.330      221.881       99.770   112446.360    49231.025     9954.045       24.048        8.582      556.229      112.039        0.041      344.203       20.851      853.559
04/12/2014  18:04:00     -334.100     -119.150       15.055      142.677      152.408       83.955    20356.728    23228.152     7048.419        8.833        2.532      354.711       74.519        0.044      344.349       21.103      853.603
04/12/2014  18:05:00     -520.244     -312.245      -20.669      276.814      196.998      110.866    76625.960    38808.271    12291.219       24.813        6.386      606.755      122.127        0.041      344.237       20.909      853.596
04/12/2014  18:06:00     -491.213     -308.987       -3.049      253.994      220.757      112.423    64512.896    48733.548    12638.994       23.130        6.294      580.314      125.220        0.047      344.173       20.801      853.624
04/12/2014  18:07:00     -359.041     -260.901       22.296      276.235      170.109      110.764    76305.699    28937.082    12268.668       15.747        5.876      443.824      136.362        0.094      344.189       20.826      853.621
04/12/2014  18:08:00     -370.131     -182.431        2.227      259.186      233.717      101.672    67177.342    54623.503    10337.265       15.118        6.607      412.648      124.505        0.091      344.232       20.901      853.630
04/12/2014  18:09:00     -332.187      -91.560       15.881      193.993      154.560       90.258    37633.454    23888.899     8146.444        9.431        3.483      344.574      103.386        0.090      344.275       20.974      853.661
04/12/2014  18:10:00     -461.637     -222.963      -15.233      327.643      170.190      109.713   107349.899    28964.596    12037.017       20.567        7.418      512.661      126.217        0.061      344.219       20.879      853.631
04/12/2014  18:11:00     -514.529     -211.837      -17.432      193.466      181.803       94.842    37429.160    33052.214     8994.994       19.468        3.974      556.431       96.972        0.030      344.202       20.850      853.641
04/12/2014  18:12:00     -412.419     -307.703       -6.723      223.409      186.393       99.019    49911.528    34742.341     9804.672       17.962        4.723      514.559      103.102        0.040      344.208       20.859      853.628
04/12/2014  18:13:00     -716.069     -378.059      -18.182      322.026      261.337      143.260   103700.482    68297.285    20523.480       42.423        9.626      809.743      148.662        0.034      344.004       20.513      853.587
04/12/2014  18:14:00     -477.125     -255.085       -6.206      268.514      195.289      109.290    72099.792    38137.602    11944.234       20.744        6.109      541.033      110.982        0.042      344.080       20.643      853.598
04/12/2014  18:15:00     -250.201     -260.959        3.333      231.779      223.979      123.661    53721.581    50166.542    15292.157       12.492        5.959      361.524      129.076        0.127      344.138       20.740      853.586
04/12/2014  18:16:00     -596.250     -265.318      -21.765      320.073      211.880      126.426   102446.863    44893.341    15983.637       29.482        8.166      652.616      142.829        0.048      344.052       20.594      853.566
04/12/2014  18:17:00     -554.949     -229.667      -17.826      240.897      194.207       97.750    58031.433    37716.297     9555.092       23.315        5.265      600.596      112.136        0.035      344.068       20.621      853.591
04/12/2014  18:18:00     -637.560     -166.401      -37.958      210.624      204.528      106.868    44362.330    41831.739    11420.736       26.659        4.881      658.918      102.730        0.024      344.064       20.614      853.604
04/12/2014  18:19:00     -380.632     -169.990        5.741      245.743      151.702      109.619    60389.868    23013.419    12016.237       13.460        4.771      416.866      129.019        0.096      344.101       20.678      853.593
04/12/2014  18:20:00     -649.605      -72.996      -43.903      248.967      223.259      108.862    61984.677    49844.748    11850.919       27.644        6.184      653.694      105.954        0.026      344.035       20.566      853.574
04/12/2014  18:21:00     -516.109     -118.382      -12.307      208.636      212.564      103.753    43529.083    45183.280    10764.640       18.999        4.974      529.512       87.635        0.027      344.090       20.659      853.580
04/12/2014  18:22:00     -348.583     -182.076       20.881      317.464      265.748      140.544   100783.632    70621.949    19752.640       17.309        9.558      393.270      181.832        0.214      344.105       20.684      853.589
04/12/2014  18:23:00     -531.082     -294.708      -16.785      256.908      218.348      125.374    66001.863    47676.051    15718.587       24.926        6.470      607.373      127.916        0.044      344.002       20.510      853.572
04/12/2014  18:24:00     -178.460     -141.586       24.641      253.956      237.034      131.534    64493.857    56184.977    17301.279        9.521        6.899      227.804      151.668        0.443      344.092       20.662      853.619
04/12/2014  18:25:00     -225.660      -88.770       -4.905      184.720      136.580       79.966    34121.508    18654.001     6394.620        5.899        2.959      242.493       76.168        0.099      344.142       20.749      853.629
04/12/2014  18:26:00     -239.659     -169.409        6.464      217.363      161.940       83.948    47246.612    26224.625     7047.258        8.333        4.026      293.489      100.022        0.116      344.157       20.773      853.645
04/12/2014  18:27:00     -415.691     -229.407       -1.390      363.342      228.334      142.406   132017.230    52136.254    20279.605       21.489       10.222      474.791      180.651        0.145      344.063       20.612      853.619
04/12/2014  18:28:00     -348.076     -266.170       -6.165      261.110      184.073      113.514    68178.446    33883.042    12885.375       15.347        5.747      438.182      131.581        0.090      344.007       20.518      853.630
04/12/2014  18:29:00     -343.169     -254.013        5.387      259.767      234.880      134.595    67479.125    55168.423    18115.745       16.151        7.038      426.952      160.637        0.142      343.967       20.449      853.600
04/12/2014  18:30:00     -639.405     -242.998      -39.851      280.127      252.980      121.989    78471.278    63998.918    14881.346       31.338        7.868      684.023      125.754        0.034      343.914       20.358      853.612
04/12/2014  18:31:00     -388.325     -160.159       -7.110      244.154      206.154      103.459    59611.357    42499.622    10703.797       14.463        5.641      420.056      115.845        0.076      343.958       20.434      853.640
04/12/2014  18:32:00     -421.794     -329.456       -2.097      288.387      229.696      137.734    83167.323    52760.096    18970.704       22.065        7.745      535.212      160.237        0.090      343.910       20.352      853.610
04/12/2014  18:33:00     -388.881     -156.122       -1.587      237.226      201.602      114.930    56276.166    40643.268    13209.011       14.284        5.506      419.050      123.805        0.087      343.955       20.428      853.632
04/12/2014  18:34:00     -447.105     -328.605       -9.037      240.723      218.930      115.152    57947.567    47930.529    13259.870       21.353        5.957      554.873      134.961        0.059      343.883       20.307      853.606
04/12/2014  18:35:00     -583.051     -138.667      -37.379      278.479      185.641       90.604    77550.481    34462.725     8209.019       24.037        6.011      599.314       99.497        0.028      343.913       20.357      853.661
04/12/2014  18:36:00     -510.085     -159.521      -15.569      321.173      268.439      108.380   103152.094    72059.334    11746.303       23.638        9.348      534.447      161.632        0.091      343.895       20.326      853.666
04/12/2014  18:37:00     -642.892     -176.601      -37.508      342.719      206.807      129.222   117456.633    42769.183    16698.311       31.138        8.846      666.707      148.497        0.050      343.809       20.179      853.660
04/12/2014  18:38:00     -573.704     -197.761      -33.536      289.858      209.203      120.269    84017.819    43765.806    14464.575       25.578        7.112      606.833      145.506        0.057      343.823       20.203      853.687
04/12/2014  18:39:00     -375.120     -157.013       -5.360      364.460      159.950      120.812   132830.795    25584.059    14595.465       16.917        8.651      406.655      172.671        0.180      343.830       20.214      853.711
04/12/2014  18:40:00     -646.174     -299.615      -41.027      248.451      205.946      107.035    61727.804    42413.849    11456.471       31.227        5.780      712.257      106.057        0.022      343.787       20.143      853.731
04/12/2014  18:41:00     -404.546     -156.282       20.353      356.487      223.742      118.096   127082.651    50060.560    13946.600       18.975        9.554      433.684      156.402        0.130      343.791       20.149      853.728
04/12/2014  18:42:00     -495.362     -140.686      -30.016      233.472      196.828       94.888    54508.992    38741.433     9003.693       18.415        5.113      514.953       98.771        0.037      343.817       20.193      853.740
04/12/2014  18:43:00     -627.995     -271.701      -48.237      289.271      262.593      128.149    83677.429    68954.978    16422.085       31.976        8.453      684.251      138.928        0.041      343.717       20.020      853.736
04/12/2014  18:44:00     -584.304     -202.128      -22.907      317.681      212.964      123.116   100921.225    45353.494    15157.488       27.208        8.072      618.277      150.303        0.059      343.707       20.004      853.736
04/12/2014  18:45:00     -402.363     -294.509      -12.114      209.607      191.821      110.274    43935.168    36795.400    12160.409       17.082        4.645      498.630      108.989        0.048      343.730       20.043      853.766
04/12/2014  18:46:00     -586.418     -151.050      -11.224      405.084      185.993      105.662   164093.419    34593.307    11164.438       28.830       10.493      605.559      127.633        0.044      343.743       20.067      853.759
04/12/2014  18:47:00     -700.706     -134.862      -28.275      327.898      223.813      121.553   107517.276    50092.208    14775.077       34.115        8.619      713.566      145.000        0.041      343.659       19.924      853.786
04/12/2014  18:48:00     -544.411      -75.249      -23.183      259.787      253.347      102.762    67489.039    64184.527    10559.990       22.238        7.112      549.587      113.871        0.043      343.669       19.941      853.820
04/12/2014  18:49:00     -552.026     -200.441      -29.795      254.317      267.564      117.928    64677.055    71590.502    13906.984       24.796        7.509      587.289      126.803        0.047      343.662       19.927      853.810
04/12/2014  18:50:00     -345.895     -133.900       30.716      281.590      248.484      113.646    79293.093    61744.509    12915.465       14.620        7.698      370.908      154.250        0.173      343.685       19.967      853.828
04/12/2014  18:51:00     -415.621     -210.985       -5.113      303.234      233.765      118.192    91951.129    54646.293    13969.450       18.889        8.028      466.107      136.257        0.085      343.652       19.913      853.848
04/12/2014  18:52:00     -535.469     -277.483      -27.455      299.969      200.928      115.086    89981.183    40371.875    13244.779       25.401        7.180      603.096      140.256        0.054      343.626       19.866      853.855
04/12/2014  18:53:00     -426.623     -108.515      -10.660      214.988      172.250       97.200    46219.626    29669.987     9447.827       13.960        4.267      440.207      103.507        0.055      343.633       19.879      853.898
04/12/2014  18:54:00     -321.206      -59.202       23.051      199.836      167.399       95.552    39934.309    28022.324     9130.235        9.213        3.854      326.616       87.170        0.071      343.671       19.945      853.943
04/12/2014  18:55:00     -318.322     -229.932       11.051      226.504      169.788      113.636    51304.065    28827.928    12913.123       12.366        4.652      392.680      125.375        0.102      343.625       19.865      853.953
04/12/2014  18:56:00     -406.236     -169.613       -4.953      306.506      219.738      118.303    93946.077    48284.695    13995.701       17.499        7.811      440.223      135.012        0.094      343.575       19.780      853.945
04/12/2014  18:57:00     -493.820     -132.451      -32.138      316.736      223.009      127.287   100321.487    49733.066    16202.074       21.431        8.313      511.274      138.531        0.073      343.597       19.816      853.968
04/12/2014  18:58:00     -516.840     -270.666      -26.095      255.953      256.080      120.160    65511.982    65577.200    14438.509       24.327        7.276      583.424      128.069        0.048      343.528       19.700      853.984
04/12/2014  18:59:00     -282.553     -128.460        5.976      224.585      202.103       92.518    50438.399    40845.468     8559.636        9.809        4.992      310.384       91.821        0.088      343.588       19.803      854.014
04/12/2014  19:00:00     -500.356     -152.024        1.186      267.565      239.912      127.608    71590.783    57558.005    16283.711       20.942        7.272      522.941      139.269        0.071      343.483       19.623      854.030
04/12/2014  19:01:00     -563.517     -145.671      -24.862      247.330      204.825      102.414    61172.185    41953.331    10488.720       22.648        5.681      582.041      107.630        0.034      343.465       19.593      854.032
04/12/2014  19:02:00     -523.556      -10.944      -25.023      244.237      147.354       92.229    59651.512    21713.296     8506.152       18.235        4.494      523.671      103.767        0.039      343.459       19.580      854.067
04/12/2014  19:03:00     -316.872     -191.124       -1.438      169.854      162.840       84.581    28850.236    26516.807     7153.994        9.972        3.126      370.049       82.303        0.049      343.529       19.701      854.065
04/12/2014  19:04:00     -419.946     -215.967        4.803      254.219      167.276      110.011    64627.267    27981.137    12102.477       16.384        5.236      472.225      117.852        0.062      343.502       19.654      854.055
04/12/2014  19:05:00     -511.820     -248.622      -11.766      288.038      258.745      143.325    82965.754    66948.997    20542.193       24.715        8.523      569.010      154.326        0.074      343.414       19.508      854.017
04/12/2014  19:06:00     -478.105     -126.703      -23.669      269.641      165.165      104.523    72706.495    27279.611    10925.029       17.803        5.546      494.609      111.905        0.051      343.421       19.518      854.063
04/12/2014  19:07:00     -446.900     -148.980      -23.441      213.781      177.362       91.302    45702.392    31457.158     8336.062       15.396        4.275      471.079       95.656        0.041      343.423       19.521      854.081
04/12/2014  19:08:00     -414.848     -175.105      -11.715      274.421      200.442      108.645    75307.005    40177.047    11803.787       16.507        6.364      450.289      119.924        0.071      343.407       19.494      854.096
04/12/2014  19:09:00     -788.847      -70.753      -49.280      267.724      203.576      132.248    71676.115    41443.187    17489.513       38.014        6.530      792.014      148.915        0.035      343.317       19.341      854.122
04/12/2014  19:10:00     -631.242     -144.909      -30.672      248.325      233.253      108.381    61665.422    54406.854    11746.530       27.409        6.391      647.661      116.637        0.032      343.319       19.344      854.136
04/12/2014  19:11:00     -335.744     -181.483      -17.991      263.858      197.632      111.585    69621.204    39058.601    12451.130       13.353        6.057      381.655      133.644        0.123      343.368       19.426      854.141
04/12/2014  19:12:00     -411.160     -198.717      -30.972      222.260      178.660       94.782    49399.564    31919.319     8983.536       14.988        4.515      456.663      104.966        0.053      343.320       19.344      854.193
04/12/2014  19:13:00     -448.570     -103.975      -28.470      247.038      258.706      122.654    61027.890    66929.014    15043.919       17.789        7.150      460.463      126.068        0.075      343.292       19.296      854.172
04/12/2014  19:14:00     -385.283     -112.012      -28.367      171.595      188.622       83.232    29444.785    35578.218     6927.504       11.686        3.598      401.235       77.495        0.037      343.304       19.317      854.199
04/12/2014  19:15:00     -350.161      -77.027        0.493      251.171      150.044       95.598    63086.883    22513.287     9139.048       11.162        4.737      358.533      128.322        0.128      343.266       19.253      854.247
04/12/2014  19:16:00     -356.294      -33.117      -22.044      141.220      100.742       72.259    19943.187    10149.044     5221.411        8.191        1.766      357.830       68.730        0.037      343.253       19.229      854.274
04/12/2014  19:17:00     -420.283       17.034      -27.275      217.847      187.628       85.007    47457.233    35204.401     7226.184       13.376        4.494      420.628      102.885        0.060      343.226       19.184      854.268
04/12/2014  19:18:00     -469.679     -127.496        1.000      250.388      181.584       93.362    62693.949    32972.902     8716.406       17.060        5.219      486.676      103.756        0.045      343.206       19.150      854.291
04/12/2014  19:19:00     -314.530      -25.628       -3.237      182.940      124.324       69.210    33467.183    15456.424     4789.975        7.664        2.686      315.572       74.713        0.056      343.205       19.149      854.302
04/12/2014  19:20:00     -590.832     -144.633      -31.970      218.707      221.693      103.500    47832.739    49147.741    10712.184       23.934        5.385      608.277      101.289        0.028      343.145       19.047      854.293
04/12/2014  19:21:00     -468.354      -63.358      -12.956      229.641      227.471      102.889    52735.206    51743.204    10586.194       16.928        5.753      472.620       93.724        0.039      343.129       19.019      854.300
04/12/2014  19:22:00     -561.295      -85.068      -36.174      218.861      136.578      105.095    47900.179    18653.666    11045.036       20.058        3.880      567.705      111.461        0.039      343.109       18.985      854.297
04/12/2014  19:23:00     -374.293      -91.690       -7.488      213.106      182.639      100.117    45414.089    33357.167    10023.505       11.866        4.440      385.360      102.503        0.071      343.114       18.996      854.290
04/12/2014  19:24:00     -478.560      -33.115      -11.909      226.254      177.478       82.967    51190.972    31498.333     6883.501       15.990        4.479      479.704       92.355        0.037      343.096       18.964      854.305
04/12/2014  19:25:00     -573.021     -112.570      -35.575      245.045      217.780       99.557    60047.152    47427.985     9911.694       22.982        5.869      583.974      112.860        0.037      343.073       18.924      854.314
04/12/2014  19:26:00     -364.332      -97.019       -1.755      240.556      152.769       96.212    57867.197    23338.490     9256.759       11.629        4.523      377.029      109.143        0.084      343.081       18.938      854.331
04/12/2014  19:27:00     -427.738       21.523      -16.775      270.566      153.561       91.083    73205.912    23580.999     8296.199       14.437        5.254      428.280      113.412        0.070      343.046       18.879      854.341
04/12/2014  19:28:00     -446.358      -94.135      -32.188      227.194      248.107      106.598    51617.138    61557.072    11363.091       16.681        6.227      456.176      105.342        0.053      343.015       18.825      854.356
04/12/2014  19:29:00     -451.659     -185.707      -12.671      251.463      188.215       89.765    63233.710    35424.720     8057.745       17.266        5.336      488.347      116.543        0.057      343.044       18.874      854.394
04/12/2014  19:30:00     -299.669     -134.343        1.231      240.668      177.319      100.367    57920.932    31442.158    10073.630       10.362        4.972      328.404      118.604        0.130      343.017       18.831      854.396
04/12/2014  19:31:00     -341.247      -86.657       -9.871      248.382      128.286       89.018    61693.498    16457.264     7924.256       10.505        4.304      352.078      104.694        0.088      342.992       18.787      854.412
04/12/2014  19:32:00     -467.728      -69.768      -28.439      194.679      239.547      100.663    37899.954    57382.896    10132.957       16.491        5.271      472.903       89.419        0.036      342.978       18.763      854.431
04/12/2014  19:33:00     -553.389     -301.155      -40.293      252.320      195.459      100.886    63665.231    38204.030    10178.023       25.528        5.602      630.027       96.169        0.023      343.019       18.830      854.416
04/12/2014  19:34:00     -535.077      -72.878      -25.940      183.083      167.417       78.527    33519.367    28028.416     6166.412       17.999        3.386      540.018       85.047        0.025      342.982       18.769      854.462
04/12/2014  19:35:00     -389.021     -129.751      -27.863      213.475      179.743       91.520    45571.787    32307.472     8375.976       12.758        4.313      410.088      102.821        0.063      342.981       18.768      854.486
04/12/2014  19:36:00     -209.784     -119.794       23.905      147.716      182.535       88.240    21819.905    33318.848     7786.365        6.092        3.146      241.578       75.552        0.098      342.964       18.741      854.491
04/12/2014  19:37:00     -210.958      -28.118       24.977      195.806      127.124       93.673    38339.812    16160.595     8774.630        5.458        3.164      212.823       95.753        0.202      342.920       18.666      854.515
04/12/2014  19:38:00     -300.816      -76.799      -18.719      272.834      151.913       98.975    74438.325    23077.672     9796.145       10.200        5.366      310.465      123.907        0.159      342.911       18.649      854.523
04/12/2014  19:39:00     -573.554      -23.242        2.108      259.102      181.206       99.828    67133.882    32835.788     9965.674       21.970        5.497      574.024      118.663        0.043      342.861       18.563      854.555
04/12/2014  19:40:00     -468.245     -142.263       -7.808      245.469      231.583      104.973    60255.131    53630.499    11019.363       18.220        6.245      489.379      123.956        0.064      342.874       18.586      854.562
04/12/2014  19:41:00     -367.228     -215.568      -12.168      226.142      188.087      112.723    51140.237    35376.735    12706.469       14.033        4.961      425.824      112.323        0.070      342.888       18.610      854.564
04/12/2014  19:42:00     -397.185     -184.670      -19.132      165.647      128.417       85.101    27438.775    16490.842     7242.228       12.169        2.559      438.017       81.584        0.035      342.882       18.600      854.608
04/12/2014  19:43:00     -330.394      -89.058      -12.648      181.764      119.290       67.179    33038.104    14230.054     4513.035        8.451        2.589      342.186       61.333        0.032      342.859       18.560      854.624
04/12/2014  19:44:00     -423.397     -114.786      -19.483      175.271      156.502       86.405    30719.822    24492.770     7465.807       12.774        3.134      438.681       87.774        0.040      342.838       18.525      854.632
04/12/2014  19:45:00     -331.805     -169.758       -2.219      184.193      140.246       82.997    33927.175    19668.965     6888.437        9.969        3.024      372.710       80.496        0.047      342.855       18.554      854.614
04/12/2014  19:46:00     -314.839     -174.806        1.974      225.185      211.747      102.007    50708.237    44836.873    10405.504       11.780        5.298      360.112      115.809        0.103      342.815       18.487      854.639
04/12/2014  19:47:00     -396.104     -150.494      -13.127      237.280      179.607       79.712    56301.642    32258.549     6353.997       13.730        4.746      423.730       92.985        0.048      342.813       18.482      854.628
04/12/2014  19:48:00     -377.835      -94.345      -20.071      201.478      150.369       82.136    40593.371    22610.740     6746.332       11.099        3.498      389.435       84.544        0.047      342.817       18.489      854.621
04/12/2014  19:49:00     -340.208     -115.690      -18.386      188.331      144.371       79.482    35468.600    20843.076     6317.454        9.603        3.131      359.341       87.482        0.059      342.786       18.437      854.638
04/12/2014  19:50:00     -371.072     -197.248      -24.342      170.640      174.304       94.138    29118.160    30382.035     8862.004       12.276        3.418      420.239       97.839        0.054      342.792       18.446      854.656
04/12/2014  19:51:00     -409.771     -250.389      -14.286      188.736      168.825      106.450    35621.196    28502.007    11331.696       15.312        3.773      480.215      102.928        0.046      342.792       18.445      854.658
04/12/2014  19:52:00     -458.905     -174.103       -7.659      208.622      122.794       87.025    43523.070    15078.442     7573.376       15.356        3.309      490.822       92.948        0.036      342.794       18.450      854.691
04/12/2014  19:53:00     -300.028     -151.666      -20.613      172.377      170.875       89.457    29713.741    29198.378     8002.524        9.017        3.346      336.184       85.528        0.065      342.776       18.420      854.717
04/12/2014  19:54:00     -369.757     -256.701      -13.309      240.693      205.143      104.225    57933.135    42083.508    10862.944       15.681        5.544      450.128      119.877        0.071      342.772       18.414      854.731
04/12/2014  19:55:00     -412.750      -19.077      -28.422      156.602      185.466       75.726    24524.302    34397.723     5734.412       11.808        3.233      413.191       69.941        0.029      342.773       18.416      854.779
04/12/2014  19:56:00     -540.273      -97.905      -21.944      259.883      171.860      111.123    67539.354    29535.892    12348.405       20.567        5.471      549.072      130.907        0.057      342.756       18.384      854.787
04/12/2014  19:57:00     -329.389     -160.876       -6.414      197.709      129.017       70.185    39088.776    16645.404     4925.911        9.753        3.033      366.577       85.153        0.054      342.731       18.343      854.818
04/12/2014  19:58:00     -249.791       30.235       10.956      133.276      113.114       68.570    17762.560    12794.751     4701.813        4.934        1.763      251.614       69.157        0.076      342.661       18.224      854.824
04/12/2014  19:59:00     -312.796      -76.547      -15.968      127.712      145.808       63.693    16310.383    21260.117     4056.751        7.278        2.081      322.026       59.071        0.034      342.677       18.250      854.843
04/12/2014  20:00:00     -314.399       25.121      -32.876      120.609      122.589       58.395    14546.411    15028.085     3409.924        6.676        1.649      315.401       55.891        0.031      342.667       18.235      854.852
04/12/2014  20:01:00     -249.093      -73.260        7.089      178.878      123.830       82.635    31997.260    15333.966     6828.588        6.080        2.708      259.643       97.532        0.141      342.645       18.198      854.862
04/12/2014  20:02:00     -333.814      -88.115      -11.022      181.286      165.021       80.891    32864.519    27231.819     6543.348        9.297        3.332      345.247       82.102        0.057      342.659       18.221      854.845
04/12/2014  20:03:00     -394.965      -51.798      -19.057      200.889      120.983       80.716    40356.537    14636.911     6515.103       11.026        3.075      398.347       97.279        0.060      342.629       18.169      854.863
04/12/2014  20:04:00     -158.675     -120.314       17.952      186.651      151.384       90.741    34838.503    22917.022     8233.894        5.297        3.299      199.131      105.347        0.280      342.570       18.069      854.853
04/12/2014  20:05:00     -182.381      -99.995       10.512      148.142      113.951       73.786    21946.125    12984.814     5444.326        4.187        2.019      207.995       83.744        0.162      342.573       18.076      854.849
04/12/2014  20:06:00     -253.386      -58.822       -9.842      133.304      106.635       66.681    17769.841    11371.067     4446.414        5.067        1.679      260.124       68.533        0.069      342.563       18.058      854.866
04/12/2014  20:07:00     -148.036       -1.755       -8.010       97.029       78.308       42.886     9414.720     6132.206     1839.230        1.968        0.869      148.046       36.922        0.062      342.536       18.012      854.885
04/12/2014  20:08:00     -258.674      -32.235        1.633      119.466       90.386       52.966    14272.110     8169.653     2805.414        4.660        1.262      260.675       57.496        0.049      342.531       18.002      854.910
04/12/2014  20:09:00     -193.476      -45.575        1.362      145.109      109.623       58.898    21056.754    12017.235     3468.976        3.802        1.827      198.772       64.344        0.105      342.503       17.956      854.891
04/12/2014  20:10:00     -302.073      -30.515       -2.459      173.511      102.088       72.807    30106.090    10421.923     5300.918        6.900        2.291      303.610       84.288        0.077      342.446       17.860      854.913
04/12/2014  20:11:00     -236.594      -81.660       -1.745      114.829      130.455       54.345    13185.758    17018.503     2953.377        4.790        1.658      250.290       63.171        0.064      342.462       17.884      854.920
04/12/2014  20:12:00     -267.790      -51.196      -11.718       84.432       96.984       58.778     7128.698     9405.874     3454.892        4.723        0.999      272.640       51.673        0.036      342.441       17.846      854.939
04/12/2014  20:13:00     -144.342      -61.052       22.239      111.772       97.967       63.770    12492.984     9597.610     4066.560        2.560        1.308      156.722       61.619        0.155      342.363       17.719      854.941
04/12/2014  20:14:00     -349.297     -133.649      -15.871      124.237      114.037       63.232    15434.910    13004.513     3998.327        8.627        1.622      373.993       52.637        0.020      342.418       17.810      854.942
04/12/2014  20:15:00     -325.648      -91.975       -3.813      167.499      148.843       69.275    28055.807    22154.207     4799.032        8.475        2.750      338.387       80.453        0.057      342.383       17.752      854.950
04/12/2014  20:16:00     -291.681     -110.027      -21.320      129.698      139.683       65.525    16821.647    19511.336     4293.563        6.912        2.031      311.743       71.875        0.053      342.388       17.761      854.986
04/12/2014  20:17:00     -360.783     -143.617      -29.395      221.016      148.794       71.590    48848.201    22139.656     5125.129       11.387        3.806      388.317      102.027        0.069      342.383       17.751      854.968
04/12/2014  20:18:00     -540.661     -199.283      -24.655      267.794      199.575      109.220    71713.675    39830.177    11929.099       22.803        6.174      576.218      133.224        0.053      342.396       17.772      854.928
04/12/2014  20:19:00     -347.411      -65.684       -3.377      231.934      177.438       88.204    53793.297    31484.255     7779.978       10.902        4.653      353.566      110.075        0.097      342.369       17.728      854.920
04/12/2014  20:20:00     -550.787     -155.569      -39.983      254.834      170.594       80.141    64940.155    29102.382     6422.535       21.480        5.023      572.336       89.120        0.024      342.409       17.794      854.923
04/12/2014  20:21:00     -529.381     -143.682        0.355      272.777      211.909      113.123    74407.130    44905.315    12796.832       21.647        6.605      548.533      127.314        0.054      342.398       17.776      854.931
04/12/2014  20:22:00     -281.676      -54.654       24.782      351.164      131.624      118.082   123316.386    17324.846    13943.364       11.873        7.729      286.930      170.854        0.355      342.383       17.753      854.887
04/12/2014  20:23:00     -361.275     -211.126       -6.181      167.392      125.459       74.880    28020.150    15739.840     5607.039       11.224        2.468      418.443       73.870        0.031      342.385       17.754      854.929
04/12/2014  20:24:00     -210.211     -169.957       -6.579      120.197      125.614       76.550    14447.412    15778.991     5859.879        5.459        1.804      270.322       66.047        0.060      342.342       17.681      854.958
04/12/2014  20:25:00     -269.863     -109.876      -17.510      187.082      170.000       56.691    34999.519    28900.136     3213.872        7.615        3.356      291.374       38.323        0.017      342.359       17.710      854.974
04/12/2014  20:26:00     -368.245     -149.097      -17.805      206.590      144.363       81.538    42679.493    20840.714     6648.368       11.415        3.508      397.284       97.762        0.061      342.322       17.648      854.975
04/12/2014  20:27:00     -342.577     -148.601      -15.512      223.510      154.000       85.543    49956.803    23715.884     7317.590       11.032        4.050      373.418       95.942        0.066      342.303       17.616      854.979
04/12/2014  20:28:00     -278.472     -200.174      -15.155      188.143      153.754       77.392    35397.727    23640.257     5989.542        9.142        3.251      342.952       74.882        0.048      342.271       17.561      854.974
04/12/2014  20:29:00     -307.655     -157.254       -3.471      202.890      146.160       77.987    41164.488    21362.721     6081.957        9.399        3.430      345.515       98.297        0.081      342.230       17.491      854.972
04/12/2014  20:30:00     -381.032     -184.061       -6.730      224.518      204.506       94.949    50408.283    41822.797     9015.313       14.016        5.062      423.160      110.235        0.068      342.251       17.527      854.991
04/12/2014  20:31:00     -424.499      -64.979       -0.424      220.586      190.885       95.117    48658.362    36437.240     9047.226       13.926        4.707      429.443      104.340        0.059      342.242       17.512      854.999
04/12/2014  20:32:00     -264.117      -62.562        4.079      142.359      147.811       80.367    20266.071    21848.172     6458.778        6.112        2.429      271.425       72.551        0.071      342.206       17.450      855.031
04/12/2014  20:33:00     -316.614      -99.044      -14.055      175.606      125.916       80.167    30837.305    15854.869     6426.696        8.167        2.656      331.744       88.787        0.072      342.211       17.460      855.045
04/12/2014  20:34:00     -372.406     -207.225      -16.718      217.936      161.684       89.098    47496.106    26141.727     7938.445       13.173        4.079      426.178       99.035        0.054      342.217       17.469      855.046
04/12/2014  20:35:00     -231.069      -74.014      -10.748      162.877      110.199       77.132    26528.779    12143.710     5949.382        5.180        2.231      242.633       72.406        0.089      342.192       17.427      855.057
04/12/2014  20:36:00     -397.286     -219.042      -16.060      267.826      201.197       91.434    71730.901    40480.380     8360.194       16.330        6.029      453.669      108.841        0.058      342.206       17.451      855.050
04/12/2014  20:37:00     -471.180     -171.017      -23.606      247.118      207.968      110.644    61067.542    43250.804    12242.039       18.416        5.828      501.256       91.140        0.033      342.212       17.460      855.040
04/12/2014  20:38:00     -283.591     -105.875        3.660      163.990      178.639       83.609    26892.792    31912.000     6990.445        7.871        3.290      302.710       77.201        0.065      342.184       17.413      855.095
04/12/2014  20:39:00     -378.739     -224.983      -15.631      186.128      158.164       77.497    34643.775    25015.875     6005.801       12.997        3.283      440.523       80.142        0.033      342.192       17.426      855.122
04/12/2014  20:40:00     -454.186     -190.715        1.416      243.618      158.799      101.841    59349.812    25217.164    10371.520       16.878        4.747      492.603      124.134        0.064      342.153       17.360      855.155
04/12/2014  20:41:00     -344.624     -170.047        0.098      211.104      178.166       92.477    44564.922    31743.243     8551.975       11.625        4.243      384.294      114.141        0.088      342.147       17.349      855.200
04/12/2014  20:42:00     -411.728      -86.645       -0.921      226.851      142.961      101.632    51461.576    20437.765    10328.980       12.961        4.111      420.746      115.067        0.075      342.150       17.355      855.193
04/12/2014  20:43:00     -505.634     -249.206      -30.834      258.907      198.124      108.593    67032.826    39253.166    11792.486       21.838        5.904      563.710      100.417        0.032      342.161       17.375      855.223
04/12/2014  20:44:00     -301.140     -162.422       -2.436      247.329      162.704       96.167    61171.791    26472.457     9248.097       10.696        4.845      342.149      119.695        0.122      342.146       17.349      855.247
04/12/2014  20:45:00     -506.016     -204.969       -8.399      288.649      221.550      118.601    83318.305    49084.427    14066.089       22.227        7.323      545.953      138.112        0.064      342.144       17.345      855.273
04/12/2014  20:46:00     -339.623     -126.854      -14.159      196.998      187.869       80.654    38808.399    35294.665     6504.999       10.611        4.030      362.541       79.968        0.049      342.149       17.354      855.299
04/12/2014  20:47:00     -211.669     -125.962       11.373      190.855      143.091       86.438    36425.673    20475.089     7471.488        6.257        3.219      246.313      106.074        0.185      342.104       17.276      855.313
04/12/2014  20:48:00     -266.535     -151.539        4.173      178.939      125.307       85.460    32019.190    15701.886     7303.381        7.451        2.751      306.602       86.540        0.080      342.094       17.262      855.355
04/12/2014  20:49:00     -326.547     -186.832       -8.398      134.723      142.951       72.523    18150.187    20434.895     5259.616        9.272        2.192      376.217       65.362        0.030      342.080       17.236      855.370
04/12/2014  20:50:00     -550.455      -98.960      -19.711      182.456      142.519       80.972    33290.242    20311.551     6556.427       18.666        3.008      559.279       78.915        0.020      342.090       17.253      855.372
04/12/2014  20:51:00     -204.998      -92.943       34.984      175.331      149.079       77.547    30740.868    22224.504     6013.464        5.542        2.949      225.083       87.835        0.152      342.025       17.143      855.388
04/12/2014  20:52:00     -327.529     -211.213       -5.488      240.008      157.040       85.507    57603.635    24661.561     7311.462       12.073        4.479      389.726      105.552        0.073      342.113       17.292      855.408
04/12/2014  20:53:00     -439.151     -251.911      -13.419      249.266      197.522       95.199    62133.381    39014.975     9062.778       18.333        5.511      506.273      111.070        0.048      342.142       17.341      855.398
04/12/2014  20:54:00     -500.844     -229.607      -11.375      219.283      191.145      112.808    48085.245    36536.526    12725.682       20.050        4.867      550.967      113.797        0.043      342.112       17.291      855.424
04/12/2014  20:55:00     -481.688     -199.096      -20.540      168.104      198.167       83.861    28258.985    39270.214     7032.675       17.331        3.728      521.213       95.227        0.033      342.106       17.281      855.451
04/12/2014  20:56:00     -245.421      -89.243        6.271      203.609      133.697       77.551    41456.428    17874.937     6014.121        6.678        3.267      261.143       95.571        0.134      342.072       17.224      855.458
04/12/2014  20:57:00     -314.600     -151.976       -0.363      212.538      146.353       81.532    45172.523    21419.268     6647.533        9.764        3.662      349.385       74.552        0.046      342.065       17.211      855.474
04/12/2014  20:58:00     -333.778     -135.965        5.078      149.975      160.109       71.214    22492.589    25634.754     5071.447        9.155        2.660      360.408       73.051        0.041      342.062       17.206      855.498
04/12/2014  20:59:00     -286.341     -187.363        7.372      211.490      146.080       80.126    44727.828    21339.325     6420.130        9.480        3.624      342.193       95.003        0.077      342.081       17.238      855.502
04/12/2014  21:00:00     -426.538     -272.600      -19.404      160.879      164.008       84.682    25882.192    26898.506     7171.009       15.828        2.998      506.207       88.485        0.031      342.139       17.337      855.519
04/12/2014  21:01:00     -317.125     -197.242       -8.351      166.342      140.017       78.391    27669.649    19604.877     6145.167        9.647        2.671      373.461       74.149        0.039      342.104       17.278      855.571
04/12/2014  21:02:00     -238.122      -65.459       -9.472       93.289       94.814       56.441     8702.751     8989.610     3185.609        4.097        1.044      246.955       46.977        0.036      342.073       17.225      855.606
04/12/2014  21:03:00     -167.405       21.394        3.356       99.660       96.769       52.304     9932.145     9364.297     2735.727        2.526        1.102      168.766       52.924        0.098      341.977       17.063      855.624
04/12/2014  21:04:00     -245.691     -125.453        1.116      192.244      122.975       71.674    36957.578    15122.737     5137.122        6.665        2.861      275.867       94.249        0.117      342.005       17.110      855.632
04/12/2014  21:05:00     -360.474     -188.800      -26.235      164.874      107.703       68.860    27183.404    11600.012     4741.767       10.489        2.176      406.924       81.166        0.040      342.012       17.120      855.668
04/12/2014  21:06:00     -385.869     -204.446      -31.358      170.826      160.607       79.124    29181.495    25794.525     6260.584       12.644        3.062      436.684       53.411        0.015      342.017       17.130      855.676
04/12/2014  21:07:00     -307.530     -154.110      -20.012      134.375      109.168       65.502    18056.700    11917.563     4290.468        7.649        1.713      343.983       66.394        0.037      341.998       17.098      855.691
04/12/2014  21:08:00     -232.533     -167.157      -10.686      151.650      117.315       78.554    22997.753    13762.808     6170.738        6.252        2.147      286.379       76.697        0.072      341.981       17.069      855.730
04/12/2014  21:09:00     -208.932     -134.942       -2.389      115.538       80.805       54.097    13348.967     6529.427     2926.520        4.233        1.140      248.721       39.388        0.025      341.930       16.982      855.766
04/12/2014  21:10:00     -138.257        7.091       -7.467       67.866       53.437       34.742     4605.807     2855.556     1206.991        1.394        0.433      138.439       32.836        0.056      341.808       16.778      855.797
04/12/2014  21:11:00     -355.703     -101.979        5.557      183.471      132.680       77.550    33661.446    17603.867     6013.977        9.711        2.864      370.033       83.277        0.051      341.834       16.817      855.808
04/12/2014  21:12:00     -416.232      -90.395      -15.067      176.879      159.466       79.231    31286.329    25429.372     6277.559       12.231        3.150      425.935       89.886        0.045      341.898       16.925      855.841
04/12/2014  21:13:00     -232.704      -55.153       15.239      142.689      129.752       69.343    20360.089    16835.626     4808.420        4.971        2.100      239.150       62.731        0.069      341.879       16.896      855.876
04/12/2014  21:14:00     -268.790      -59.343       -8.978      167.500       90.849       60.399    28056.083     8253.553     3648.081        5.790        1.998      275.263       72.654        0.070      341.875       16.889      855.909
04/12/2014  21:15:00     -165.909      -34.073        5.029      112.076       89.418       67.205    12561.114     7995.653     4516.561        2.689        1.254      169.372       55.937        0.109      341.825       16.804      855.922
04/12/2014  21:16:00     -256.680       14.111      -15.345      149.658       94.766       66.202    22397.562     8980.671     4382.746        5.103        1.788      257.068       74.507        0.084      341.778       16.722      855.948
04/12/2014  21:17:00     -304.486      -66.199      -14.965      126.301      104.199       66.369    15951.852    10857.335     4404.889        6.426        1.561      311.599       62.190        0.040      341.800       16.758      855.976
04/12/2014  21:18:00     -439.303      -96.323       -8.583      163.081      115.472       64.713    26595.567    13333.810     4187.765       12.322        2.206      449.739       62.200        0.019      341.828       16.807      855.988
04/12/2014  21:19:00     -269.248      -55.328      -11.229      150.886       73.722       48.027    22766.594     5434.868     2306.605        5.309        1.525      274.874       66.273        0.058      341.787       16.739      856.002
04/12/2014  21:20:00     -282.245      -31.996       -7.516      164.263      100.235       65.667    26982.399    10047.087     4312.191        6.103        2.067      284.052       54.722        0.037      341.788       16.740      856.023
04/12/2014  21:21:00     -340.538      -29.608      -26.515       91.759       78.586       43.445     8419.769     6175.787     1887.459        6.701        0.824      341.822       43.874        0.016      341.828       16.807      856.041
04/12/2014  21:22:00     -316.069      -57.044      -29.228       74.939       72.561       38.450     5615.781     5265.059     1478.379        5.818        0.618      321.175       29.489        0.008      341.787       16.737      856.058
04/12/2014  21:23:00     -416.387      -78.232      -29.830      117.367       92.211       57.644    13774.900     8502.872     3322.871       10.299        1.280      423.672       46.419        0.012      341.771       16.710      856.098
04/12/2014  21:24:00     -354.053     -158.070      -19.309      157.068       97.162       62.245    24670.204     9440.411     3874.436        9.434        1.899      387.737       68.866        0.032      341.745       16.666      856.098
04/12/2014  21:25:00     -388.884      -31.129      -26.403      115.423      125.749       57.571    13322.509    15812.810     3314.466        9.267        1.622      390.128       53.137        0.019      341.719       16.624      856.110
04/12/2014  21:26:00     -411.210      -39.126      -27.007      118.131      112.740       62.725    13954.973    12710.360     3934.422       10.097        1.530      413.067       62.662        0.023      341.694       16.582      856.126
04/12/2014  21:27:00     -322.434      -68.093       -5.671      168.565      120.368       64.361    28414.177    14488.431     4142.327        7.783        2.352      329.546       78.011        0.056      341.633       16.480      856.157
04/12/2014  21:28:00     -201.183      -62.058        2.740      131.339      103.384       58.509    17249.972    10688.185     3423.304        3.784        1.568      210.537       57.146        0.074      341.638       16.488      856.179
04/12/2014  21:29:00     -209.608      -54.088       -7.745       99.044       86.977       52.784     9809.745     7564.959     2786.144        3.354        1.008      216.474       43.314        0.040      341.653       16.512      856.178
04/12/2014  21:30:00     -392.479     -124.618      -13.308      114.706       88.867       53.550    13157.492     7897.274     2867.562        9.683        1.196      411.788       47.707        0.013      341.659       16.524      856.194
04/12/2014  21:31:00     -274.433      -73.146       -7.717      120.746      114.986       52.827    14579.482    13221.842     2790.732        5.565        1.530      284.014       62.881        0.049      341.616       16.448      856.203
04/12/2014  21:32:00     -251.587      -18.635      -15.598      104.922       87.462       43.508    11008.645     7649.627     1892.987        4.221        1.028      252.276       41.279        0.027      341.619       16.454      856.222
04/12/2014  21:33:00     -195.047       -0.974        5.781      104.911       76.952       47.887    11006.226     5921.582     2293.185        2.865        0.961      195.049       37.956        0.038      341.570       16.372      856.242
04/12/2014  21:34:00     -278.128      -54.358       -8.694      171.895       94.113       59.813    29547.992     8857.173     3577.547        6.118        2.099      283.390       62.491        0.049      341.541       16.323      856.242
04/12/2014  21:35:00     -289.440     -109.042      -18.037       90.905       94.537       49.885     8263.799     8937.164     2488.488        5.784        0.984      309.299       43.948        0.020      341.561       16.356      856.256
04/12/2014  21:36:00     -369.238      -38.490      -42.475      146.186      129.587       52.538    21370.383    16792.840     2760.207        9.026        2.046      371.239       62.956        0.029      341.581       16.390      856.268
04/12/2014  21:37:00     -292.953     -119.042        0.152      151.768      106.755       55.771    23033.522    11396.669     3110.364        6.876        1.877      316.216       57.654        0.033      341.555       16.345      856.282
04/12/2014  21:38:00     -336.243      -27.450       -5.121      188.122      104.057       60.604    35389.836    10827.802     3672.866        8.185        2.495      337.361       84.516        0.063      341.553       16.342      856.309
04/12/2014  21:39:00     -262.938      -35.397      -10.938      158.017      122.323       59.581    24969.440    14963.031     3549.857        5.699        2.174      265.310       57.797        0.047      341.528       16.300      856.308
04/12/2014  21:40:00     -305.692       16.500      -18.934       84.809       79.341       42.806     7192.560     6294.921     1832.328        5.470        0.766      306.137       41.726        0.019      341.552       16.339      856.304
04/12/2014  21:41:00     -254.953      -55.121      -15.295       94.820       78.034       47.027     8990.818     6089.238     2211.510        4.278        0.865      260.843       54.758        0.044      341.536       16.313      856.279
04/12/2014  21:42:00     -229.268      -46.939       -8.649      147.918      101.049       61.774    21879.854    10210.955     3816.000        4.537        1.795      234.023       59.942        0.066      341.528       16.299      856.283
04/12/2014  21:43:00     -161.779      -82.952       -8.292      128.632      113.985       51.604    16546.255    12992.668     2662.949        3.266        1.610      181.806       59.726        0.108      341.543       16.325      856.295
04/12/2014  21:44:00     -224.467      -12.724       -5.743      114.226       83.339       47.098    13047.688     6945.424     2218.214        3.639        1.111      224.828       60.821        0.073      341.523       16.291      856.312
04/12/2014  21:45:00     -196.846      -47.538      -21.513       78.364       74.447       37.661     6140.940     5542.336     1418.337        2.728        0.655      202.505       37.284        0.034      341.488       16.233      856.329
04/12/2014  21:46:00     -331.883       37.311      -17.950      126.715      109.607       52.750    16056.679    12013.747     2782.610        7.135        1.543      333.974       50.163        0.023      341.474       16.208      856.329
04/12/2014  21:47:00     -255.720      -50.792       -4.929      116.569       92.323       64.798    13588.403     8523.572     4198.745        4.715        1.316      260.715       68.521        0.069      341.462       16.188      856.342
04/12/2014  21:48:00     -274.588      -97.399      -28.523       93.677       86.487       48.176     8775.457     7479.972     2320.948        5.213        0.929      291.350       38.174        0.017      341.499       16.248      856.343
04/12/2014  21:49:00     -299.658      -69.912      -16.093      120.331      122.672       54.613    14479.500    15048.383     2982.548        6.372        1.626      307.706       52.128        0.029      341.462       16.187      856.353
04/12/2014  21:50:00     -245.335      -89.167      -20.979      129.978      123.857       59.174    16894.362    15340.561     3501.572        5.215        1.787      261.037       67.540        0.067      341.452       16.169      856.358
04/12/2014  21:51:00     -295.578     -103.251       -1.654      182.918      115.503       76.715    33459.135    13340.912     5885.234        7.535        2.634      313.093       87.644        0.078      341.409       16.098      856.360
04/12/2014  21:52:00     -320.695      -25.944      -21.106      169.267      130.574       68.837    28651.409    17049.527     4738.583        7.719        2.522      321.743       73.958        0.053      341.409       16.098      856.370
04/12/2014  21:53:00     -363.377      -93.630      -18.400      132.622      113.645       68.812    17588.665    12915.160     4735.119        8.819        1.762      375.246       63.907        0.029      341.423       16.122      856.387
04/12/2014  21:54:00     -397.630      -96.553      -14.965      154.197      165.123       71.132    23776.800    27265.475     5059.746       11.187        2.805      409.184       68.409        0.028      341.460       16.186      856.379
04/12/2014  21:55:00     -326.424      -73.624       -1.501      132.666      114.502       60.372    17600.234    13110.628     3644.767        7.316        1.718      334.623       62.121        0.034      341.390       16.067      856.384
04/12/2014  21:56:00     -289.327      -73.168       -6.482      117.826      117.055       60.571    13882.918    13701.771     3668.830        6.017        1.563      298.436       60.816        0.042      341.399       16.080      856.381
04/12/2014  21:57:00     -372.612      -61.321      -21.597      120.620      112.773       61.765    14549.182    12717.810     3814.898        8.707        1.554      377.624       55.781        0.022      341.400       16.081      856.391
04/12/2014  21:58:00     -261.489     -121.914        2.808      133.205      115.560       70.016    17743.446    13354.093     4902.294        5.962        1.800      288.513       70.503        0.060      341.423       16.122      856.380
04/12/2014  21:59:00     -212.377      -29.178        3.673      136.250      110.189       80.911    18563.938    12141.552     6546.558        4.160        1.863      214.372       88.455        0.170      341.373       16.038      856.395
04/12/2014  22:00:00     -289.159      -84.284      -19.573      153.008      159.290       73.778    23411.477    25373.457     5443.252        7.265        2.711      301.192       73.392        0.059      341.389       16.063      856.421
04/12/2014  22:01:00     -369.030      -61.012      -17.639      167.793      125.642       62.978    28154.340    15785.972     3966.178        9.405        2.395      374.040       65.116        0.030      341.370       16.032      856.453
04/12/2014  22:02:00     -357.381     -100.260      -13.304      167.430      143.845       77.646    28032.963    20691.509     6028.908        9.634        2.738      371.178       81.468        0.048      341.344       15.988      856.457
04/12/2014  22:03:00     -282.033      -27.198      -13.652      147.112      119.852       64.343    21641.936    14364.609     4140.003        6.030        2.007      283.342       78.943        0.078      341.297       15.908      856.482
04/12/2014  22:04:00     -101.310      -99.004       17.464      158.655      119.014       83.473    25171.551    14164.400     6967.764        3.333        2.315      141.652      102.033        0.519      341.299       15.914      856.506
04/12/2014  22:05:00     -299.281      -85.835      -13.017      180.477      128.069       74.395    32571.922    16401.631     5534.569        7.580        2.725      311.346       91.766        0.087      341.310       15.931      856.508
04/12/2014  22:06:00     -287.616     -118.987      -13.464      186.051      110.564       71.579    34615.051    12224.450     5123.532        7.450        2.598      311.257       70.135        0.051      341.315       15.942      856.505
04/12/2014  22:07:00     -368.492      -11.169      -21.033      196.878      119.417       63.575    38760.866    14260.495     4041.804        9.670        2.853      368.662       77.299        0.044      341.309       15.929      856.507
04/12/2014  22:08:00     -302.288      -61.140       -9.387      137.328      144.449       66.566    18859.061    20865.616     4431.071        6.967        2.208      308.409       54.505        0.031      341.302       15.916      856.512
04/12/2014  22:09:00     -145.459      -43.659       32.024      136.580      109.489       65.690    18654.077    11987.834     4315.207        2.952        1.748      151.870       68.326        0.202      341.189       15.728      856.519
04/12/2014  22:10:00     -181.484       17.405       16.911      128.933       91.968       54.664    16623.665     8458.089     2988.113        3.079        1.403      182.316       65.174        0.128      341.225       15.787      856.516
04/12/2014  22:11:00     -142.019      -68.987       18.439      132.647      167.088       73.202    17595.164    27918.391     5358.569        3.806        2.544      157.888       76.134        0.233      341.257       15.841      856.513
04/12/2014  22:12:00     -282.286      -73.401        3.388      148.183       81.882       56.462    21958.159     6704.694     3187.962        5.846        1.593      291.673       65.887        0.051      341.263       15.852      856.509
04/12/2014  22:13:00     -267.817     -108.344       -3.829      249.874      145.932       75.108    62437.015    21296.257     5641.250        8.641        4.469      288.902      102.196        0.125      341.245       15.822      856.507
04/12/2014  22:14:00     -259.621      -78.442        1.803      182.016      132.772       75.049    33129.855    17628.392     5632.349        6.496        2.820      271.212       92.291        0.116      341.251       15.830      856.526
04/12/2014  22:15:00     -183.919      -81.590        3.866       99.178       89.997       57.344     9836.273     8099.479     3288.300        3.086        1.061      201.204       51.660        0.066      341.257       15.843      856.553
04/12/2014  22:16:00     -288.362      -66.233       -3.074      136.344      109.280       60.011    18589.813    11942.011     3601.363        6.083        1.707      295.871       70.477        0.057      341.222       15.782      856.567
04/12/2014  22:17:00     -256.511      -70.138      -10.277      115.619      108.712       48.499    13367.804    11818.367     2352.150        4.917        1.377      265.927       54.268        0.042      341.224       15.786      856.577
04/12/2014  22:18:00     -245.369     -102.360       -5.744      102.469      116.083       51.583    10499.931    13475.232     2660.779        4.867        1.332      265.864       45.303        0.029      341.190       15.727      856.577
04/12/2014  22:19:00     -277.301       -8.382      -11.994       95.849       95.282       54.416     9187.118     9078.634     2961.107        4.916        1.061      277.428       49.588        0.032      341.235       15.804      856.574
04/12/2014  22:20:00     -271.210        2.173       -2.742      109.631      103.480       59.438    12018.856    10708.019     3532.879        4.991        1.313      271.218       60.092        0.049      341.162       15.681      856.596
04/12/2014  22:21:00     -246.564      -38.190      -11.909       89.969       79.480       56.811     8094.336     6316.998     3227.506        4.001        0.882      249.504       55.919        0.050      341.153       15.663      856.593
04/12/2014  22:22:00     -238.465      -39.308       -4.372      125.483       76.529       53.427    15746.074     5856.680     2854.493        4.144        1.223      241.683       55.974        0.054      341.132       15.629      856.589
04/12/2014  22:23:00     -336.888      -55.209      -12.234      161.340      105.391       55.606    26030.557    11107.347     3092.052        7.845        2.011      341.381       70.596        0.043      341.157       15.670      856.585
04/12/2014  22:24:00     -144.061      -48.195       -1.900      112.120       65.210       50.207    12570.927     4252.373     2520.767        2.121        0.967      151.909       50.827        0.112      341.105       15.584      856.594
04/12/2014  22:25:00     -133.713      -86.773       13.597      133.319       76.642       58.658    17774.059     5873.941     3440.773        2.634        1.354      159.401       69.054        0.188      341.113       15.597      856.610
04/12/2014  22:26:00     -226.724       -2.533       -1.590      133.876      124.892       74.371    17922.793    15598.008     5531.060        4.522        1.953      226.738       74.378        0.108      341.148       15.654      856.608
04/12/2014  22:27:00     -213.736        0.351       -9.688      186.507      108.640       77.080    34784.687    11802.547     5941.250        4.914        2.626      213.736       93.240        0.190      341.127       15.623      856.618
04/12/2014  22:28:00     -323.256      -46.377      -14.112      122.309       86.002       52.338    14959.372     7396.400     2739.227        6.596        1.255      326.566       52.585        0.026      341.116       15.602      856.636
04/12/2014  22:29:00     -290.138      -65.489       -9.808      135.572       88.939       65.859    18379.873     7910.193     4337.414        5.959        1.531      297.437       59.317        0.040      341.116       15.601      856.635
04/12/2014  22:30:00     -223.087       -3.095        3.063      155.507       83.231       66.576    24182.293     6927.418     4432.300        4.266        1.777      223.108       83.192        0.139      341.117       15.606      856.640
04/12/2014  22:31:00     -317.295      -90.399      -15.670      140.088      122.085       64.466    19624.685    14904.724     4155.922        7.388        1.934      329.922       66.441        0.041      341.111       15.594      856.654
04/12/2014  22:32:00     -260.158      -63.162       -9.938      119.748      104.852       57.580    14339.496    10993.982     3315.453        5.020        1.432      267.716       63.720        0.057      341.085       15.551      856.672
04/12/2014  22:33:00     -235.464      -13.678        5.893      113.478       92.735       64.843    12877.323     8599.724     4204.617        4.067        1.284      235.861       65.866        0.078      341.047       15.486      856.672
04/12/2014  22:34:00     -329.082      -83.898      -18.771      137.710       75.049       55.880    18963.962     5632.326     3122.627        7.170        1.386      339.609       65.076        0.037      341.019       15.441      856.676
04/12/2014  22:35:00     -393.803      -60.479      -24.844      167.327      101.303       75.898    27998.471    10262.382     5760.432       10.168        2.201      398.420       81.343        0.042      341.047       15.486      856.673
04/12/2014  22:36:00     -204.366      -50.616        8.766      142.074      118.292       71.213    20185.132    13993.039     5071.255        4.182        1.962      210.540       80.439        0.146      341.006       15.416      856.669
04/12/2014  22:37:00     -283.249      -58.378       -3.645      140.937      107.382       60.692    19863.376    11530.869     3683.539        5.936        1.754      289.202       60.831        0.044      340.979       15.371      856.702
04/12/2014  22:38:00     -344.675      -52.576      -20.418      178.383      125.522       74.845    31820.595    15755.676     5601.816        8.757        2.659      348.662       85.395        0.060      340.972       15.358      856.707
04/12/2014  22:39:00     -327.405     -110.691       -6.684      130.741      124.972       52.965    17093.299    15617.909     2805.268        7.750        1.776      345.610       53.300        0.024      341.006       15.417      856.709
04/12/2014  22:40:00     -312.897      -78.677       -6.652      163.658      100.602       63.902    26783.952    10120.665     4083.508        7.256        2.049      322.637       70.029        0.047      341.001       15.408      856.713
04/12/2014  22:41:00     -270.504      -76.214        5.245      130.854      118.771       67.818    17122.817    14106.540     4599.276        5.741        1.791      281.036       76.305        0.074      340.965       15.346      856.712
04/12/2014  22:42:00     -338.206      -38.855        1.055      127.910      107.068       67.623    16361.028    11463.573     4572.819        7.414        1.620      340.431       62.494        0.034      340.961       15.339      856.713
04/12/2014  22:43:00     -311.597      -69.596       -2.100      111.820      109.894       55.297    12503.709    12076.775     3057.734        6.478        1.382      319.275       54.320        0.029      340.944       15.311      856.725
04/12/2014  22:44:00     -370.978        1.401      -27.241      187.646      125.620       80.319    35210.978    15780.302     6451.215        9.789        2.872      370.981      100.012        0.073      340.958       15.335      856.730
04/12/2014  22:45:00     -352.412      -83.245      -12.199      141.489      123.230       78.041    20019.120    15185.750     6090.439        8.628        2.065      362.110       84.500        0.054      340.941       15.307      856.740
04/12/2014  22:46:00     -324.239      -12.575       -8.737       97.896       98.114       54.329     9583.681     9626.388     2951.659        6.376        1.108      324.483       53.780        0.027      340.952       15.323      856.771
04/12/2014  22:47:00     -319.434      -77.850       -3.816      162.205      108.199       60.223    26310.459    11706.978     3626.786        7.487        2.082      328.783       65.375        0.040      340.924       15.276      856.794
04/12/2014  22:48:00     -278.954      -46.128        8.317      141.682      104.096       66.838    20073.661    10836.008     4467.283        5.769        1.769      282.742       68.934        0.059      340.909       15.252      856.804
04/12/2014  22:49:00     -307.063      -69.562       -7.395      190.507       97.986       70.346    36292.783     9601.308     4948.505        7.500        2.542      314.844       83.540        0.070      340.883       15.208      856.825
04/12/2014  22:50:00     -406.187      -50.512      -24.760      195.679      134.055       73.944    38290.154    17970.658     5467.765       11.493        3.086      409.316       88.708        0.047      340.965       15.347      856.833
04/12/2014  22:51:00     -271.455      -13.393      -18.015      129.587      121.555       58.227    16792.731    14775.593     3390.403        5.457        1.748      271.785       54.977        0.041      340.942       15.307      856.847
04/12/2014  22:52:00     -360.260       -0.221      -17.127      167.752      122.387       61.142    28140.718    14978.548     3738.350        8.846        2.343      360.260       75.630        0.044      340.911       15.255      856.863
04/12/2014  22:53:00     -398.350      -86.684       -5.791      166.317      127.322       70.060    27661.336    16210.913     4908.461       10.750        2.439      407.672       73.922        0.033      340.941       15.306      856.869
04/12/2014  22:54:00     -323.651      -55.376      -10.158      148.845      100.109       58.864    22154.901    10021.836     3464.931        7.177        1.782      328.354       66.673        0.041      340.897       15.231      856.878
04/12/2014  22:55:00     -354.857     -125.042       -7.724       93.922       77.573       52.242     8821.267     6017.564     2729.247        7.959        0.878      376.244       47.038        0.016      340.906       15.246      856.885
04/12/2014  22:56:00     -404.217      -45.918      -17.392      150.039      105.120       68.908    22511.585    11050.241     4748.353       10.205        1.916      406.817       63.014        0.024      340.904       15.242      856.920
04/12/2014  22:57:00     -292.413      -52.578       -3.721      118.739       97.932       67.708    14099.057     9590.730     4584.421        5.827        1.414      297.102       69.222        0.054      340.887       15.213      856.924
04/12/2014  22:58:00     -340.860      -15.889      -28.357      145.762       98.637       67.893    21246.556     9729.352     4609.393        7.641        1.779      341.230       70.112        0.042      340.913       15.259      856.944
04/12/2014  22:59:00     -255.608      -39.608       -5.903      165.930      124.786       65.626    27532.872    15571.460     4306.751        5.717        2.371      258.659       69.973        0.073      340.910       15.254      856.940
04/12/2014  23:00:00     -326.961       -0.461      -27.411      104.227      128.273       67.251    10863.282    16453.991     4522.758        6.974        1.592      326.961       61.814        0.036      340.939       15.302      856.978
04/12/2014  23:01:00     -146.891      -79.810        2.471       82.928      100.277       51.402     6877.105    10055.387     2642.134        2.376        0.979      167.172       47.294        0.080      340.918       15.269      856.994
04/12/2014  23:02:00     -313.137      -32.863       -5.715      151.186      104.557       70.447    22857.121    10932.097     4962.730        6.895        1.938      314.856       77.398        0.060      340.914       15.262      857.025
04/12/2014  23:03:00     -322.616      -59.383      -15.327      102.864      103.596       50.980    10581.090    10732.072     2598.932        6.587        1.196      328.035       50.997        0.024      340.905       15.244      857.062
04/12/2014  23:04:00     -315.809      -56.061      -11.337      117.893       88.068       54.949    13898.852     7756.044     3019.412        6.384        1.234      320.746       60.343        0.035      340.875       15.194      857.115
04/12/2014  23:05:00     -384.193      -97.085      -30.084      111.320       94.272       55.301    12392.042     8887.179     3058.150        9.113        1.217      396.269       47.350        0.014      340.944       15.311      857.152
04/12/2014  23:06:00     -300.622      -65.067      -12.466       90.487       64.747       46.034     8187.955     4192.173     2119.163        5.463        0.725      307.583       41.097        0.018      340.886       15.211      857.186
04/12/2014  23:07:00     -204.263      -20.922      -13.262      103.568       75.332       44.691    10726.308     5674.838     1997.263        3.036        0.920      205.332       36.085        0.031      340.943       15.309      857.210
04/12/2014  23:08:00     -246.815      -32.894      -12.251      134.290      100.030       55.571    18033.904    10006.026     3088.146        4.663        1.556      248.998       74.701        0.090      340.919       15.268      857.260
04/12/2014  23:09:00     -196.338     -126.370       -1.457      131.859      107.775       47.762    17386.709    11615.513     2281.169        4.290        1.564      233.491       51.033        0.048      340.884       15.210      857.281
04/12/2014  23:10:00     -307.145      -85.974      -23.155      115.576       97.479       60.704    13357.770     9502.236     3684.973        6.440        1.327      318.951       57.519        0.033      340.955       15.329      857.306
04/12/2014  23:11:00     -352.728       -9.663      -25.760      131.828       84.065       57.141    17378.624     7066.861     3265.054        7.644        1.386      352.861       65.765        0.035      341.017       15.434      857.334
04/12/2014  23:12:00     -283.454      -68.679       -4.549      136.461      110.607       54.055    18621.741    12233.954     2921.905        5.942        1.689      291.655       57.209        0.038      341.019       15.438      857.355
04/12/2014  23:13:00     -316.089      -98.021      -26.105      105.371      104.153       49.295    11103.083    10847.857     2430.039        6.729        1.219      330.938       52.719        0.025      341.043       15.478      857.384
04/12/2014  23:14:00     -343.168      -88.451      -25.474      109.764       73.632       46.708    12048.082     5421.607     2181.633        7.294        0.983      354.384       40.665        0.013      341.021       15.441      857.409
04/12/2014  23:15:00     -267.269       62.671      -31.886      125.889       89.385       40.208    15848.089     7989.710     1616.711        5.091        1.273      274.519       44.078        0.026      341.202       15.748      857.423
04/12/2014  23:16:00     -149.890      -33.226      -18.503       78.444       65.254       30.189     6153.383     4258.033      911.379        1.762        0.566      153.528       16.418        0.011      341.174       15.702      857.385
04/12/2014  23:17:00     -193.599      -62.530      -13.983       83.229       72.019       39.121     6927.075     5186.743     1530.422        2.761        0.682      203.447       38.574        0.036      341.093       15.564      857.394
04/12/2014  23:18:00     -223.442       25.084      -17.745       77.339       80.793       38.238     5981.271     6527.541     1462.144        3.242        0.699      224.845       40.196        0.032      341.143       15.648      857.379
04/12/2014  23:19:00     -203.123      -32.115       -6.554       78.072       54.249       31.281     6095.253     2942.932      978.517        2.617        0.501      205.646       29.879        0.021      341.011       15.423      857.406
04/12/2014  23:20:00     -123.491       -5.884        6.574      103.277       52.259       33.403    10666.067     2730.960     1115.736        1.492        0.726      123.631       32.134        0.068      341.041       15.477      857.422
04/12/2014  23:21:00     -113.998       11.388       -4.205       45.370       41.822       29.045     2058.418     1749.088      843.641        0.890        0.233      114.566       13.528        0.014      341.120       15.612      857.440
04/12/2014  23:22:00      -70.899       49.189       -2.997       56.890       52.374       20.289     3236.461     2743.066      411.664        0.692        0.320       86.292       26.289        0.093      340.968       15.356      857.457
04/12/2014  23:23:00      -22.071        6.582       -0.790       30.728       29.431       23.934      944.190      866.208      572.849        0.146        0.119       23.031       10.718        0.217      341.049       15.493      857.473
04/12/2014  23:24:00     -105.907      -56.560       -4.481       24.336       28.847       18.711      592.253      832.126      350.090        0.810        0.089      120.064       11.651        0.009      340.997       15.405      857.497
04/12/2014  23:25:00     -119.869      -51.460      -12.443       24.515       20.636       17.465      600.988      425.847      305.027        0.925        0.067      130.448       15.304        0.014      341.079       15.544      857.515
04/12/2014  23:26:00      -69.522      -51.655        1.775       34.740       26.976       18.233     1206.884      727.731      332.458        0.489        0.113       86.612       14.464        0.028      341.065       15.519      857.525
04/12/2014  23:27:00     -134.580      -55.080       -3.113       53.590       40.955       24.772     2871.933     1677.290      613.668        1.316        0.258      145.415       24.645        0.029      341.071       15.528      857.527
04/12/2014  23:28:00     -108.419      -70.870       -8.724       46.262       39.626       29.286     2140.182     1570.184      857.696        1.071        0.228      129.527       26.686        0.042      341.004       15.417      857.540
04/12/2014  23:29:00     -101.039      -39.319       -2.085       45.670       28.818       22.718     2085.720      830.491      516.123        0.760        0.172      108.420       23.884        0.049      340.983       15.379      857.553
04/12/2014  23:30:00      -59.548      -49.461       -0.950       40.059       48.104       22.765     1604.706     2313.996      518.224        0.521        0.222       77.410       20.600        0.071      340.957       15.336      857.583
04/12/2014  23:31:00      -89.409      -49.163        0.204       47.043       31.963       21.573     2213.080     1021.616      465.396        0.705        0.185      102.034       20.513        0.040      340.969       15.355      857.619
04/12/2014  23:32:00      -83.770      -33.363        6.275       47.706       44.345       19.582     2275.832     1966.481      383.447        0.640        0.231       90.169       22.799        0.064      340.894       15.228      857.648
04/12/2014  23:33:00      -83.154      -24.775        6.844       39.462       35.836       21.680     1557.237     1284.236      470.030        0.544        0.166       86.766       22.976        0.070      340.823       15.110      857.677
04/12/2014  23:34:00      -94.988      -29.246       -4.251       31.512       25.688       16.371      992.989      659.870      268.006        0.591        0.096       99.389       14.701        0.022      340.903       15.244      857.701
04/12/2014  23:35:00      -35.215      -23.059        1.291       22.601       25.912       16.710      510.817      671.445      279.233        0.162        0.073       42.093       12.573        0.089      340.909       15.255      857.727
04/12/2014  23:36:00      -15.626       -5.912        6.339       21.682       16.226       12.760      470.095      263.276      162.821        0.061        0.045       16.707       10.432        0.390      340.852       15.158      857.745
04/12/2014  23:37:00      -82.999      -41.417       -8.529       17.857       19.926       12.645      318.856      397.035      159.907        0.478        0.044       92.759        7.629        0.007      340.866       15.184      857.762
04/12/2014  23:38:00     -112.624      -62.010      -16.356       13.592       14.456       10.633      184.732      208.985      113.065        0.865        0.025      128.567        4.262        0.001      340.822       15.108      857.772
04/12/2014  23:39:00     -113.434      -38.596      -14.281       30.840       20.187       13.393      951.078      407.522      179.367        0.805        0.077      119.821        7.524        0.004      340.759       15.001      857.789
04/12/2014  23:40:00     -101.608      -36.379       -4.012       17.717       25.354       13.563      313.907      642.804      183.942        0.640        0.057      107.924       10.484        0.009      340.794       15.059      857.816
04/12/2014  23:41:00      -43.690      -26.072        8.715       44.741       26.909       18.954     2001.786      724.073      359.249        0.287        0.154       50.878       21.423        0.177      340.662       14.838      857.841
04/12/2014  23:42:00      -19.868      -30.836        6.591       47.636       31.786       20.361     2269.156     1010.362      414.558        0.254        0.185       36.683       22.062        0.362      340.550       14.649      857.866
04/12/2014  23:43:00     -111.609      -15.118      -12.647       28.545       21.992       16.315      814.836      483.633      266.180        0.720        0.078      112.628       15.827        0.020      340.784       15.044      857.892
04/12/2014  23:44:00     -113.226        3.318       -5.091       29.399       28.375       16.666      864.280      805.114      277.740        0.740        0.097      113.275       15.640        0.019      340.755       14.994      857.917
04/12/2014  23:45:00      -87.347      -20.844       -9.457       31.501       24.787       17.142      992.283      614.376      293.832        0.503        0.095       89.800       18.891        0.044      340.731       14.953      857.943
04/12/2014  23:46:00     -125.839      -18.906      -14.488       35.479       26.579       21.130     1258.781      706.432      446.480        0.941        0.121      127.252       22.649        0.032      340.702       14.905      857.965
04/12/2014  23:47:00      -68.400      -23.025        0.894       24.750       28.116       13.780      612.582      790.511      189.880        0.340        0.080       72.172       13.553        0.035      340.671       14.852      857.978
04/12/2014  23:48:00      -41.217       34.101       -7.346       26.326       29.297       15.256      693.082      858.336      232.747        0.235        0.089       53.494       13.994        0.068      340.689       14.883      857.997
04/12/2014  23:49:00     -106.424       50.065      -13.799       25.208       24.812       21.807      635.446      615.645      475.556        0.787        0.086      117.612       16.591        0.020      340.811       15.089      858.020
04/12/2014  23:50:00      -98.025       52.956      -17.572       27.071       23.295       19.272      732.827      542.637      371.400        0.718        0.082      111.415       15.854        0.020      340.807       15.083      858.038
04/12/2014  23:51:00      -69.866       48.805       -4.136       52.924       43.615       27.142     2800.985     1902.261      736.686        0.636        0.272       85.225       28.007        0.108      340.705       14.910      858.065
04/12/2014  23:52:00     -122.991      117.417      -33.145       36.811       41.539       23.608     1355.034     1725.506      557.358        1.682        0.182      170.040       19.205        0.013      340.758       14.998      858.072
04/12/2014  23:53:00     -107.617       99.857      -26.162       36.336       37.289       25.515     1320.283     1390.497      650.995        1.280        0.168      146.809       21.154        0.021      340.735       14.960      858.082
04/12/2014  23:54:00      -75.676      101.981      -23.110       33.135       49.488       28.241     1097.915     2449.061      797.537        1.050        0.217      126.992       25.174        0.039      340.812       15.091      858.080
04/12/2014  23:55:00      -61.411       78.369       -9.461       29.964       56.701       26.845      897.863     3215.028      720.647        0.742        0.242       99.564       26.570        0.071      340.762       15.009      858.072
04/12/2014  23:56:00      -72.571       38.634      -10.016       35.451       36.026       25.127     1256.753     1297.890      631.374        0.502        0.159       82.214       20.064        0.060      340.927       15.286      858.068
04/12/2014  23:57:00      -98.471       68.881      -22.910       47.668       33.348       22.279     2272.203     1112.107      496.364        0.942        0.194      120.171       24.497        0.042      340.714       14.925      858.071
04/12/2014  23:58:00     -126.957      111.394      -34.207       44.085       40.999       26.558     1943.492     1680.952      705.336        1.701        0.216      168.899       23.968        0.020      340.748       14.982      858.074
04/12/2014  23:59:00     -143.333      136.353      -33.437       51.922       44.313       31.229     2695.843     1963.633      975.239        2.294        0.282      197.830       32.809        0.028      340.667       14.845      858.088
